<?xml version="1.0" encoding="UTF-8" standalone="no" ?>
<gpx xmlns="http://www.topografix.com/GPX/1/1" creator="MapSource 6.16.3" version="1.1" xmlns:xsi="http://www.w3.org/2001/XMLSchema-instance" xsi:schemaLocation="http://www.topografix.com/GPX/1/1 http://www.topografix.com/GPX/1/1/gpx.xsd">

  <metadata>
    <link href="http://www.garmin.com">
      <text>Garmin International</text>
    </link>
    <time>2016-09-17T08:01:55Z</time>
    <bounds maxlat="45.948665142059326" maxlon="9.248600006103516" minlat="45.893540382385254" minlon="9.150087833404541"/>
  </metadata>

  <wpt lat="45.896396012976766" lon="9.212349029257894">
    <ele>970.3291015625</ele>
    <name>001</name>
    <sym>Residence</sym>
    <extensions>
      <gpxx:WaypointExtension xmlns:gpxx="http://www.garmin.com/xmlschemas/GpxExtensions/v3">
        <gpxx:DisplayMode>SymbolAndName</gpxx:DisplayMode>
      </gpxx:WaypointExtension>
    </extensions>
  </wpt>

  <wpt lat="45.9154830314219" lon="9.209803026169539">
    <ele>1683.38134765625</ele>
    <name>002</name>
    <sym>Scenic Area</sym>
    <extensions>
      <gpxx:WaypointExtension xmlns:gpxx="http://www.garmin.com/xmlschemas/GpxExtensions/v3">
        <gpxx:DisplayMode>SymbolAndName</gpxx:DisplayMode>
      </gpxx:WaypointExtension>
    </extensions>
  </wpt>

  <wpt lat="45.923161776736379" lon="9.216487761586905">
    <ele>1227.96044921875</ele>
    <name>003</name>
    <sym>Residence</sym>
    <extensions>
      <gpxx:WaypointExtension xmlns:gpxx="http://www.garmin.com/xmlschemas/GpxExtensions/v3">
        <gpxx:DisplayMode>SymbolAndName</gpxx:DisplayMode>
      </gpxx:WaypointExtension>
    </extensions>
  </wpt>

  <wpt lat="45.936038307845592" lon="9.223474329337478">
    <ele>1028</ele>
    <name>004</name>
    <sym>Waypoint</sym>
    <extensions>
      <gpxx:WaypointExtension xmlns:gpxx="http://www.garmin.com/xmlschemas/GpxExtensions/v3">
        <gpxx:DisplayMode>SymbolAndName</gpxx:DisplayMode>
      </gpxx:WaypointExtension>
    </extensions>
  </wpt>

  <wpt lat="45.942787416279316" lon="9.209957085549831">
    <ele>531</ele>
    <name>005</name>
    <sym>Waypoint</sym>
    <extensions>
      <gpxx:WaypointExtension xmlns:gpxx="http://www.garmin.com/xmlschemas/GpxExtensions/v3">
        <gpxx:DisplayMode>SymbolAndName</gpxx:DisplayMode>
      </gpxx:WaypointExtension>
    </extensions>
  </wpt>

  <wpt lat="45.948355598375201" lon="9.205504199489951">
    <ele>226</ele>
    <name>006</name>
    <sym>Waypoint</sym>
    <extensions>
      <gpxx:WaypointExtension xmlns:gpxx="http://www.garmin.com/xmlschemas/GpxExtensions/v3">
        <gpxx:DisplayMode>SymbolAndName</gpxx:DisplayMode>
      </gpxx:WaypointExtension>
    </extensions>
  </wpt>

  <wpt lat="45.912212412804365" lon="9.154996443539858">
    <ele>246</ele>
    <name>007</name>
    <sym>Waypoint</sym>
    <extensions>
      <gpxx:WaypointExtension xmlns:gpxx="http://www.garmin.com/xmlschemas/GpxExtensions/v3">
        <gpxx:DisplayMode>SymbolAndName</gpxx:DisplayMode>
      </gpxx:WaypointExtension>
    </extensions>
  </wpt>

  <wpt lat="45.910016689449549" lon="9.159016655758023">
    <name>ARRIVO</name>
    <cmt>Via Del Tivano</cmt>
    <desc>Via Del Tivano</desc>
    <sym>Diamond, Green</sym>
    <extensions>
      <gpxx:WaypointExtension xmlns:gpxx="http://www.garmin.com/xmlschemas/GpxExtensions/v3">
        <gpxx:DisplayMode>SymbolAndName</gpxx:DisplayMode>
      </gpxx:WaypointExtension>
    </extensions>
  </wpt>

  <wpt lat="45.916155176237226" lon="9.209175892174244">
    <ele>1668</ele>
    <name>DX</name>
    <sym>Waypoint</sym>
    <extensions>
      <gpxx:WaypointExtension xmlns:gpxx="http://www.garmin.com/xmlschemas/GpxExtensions/v3">
        <gpxx:DisplayMode>SymbolAndName</gpxx:DisplayMode>
      </gpxx:WaypointExtension>
    </extensions>
  </wpt>

  <wpt lat="45.910683302208781" lon="9.158866703510284">
    <name>PARTENZA</name>
    <cmt>Via Del Tivano</cmt>
    <desc>Via Del Tivano</desc>
    <sym>Trail Head</sym>
    <extensions>
      <gpxx:WaypointExtension xmlns:gpxx="http://www.garmin.com/xmlschemas/GpxExtensions/v3">
        <gpxx:DisplayMode>SymbolAndName</gpxx:DisplayMode>
      </gpxx:WaypointExtension>
    </extensions>
  </wpt>

  <wpt lat="45.893544070422649" lon="9.223473994061351">
    <ele>981</ele>
    <name>SX</name>
    <sym>Waypoint</sym>
    <extensions>
      <gpxx:WaypointExtension xmlns:gpxx="http://www.garmin.com/xmlschemas/GpxExtensions/v3">
        <gpxx:DisplayMode>SymbolAndName</gpxx:DisplayMode>
      </gpxx:WaypointExtension>
    </extensions>
  </wpt>

  <wpt lat="45.899125747382641" lon="9.245000816881657">
    <ele>1242</ele>
    <name>SX1</name>
    <sym>Waypoint</sym>
    <extensions>
      <gpxx:WaypointExtension xmlns:gpxx="http://www.garmin.com/xmlschemas/GpxExtensions/v3">
        <gpxx:DisplayMode>SymbolAndName</gpxx:DisplayMode>
      </gpxx:WaypointExtension>
    </extensions>
  </wpt>

  <trk>
    <name>ACTIVE LOG</name>
    <trkseg>
      <trkpt lat="45.910685062408447" lon="9.15886402130127">
        <ele>369.28369140625</ele>
        <time>2006-07-09T07:18:06Z</time>
      </trkpt>
      <trkpt lat="45.910685062408447" lon="9.15886402130127">
        <ele>369.28369140625</ele>
        <time>2006-07-09T07:18:41Z</time>
      </trkpt>
      <trkpt lat="45.910727977752686" lon="9.158928394317627">
        <ele>351.4991455078125</ele>
        <time>2006-07-09T07:19:21Z</time>
      </trkpt>
      <trkpt lat="45.910749435424805" lon="9.158992767333984">
        <ele>350.0572509765625</ele>
        <time>2006-07-09T07:20:55Z</time>
      </trkpt>
      <trkpt lat="45.910749435424805" lon="9.159014225006104">
        <ele>346.2120361328125</ele>
        <time>2006-07-09T07:21:25Z</time>
      </trkpt>
      <trkpt lat="45.910727977752686" lon="9.158971309661865">
        <ele>353.902587890625</ele>
        <time>2006-07-09T07:22:16Z</time>
      </trkpt>
      <trkpt lat="45.910706520080566" lon="9.158928394317627">
        <ele>353.421875</ele>
        <time>2006-07-09T07:22:18Z</time>
      </trkpt>
      <trkpt lat="45.910556316375732" lon="9.159014225006104">
        <ele>351.9798583984375</ele>
        <time>2006-07-09T07:22:28Z</time>
      </trkpt>
      <trkpt lat="45.910449028015137" lon="9.159078598022461">
        <ele>351.0184326171875</ele>
        <time>2006-07-09T07:22:34Z</time>
      </trkpt>
      <trkpt lat="45.910427570343018" lon="9.159164428710938">
        <ele>350.537841796875</ele>
        <time>2006-07-09T07:22:37Z</time>
      </trkpt>
      <trkpt lat="45.910513401031494" lon="9.159293174743652">
        <ele>348.615234375</ele>
        <time>2006-07-09T07:22:44Z</time>
      </trkpt>
      <trkpt lat="45.910642147064209" lon="9.159207344055176">
        <ele>347.1732177734375</ele>
        <time>2006-07-09T07:22:50Z</time>
      </trkpt>
      <trkpt lat="45.910921096801758" lon="9.159228801727295">
        <ele>348.615234375</ele>
        <time>2006-07-09T07:23:05Z</time>
      </trkpt>
      <trkpt lat="45.911135673522949" lon="9.159314632415772">
        <ele>350.0572509765625</ele>
        <time>2006-07-09T07:23:18Z</time>
      </trkpt>
      <trkpt lat="45.91137170791626" lon="9.159293174743652">
        <ele>352.941162109375</ele>
        <time>2006-07-09T07:23:31Z</time>
      </trkpt>
      <trkpt lat="45.911586284637451" lon="9.159228801727295">
        <ele>353.421875</ele>
        <time>2006-07-09T07:23:44Z</time>
      </trkpt>
      <trkpt lat="45.911886692047119" lon="9.159057140350342">
        <ele>354.86376953125</ele>
        <time>2006-07-09T07:24:01Z</time>
      </trkpt>
      <trkpt lat="45.912079811096191" lon="9.158906936645508">
        <ele>357.747802734375</ele>
        <time>2006-07-09T07:24:15Z</time>
      </trkpt>
      <trkpt lat="45.912294387817383" lon="9.158799648284912">
        <ele>360.151123046875</ele>
        <time>2006-07-09T07:24:29Z</time>
      </trkpt>
      <trkpt lat="45.912487506866455" lon="9.158735275268555">
        <ele>361.5931396484375</ele>
        <time>2006-07-09T07:24:41Z</time>
      </trkpt>
      <trkpt lat="45.912680625915527" lon="9.158670902252197">
        <ele>363.0350341796875</ele>
        <time>2006-07-09T07:24:53Z</time>
      </trkpt>
      <trkpt lat="45.912895202636719" lon="9.158627986907959">
        <ele>364.9576416015625</ele>
        <time>2006-07-09T07:25:08Z</time>
      </trkpt>
      <trkpt lat="45.913131237030029" lon="9.158563613891602">
        <ele>365.9189453125</ele>
        <time>2006-07-09T07:25:23Z</time>
      </trkpt>
      <trkpt lat="45.913388729095459" lon="9.158585071563721">
        <ele>369.28369140625</ele>
        <time>2006-07-09T07:25:38Z</time>
      </trkpt>
      <trkpt lat="45.91362476348877" lon="9.158713817596436">
        <ele>369.7642822265625</ele>
        <time>2006-07-09T07:25:52Z</time>
      </trkpt>
      <trkpt lat="45.913839340209961" lon="9.158756732940674">
        <ele>371.6868896484375</ele>
        <time>2006-07-09T07:26:05Z</time>
      </trkpt>
      <trkpt lat="45.91411828994751" lon="9.158627986907959">
        <ele>375.051513671875</ele>
        <time>2006-07-09T07:26:20Z</time>
      </trkpt>
      <trkpt lat="45.914418697357178" lon="9.158456325531006">
        <ele>377.9354248046875</ele>
        <time>2006-07-09T07:26:36Z</time>
      </trkpt>
      <trkpt lat="45.914719104766846" lon="9.158499240875244">
        <ele>381.7806396484375</ele>
        <time>2006-07-09T07:26:51Z</time>
      </trkpt>
      <trkpt lat="45.914976596832275" lon="9.158542156219482">
        <ele>382.7420654296875</ele>
        <time>2006-07-09T07:27:05Z</time>
      </trkpt>
      <trkpt lat="45.915255546569824" lon="9.158434867858887">
        <ele>385.6259765625</ele>
        <time>2006-07-09T07:27:21Z</time>
      </trkpt>
      <trkpt lat="45.915491580963135" lon="9.158520698547363">
        <ele>387.0679931640625</ele>
        <time>2006-07-09T07:27:35Z</time>
      </trkpt>
      <trkpt lat="45.915770530700684" lon="9.158778190612793">
        <ele>390.4326171875</ele>
        <time>2006-07-09T07:27:52Z</time>
      </trkpt>
      <trkpt lat="45.916006565093994" lon="9.15886402130127">
        <ele>391.393798828125</ele>
        <time>2006-07-09T07:28:05Z</time>
      </trkpt>
      <trkpt lat="45.916242599487305" lon="9.158799648284912">
        <ele>394.2779541015625</ele>
        <time>2006-07-09T07:28:18Z</time>
      </trkpt>
      <trkpt lat="45.91637134552002" lon="9.158542156219482">
        <ele>395.7198486328125</ele>
        <time>2006-07-09T07:28:29Z</time>
      </trkpt>
      <trkpt lat="45.916564464569092" lon="9.158091545104981">
        <ele>399.0843505859375</ele>
        <time>2006-07-09T07:28:47Z</time>
      </trkpt>
      <trkpt lat="45.916843414306641" lon="9.157791137695313">
        <ele>401.968505859375</ele>
        <time>2006-07-09T07:29:05Z</time>
      </trkpt>
      <trkpt lat="45.917122364044189" lon="9.157640933990479">
        <ele>405.3330078125</ele>
        <time>2006-07-09T07:29:21Z</time>
      </trkpt>
      <trkpt lat="45.917379856109619" lon="9.157640933990479">
        <ele>408.6976318359375</ele>
        <time>2006-07-09T07:29:35Z</time>
      </trkpt>
      <trkpt lat="45.917680263519287" lon="9.157683849334717">
        <ele>409.1783447265625</ele>
        <time>2006-07-09T07:29:51Z</time>
      </trkpt>
      <trkpt lat="45.917980670928955" lon="9.157898426055908">
        <ele>408.6976318359375</ele>
        <time>2006-07-09T07:30:08Z</time>
      </trkpt>
      <trkpt lat="45.918130874633789" lon="9.158048629760742">
        <ele>409.6590576171875</ele>
        <time>2006-07-09T07:30:19Z</time>
      </trkpt>
      <trkpt lat="45.918023586273193" lon="9.157984256744385">
        <ele>410.1396484375</ele>
        <time>2006-07-09T07:30:25Z</time>
      </trkpt>
      <trkpt lat="45.917723178863525" lon="9.15785551071167">
        <ele>411.1009521484375</ele>
        <time>2006-07-09T07:30:40Z</time>
      </trkpt>
      <trkpt lat="45.917444229125977" lon="9.157898426055908">
        <ele>413.5042724609375</ele>
        <time>2006-07-09T07:30:54Z</time>
      </trkpt>
      <trkpt lat="45.917186737060547" lon="9.157962799072266">
        <ele>417.8302001953125</ele>
        <time>2006-07-09T07:31:09Z</time>
      </trkpt>
      <trkpt lat="45.916929244995117" lon="9.158155918121338">
        <ele>422.156005859375</ele>
        <time>2006-07-09T07:31:24Z</time>
      </trkpt>
      <trkpt lat="45.916843414306641" lon="9.158520698547363">
        <ele>425.0401611328125</ele>
        <time>2006-07-09T07:31:39Z</time>
      </trkpt>
      <trkpt lat="45.916886329650879" lon="9.158906936645508">
        <ele>429.365966796875</ele>
        <time>2006-07-09T07:31:53Z</time>
      </trkpt>
      <trkpt lat="45.916950702667236" lon="9.159207344055176">
        <ele>431.28857421875</ele>
        <time>2006-07-09T07:32:05Z</time>
      </trkpt>
      <trkpt lat="45.916757583618164" lon="9.159464836120606">
        <ele>433.69189453125</ele>
        <time>2006-07-09T07:32:20Z</time>
      </trkpt>
      <trkpt lat="45.916500091552734" lon="9.159786701202393">
        <ele>434.6533203125</ele>
        <time>2006-07-09T07:32:38Z</time>
      </trkpt>
      <trkpt lat="45.916242599487305" lon="9.159958362579346">
        <ele>437.0565185546875</ele>
        <time>2006-07-09T07:32:54Z</time>
      </trkpt>
      <trkpt lat="45.916156768798828" lon="9.160001277923584">
        <ele>438.017822265625</ele>
        <time>2006-07-09T07:32:59Z</time>
      </trkpt>
      <trkpt lat="45.916006565093994" lon="9.160237312316895">
        <ele>439.9404296875</ele>
        <time>2006-07-09T07:33:12Z</time>
      </trkpt>
      <trkpt lat="45.915877819061279" lon="9.160258769989014">
        <ele>440.4212646484375</ele>
        <time>2006-07-09T07:33:20Z</time>
      </trkpt>
      <trkpt lat="45.915555953979492" lon="9.160258769989014">
        <ele>442.3438720703125</ele>
        <time>2006-07-09T07:33:38Z</time>
      </trkpt>
      <trkpt lat="45.915212631225586" lon="9.160301685333252">
        <ele>444.7470703125</ele>
        <time>2006-07-09T07:33:57Z</time>
      </trkpt>
      <trkpt lat="45.914912223815918" lon="9.160366058349609">
        <ele>448.5924072265625</ele>
        <time>2006-07-09T07:34:15Z</time>
      </trkpt>
      <trkpt lat="45.914654731750488" lon="9.160258769989014">
        <ele>451.95703125</ele>
        <time>2006-07-09T07:34:30Z</time>
      </trkpt>
      <trkpt lat="45.914590358734131" lon="9.160237312316895">
        <ele>452.918212890625</ele>
        <time>2006-07-09T07:34:33Z</time>
      </trkpt>
      <trkpt lat="45.914547443389893" lon="9.160451889038086">
        <ele>452.918212890625</ele>
        <time>2006-07-09T07:34:42Z</time>
      </trkpt>
      <trkpt lat="45.914633274078369" lon="9.160494804382324">
        <ele>453.39892578125</ele>
        <time>2006-07-09T07:34:46Z</time>
      </trkpt>
      <trkpt lat="45.914933681488037" lon="9.160516262054443">
        <ele>454.3602294921875</ele>
        <time>2006-07-09T07:35:00Z</time>
      </trkpt>
      <trkpt lat="45.915148258209229" lon="9.160559177398682">
        <ele>456.282958984375</ele>
        <time>2006-07-09T07:35:13Z</time>
      </trkpt>
      <trkpt lat="45.915234088897705" lon="9.160580635070801">
        <ele>458.20556640625</ele>
        <time>2006-07-09T07:35:26Z</time>
      </trkpt>
      <trkpt lat="45.915319919586182" lon="9.160580635070801">
        <ele>461.0894775390625</ele>
        <time>2006-07-09T07:35:45Z</time>
      </trkpt>
      <trkpt lat="45.91559886932373" lon="9.16060209274292">
        <ele>462.05078125</ele>
        <time>2006-07-09T07:36:02Z</time>
      </trkpt>
      <trkpt lat="45.915877819061279" lon="9.160709381103516">
        <ele>463.4927978515625</ele>
        <time>2006-07-09T07:36:18Z</time>
      </trkpt>
      <trkpt lat="45.916135311126709" lon="9.160816669464111">
        <ele>464.4541015625</ele>
        <time>2006-07-09T07:36:32Z</time>
      </trkpt>
      <trkpt lat="45.91637134552002" lon="9.160687923431397">
        <ele>466.376708984375</ele>
        <time>2006-07-09T07:36:45Z</time>
      </trkpt>
      <trkpt lat="45.916671752929688" lon="9.160430431365967">
        <ele>469.2607421875</ele>
        <time>2006-07-09T07:37:04Z</time>
      </trkpt>
      <trkpt lat="45.916972160339355" lon="9.160258769989014">
        <ele>473.586669921875</ele>
        <time>2006-07-09T07:37:22Z</time>
      </trkpt>
      <trkpt lat="45.917229652404785" lon="9.160044193267822">
        <ele>476.9512939453125</ele>
        <time>2006-07-09T07:37:38Z</time>
      </trkpt>
      <trkpt lat="45.917530059814453" lon="9.159765243530273">
        <ele>480.31591796875</ele>
        <time>2006-07-09T07:37:57Z</time>
      </trkpt>
      <trkpt lat="45.917701721191406" lon="9.159572124481201">
        <ele>481.7578125</ele>
        <time>2006-07-09T07:38:09Z</time>
      </trkpt>
      <trkpt lat="45.917723178863525" lon="9.159679412841797">
        <ele>483.1998291015625</ele>
        <time>2006-07-09T07:38:16Z</time>
      </trkpt>
      <trkpt lat="45.917701721191406" lon="9.159700870513916">
        <ele>482.71923828125</ele>
        <time>2006-07-09T07:38:17Z</time>
      </trkpt>
      <trkpt lat="45.917401313781738" lon="9.159958362579346">
        <ele>485.60302734375</ele>
        <time>2006-07-09T07:38:34Z</time>
      </trkpt>
      <trkpt lat="45.917208194732666" lon="9.160301685333252">
        <ele>489.4483642578125</ele>
        <time>2006-07-09T07:38:51Z</time>
      </trkpt>
      <trkpt lat="45.917015075683594" lon="9.160537719726563">
        <ele>492.81298828125</ele>
        <time>2006-07-09T07:39:05Z</time>
      </trkpt>
      <trkpt lat="45.916779041290283" lon="9.160838127136231">
        <ele>494.735595703125</ele>
        <time>2006-07-09T07:39:23Z</time>
      </trkpt>
      <trkpt lat="45.916585922241211" lon="9.16109561920166">
        <ele>498.100341796875</ele>
        <time>2006-07-09T07:39:38Z</time>
      </trkpt>
      <trkpt lat="45.91637134552002" lon="9.16135311126709">
        <ele>500.984130859375</ele>
        <time>2006-07-09T07:39:54Z</time>
      </trkpt>
      <trkpt lat="45.91611385345459" lon="9.16135311126709">
        <ele>501.945556640625</ele>
        <time>2006-07-09T07:40:08Z</time>
      </trkpt>
      <trkpt lat="45.91585636138916" lon="9.161374568939209">
        <ele>506.271484375</ele>
        <time>2006-07-09T07:40:23Z</time>
      </trkpt>
      <trkpt lat="45.91559886932373" lon="9.161481857299805">
        <ele>507.2327880859375</ele>
        <time>2006-07-09T07:40:38Z</time>
      </trkpt>
      <trkpt lat="45.915384292602539" lon="9.16161060333252">
        <ele>509.6361083984375</ele>
        <time>2006-07-09T07:40:52Z</time>
      </trkpt>
      <trkpt lat="45.915083885192871" lon="9.161739349365234">
        <ele>511.5587158203125</ele>
        <time>2006-07-09T07:41:09Z</time>
      </trkpt>
      <trkpt lat="45.91486930847168" lon="9.161825180053711">
        <ele>511.5587158203125</ele>
        <time>2006-07-09T07:41:21Z</time>
      </trkpt>
      <trkpt lat="45.914590358734131" lon="9.161932468414307">
        <ele>514.92333984375</ele>
        <time>2006-07-09T07:41:37Z</time>
      </trkpt>
      <trkpt lat="45.914311408996582" lon="9.161975383758545">
        <ele>518.287841796875</ele>
        <time>2006-07-09T07:41:53Z</time>
      </trkpt>
      <trkpt lat="45.914053916931152" lon="9.161889553070068">
        <ele>520.2105712890625</ele>
        <time>2006-07-09T07:42:08Z</time>
      </trkpt>
      <trkpt lat="45.913817882537842" lon="9.161932468414307">
        <ele>522.1331787109375</ele>
        <time>2006-07-09T07:42:22Z</time>
      </trkpt>
      <trkpt lat="45.913710594177246" lon="9.162061214447022">
        <ele>523.5751953125</ele>
        <time>2006-07-09T07:42:31Z</time>
      </trkpt>
      <trkpt lat="45.913796424865723" lon="9.162168502807617">
        <ele>522.6138916015625</ele>
        <time>2006-07-09T07:42:38Z</time>
      </trkpt>
      <trkpt lat="45.913925170898438" lon="9.162082672119141">
        <ele>522.1331787109375</ele>
        <time>2006-07-09T07:42:44Z</time>
      </trkpt>
      <trkpt lat="45.914161205291748" lon="9.162168502807617">
        <ele>521.652587890625</ele>
        <time>2006-07-09T07:42:57Z</time>
      </trkpt>
      <trkpt lat="45.914397239685059" lon="9.16234016418457">
        <ele>524.5364990234375</ele>
        <time>2006-07-09T07:43:13Z</time>
      </trkpt>
      <trkpt lat="45.914633274078369" lon="9.162383079528809">
        <ele>528.3818359375</ele>
        <time>2006-07-09T07:43:29Z</time>
      </trkpt>
      <trkpt lat="45.91486930847168" lon="9.16234016418457">
        <ele>531.746337890625</ele>
        <time>2006-07-09T07:43:43Z</time>
      </trkpt>
      <trkpt lat="45.915126800537109" lon="9.162318706512451">
        <ele>533.6689453125</ele>
        <time>2006-07-09T07:43:58Z</time>
      </trkpt>
      <trkpt lat="45.915405750274658" lon="9.162211418151856">
        <ele>534.63037109375</ele>
        <time>2006-07-09T07:44:13Z</time>
      </trkpt>
      <trkpt lat="45.915641784667969" lon="9.16210412979126">
        <ele>536.5531005859375</ele>
        <time>2006-07-09T07:44:26Z</time>
      </trkpt>
      <trkpt lat="45.91559886932373" lon="9.162189960479736">
        <ele>537.5142822265625</ele>
        <time>2006-07-09T07:44:31Z</time>
      </trkpt>
      <trkpt lat="45.915319919586182" lon="9.162318706512451">
        <ele>540.87890625</ele>
        <time>2006-07-09T07:44:48Z</time>
      </trkpt>
      <trkpt lat="45.91510534286499" lon="9.162425994873047">
        <ele>543.7628173828125</ele>
        <time>2006-07-09T07:45:02Z</time>
      </trkpt>
      <trkpt lat="45.914826393127441" lon="9.16259765625">
        <ele>547.12744140625</ele>
        <time>2006-07-09T07:45:20Z</time>
      </trkpt>
      <trkpt lat="45.914568901062012" lon="9.162747859954834">
        <ele>549.050048828125</ele>
        <time>2006-07-09T07:45:37Z</time>
      </trkpt>
      <trkpt lat="45.914289951324463" lon="9.162726402282715">
        <ele>550.97265625</ele>
        <time>2006-07-09T07:45:53Z</time>
      </trkpt>
      <trkpt lat="45.914053916931152" lon="9.16285514831543">
        <ele>554.33740234375</ele>
        <time>2006-07-09T07:46:08Z</time>
      </trkpt>
      <trkpt lat="45.91386079788208" lon="9.162983894348145">
        <ele>555.779296875</ele>
        <time>2006-07-09T07:46:21Z</time>
      </trkpt>
      <trkpt lat="45.913667678833008" lon="9.163155555725098">
        <ele>559.14404296875</ele>
        <time>2006-07-09T07:46:35Z</time>
      </trkpt>
      <trkpt lat="45.913431644439697" lon="9.163305759429932">
        <ele>562.028076171875</ele>
        <time>2006-07-09T07:46:51Z</time>
      </trkpt>
      <trkpt lat="45.913174152374268" lon="9.163520336151123">
        <ele>564.911865234375</ele>
        <time>2006-07-09T07:47:08Z</time>
      </trkpt>
      <trkpt lat="45.912981033325195" lon="9.163799285888672">
        <ele>566.353759765625</ele>
        <time>2006-07-09T07:47:24Z</time>
      </trkpt>
      <trkpt lat="45.912809371948242" lon="9.164056777954102">
        <ele>569.23779296875</ele>
        <time>2006-07-09T07:47:40Z</time>
      </trkpt>
      <trkpt lat="45.912723541259766" lon="9.164206981658936">
        <ele>570.6796875</ele>
        <time>2006-07-09T07:47:48Z</time>
      </trkpt>
      <trkpt lat="45.912766456604004" lon="9.164292812347412">
        <ele>570.6796875</ele>
        <time>2006-07-09T07:47:52Z</time>
      </trkpt>
      <trkpt lat="45.912787914276123" lon="9.16433572769165">
        <ele>570.6796875</ele>
        <time>2006-07-09T07:47:54Z</time>
      </trkpt>
      <trkpt lat="45.9128737449646" lon="9.164249897003174">
        <ele>571.640869140625</ele>
        <time>2006-07-09T07:47:59Z</time>
      </trkpt>
      <trkpt lat="45.913131237030029" lon="9.163906574249268">
        <ele>571.160400390625</ele>
        <time>2006-07-09T07:48:15Z</time>
      </trkpt>
      <trkpt lat="45.913410186767578" lon="9.163713455200195">
        <ele>573.56396484375</ele>
        <time>2006-07-09T07:48:31Z</time>
      </trkpt>
      <trkpt lat="45.913689136505127" lon="9.1636061668396">
        <ele>575.486328125</ele>
        <time>2006-07-09T07:48:46Z</time>
      </trkpt>
      <trkpt lat="45.913968086242676" lon="9.163434505462647">
        <ele>577.4091796875</ele>
        <time>2006-07-09T07:49:01Z</time>
      </trkpt>
      <trkpt lat="45.914096832275391" lon="9.163327217102051">
        <ele>577.4091796875</ele>
        <time>2006-07-09T07:49:09Z</time>
      </trkpt>
      <trkpt lat="45.914075374603271" lon="9.163434505462647">
        <ele>578.370361328125</ele>
        <time>2006-07-09T07:49:16Z</time>
      </trkpt>
      <trkpt lat="45.913839340209961" lon="9.163649082183838">
        <ele>581.25439453125</ele>
        <time>2006-07-09T07:49:32Z</time>
      </trkpt>
      <trkpt lat="45.91360330581665" lon="9.16384220123291">
        <ele>583.657470703125</ele>
        <time>2006-07-09T07:49:48Z</time>
      </trkpt>
      <trkpt lat="45.913431644439697" lon="9.164056777954102">
        <ele>587.9833984375</ele>
        <time>2006-07-09T07:50:02Z</time>
      </trkpt>
      <trkpt lat="45.913259983062744" lon="9.16433572769165">
        <ele>591.828857421875</ele>
        <time>2006-07-09T07:50:18Z</time>
      </trkpt>
      <trkpt lat="45.913088321685791" lon="9.164743423461914">
        <ele>593.75146484375</ele>
        <time>2006-07-09T07:50:37Z</time>
      </trkpt>
      <trkpt lat="45.912959575653076" lon="9.165065288543701">
        <ele>596.635498046875</ele>
        <time>2006-07-09T07:50:53Z</time>
      </trkpt>
      <trkpt lat="45.912916660308838" lon="9.165451526641846">
        <ele>600.480712890625</ele>
        <time>2006-07-09T07:51:09Z</time>
      </trkpt>
      <trkpt lat="45.912895202636719" lon="9.165816307067871">
        <ele>604.326171875</ele>
        <time>2006-07-09T07:51:24Z</time>
      </trkpt>
      <trkpt lat="45.912959575653076" lon="9.16609525680542">
        <ele>606.24853515625</ele>
        <time>2006-07-09T07:51:37Z</time>
      </trkpt>
      <trkpt lat="45.913066864013672" lon="9.166438579559326">
        <ele>608.65185546875</ele>
        <time>2006-07-09T07:51:53Z</time>
      </trkpt>
      <trkpt lat="45.913088321685791" lon="9.166717529296875">
        <ele>611.05517578125</ele>
        <time>2006-07-09T07:52:05Z</time>
      </trkpt>
      <trkpt lat="45.913152694702148" lon="9.167125225067139">
        <ele>614.419677734375</ele>
        <time>2006-07-09T07:52:22Z</time>
      </trkpt>
      <trkpt lat="45.913217067718506" lon="9.167447090148926">
        <ele>616.822998046875</ele>
        <time>2006-07-09T07:52:38Z</time>
      </trkpt>
      <trkpt lat="45.913302898406982" lon="9.167790412902832">
        <ele>616.34228515625</ele>
        <time>2006-07-09T07:52:54Z</time>
      </trkpt>
      <trkpt lat="45.913281440734863" lon="9.168069362640381">
        <ele>619.70703125</ele>
        <time>2006-07-09T07:53:07Z</time>
      </trkpt>
      <trkpt lat="45.913174152374268" lon="9.168519973754883">
        <ele>621.629638671875</ele>
        <time>2006-07-09T07:53:27Z</time>
      </trkpt>
      <trkpt lat="45.912959575653076" lon="9.168648719787598">
        <ele>622.591064453125</ele>
        <time>2006-07-09T07:53:40Z</time>
      </trkpt>
      <trkpt lat="45.912702083587646" lon="9.168691635131836">
        <ele>621.629638671875</ele>
        <time>2006-07-09T07:53:53Z</time>
      </trkpt>
      <trkpt lat="45.912423133850098" lon="9.168627262115479">
        <ele>623.552490234375</ele>
        <time>2006-07-09T07:54:09Z</time>
      </trkpt>
      <trkpt lat="45.912165641784668" lon="9.168477058410645">
        <ele>623.552490234375</ele>
        <time>2006-07-09T07:54:24Z</time>
      </trkpt>
      <trkpt lat="45.911865234375" lon="9.168219566345215">
        <ele>622.1103515625</ele>
        <time>2006-07-09T07:54:41Z</time>
      </trkpt>
      <trkpt lat="45.91160774230957" lon="9.167983531951904">
        <ele>622.1103515625</ele>
        <time>2006-07-09T07:54:57Z</time>
      </trkpt>
      <trkpt lat="45.911285877227783" lon="9.167790412902832">
        <ele>624.994384765625</ele>
        <time>2006-07-09T07:55:15Z</time>
      </trkpt>
      <trkpt lat="45.910964012145996" lon="9.167768955230713">
        <ele>626.436279296875</ele>
        <time>2006-07-09T07:55:31Z</time>
      </trkpt>
      <trkpt lat="45.910685062408447" lon="9.167640209197998">
        <ele>629.80078125</ele>
        <time>2006-07-09T07:55:45Z</time>
      </trkpt>
      <trkpt lat="45.910513401031494" lon="9.167318344116211">
        <ele>630.76220703125</ele>
        <time>2006-07-09T07:55:58Z</time>
      </trkpt>
      <trkpt lat="45.910255908966064" lon="9.167189598083496">
        <ele>635.088134765625</ele>
        <time>2006-07-09T07:56:11Z</time>
      </trkpt>
      <trkpt lat="45.910041332244873" lon="9.167361259460449">
        <ele>635.568603515625</ele>
        <time>2006-07-09T07:56:23Z</time>
      </trkpt>
      <trkpt lat="45.909955501556396" lon="9.167661666870117">
        <ele>635.568603515625</ele>
        <time>2006-07-09T07:56:34Z</time>
      </trkpt>
      <trkpt lat="45.909848213195801" lon="9.167940616607666">
        <ele>638.452880859375</ele>
        <time>2006-07-09T07:56:46Z</time>
      </trkpt>
      <trkpt lat="45.909762382507324" lon="9.168198108673096">
        <ele>639.894775390625</ele>
        <time>2006-07-09T07:56:59Z</time>
      </trkpt>
      <trkpt lat="45.909719467163086" lon="9.16834831237793">
        <ele>640.85595703125</ele>
        <time>2006-07-09T07:57:06Z</time>
      </trkpt>
      <trkpt lat="45.909633636474609" lon="9.168605804443359">
        <ele>643.25927734375</ele>
        <time>2006-07-09T07:57:19Z</time>
      </trkpt>
      <trkpt lat="45.909547805786133" lon="9.168863296508789">
        <ele>645.181884765625</ele>
        <time>2006-07-09T07:57:32Z</time>
      </trkpt>
      <trkpt lat="45.909419059753418" lon="9.169270992279053">
        <ele>646.143310546875</ele>
        <time>2006-07-09T07:57:50Z</time>
      </trkpt>
      <trkpt lat="45.909290313720703" lon="9.169614315032959">
        <ele>647.585205078125</ele>
        <time>2006-07-09T07:58:07Z</time>
      </trkpt>
      <trkpt lat="45.909204483032227" lon="9.169957637786865">
        <ele>649.988525390625</ele>
        <time>2006-07-09T07:58:22Z</time>
      </trkpt>
      <trkpt lat="45.909161567687988" lon="9.170193672180176">
        <ele>651.430419921875</ele>
        <time>2006-07-09T07:58:33Z</time>
      </trkpt>
      <trkpt lat="45.909075736999512" lon="9.17057991027832">
        <ele>653.833984375</ele>
        <time>2006-07-09T07:58:49Z</time>
      </trkpt>
      <trkpt lat="45.908989906311035" lon="9.171030521392822">
        <ele>651.430419921875</ele>
        <time>2006-07-09T07:59:07Z</time>
      </trkpt>
      <trkpt lat="45.908925533294678" lon="9.171309471130371">
        <ele>656.7177734375</ele>
        <time>2006-07-09T07:59:19Z</time>
      </trkpt>
      <trkpt lat="45.908882617950439" lon="9.171674251556397">
        <ele>659.12109375</ele>
        <time>2006-07-09T07:59:34Z</time>
      </trkpt>
      <trkpt lat="45.908925533294678" lon="9.171996116638184">
        <ele>662.485595703125</ele>
        <time>2006-07-09T07:59:46Z</time>
      </trkpt>
      <trkpt lat="45.909011363983154" lon="9.172382354736328">
        <ele>665.850341796875</ele>
        <time>2006-07-09T08:00:03Z</time>
      </trkpt>
      <trkpt lat="45.909054279327393" lon="9.172704219818115">
        <ele>667.772705078125</ele>
        <time>2006-07-09T08:00:17Z</time>
      </trkpt>
      <trkpt lat="45.909011363983154" lon="9.173047542572022">
        <ele>669.215087890625</ele>
        <time>2006-07-09T08:00:32Z</time>
      </trkpt>
      <trkpt lat="45.909032821655273" lon="9.17332649230957">
        <ele>671.1376953125</ele>
        <time>2006-07-09T08:00:45Z</time>
      </trkpt>
      <trkpt lat="45.909183025360107" lon="9.173562526702881">
        <ele>674.021484375</ele>
        <time>2006-07-09T08:00:59Z</time>
      </trkpt>
      <trkpt lat="45.909333229064941" lon="9.173798561096191">
        <ele>675.46337890625</ele>
        <time>2006-07-09T08:01:13Z</time>
      </trkpt>
      <trkpt lat="45.909547805786133" lon="9.173991680145264">
        <ele>679.30859375</ele>
        <time>2006-07-09T08:01:30Z</time>
      </trkpt>
      <trkpt lat="45.909762382507324" lon="9.174206256866455">
        <ele>682.67333984375</ele>
        <time>2006-07-09T08:01:46Z</time>
      </trkpt>
      <trkpt lat="45.90986967086792" lon="9.174356460571289">
        <ele>684.59619140625</ele>
        <time>2006-07-09T08:01:59Z</time>
      </trkpt>
      <trkpt lat="45.909976959228516" lon="9.174549579620361">
        <ele>686.518798828125</ele>
        <time>2006-07-09T08:02:11Z</time>
      </trkpt>
      <trkpt lat="45.909998416900635" lon="9.1745924949646">
        <ele>687.960693359375</ele>
        <time>2006-07-09T08:02:13Z</time>
      </trkpt>
      <trkpt lat="45.909976959228516" lon="9.174678325653076">
        <ele>688.922119140625</ele>
        <time>2006-07-09T08:02:17Z</time>
      </trkpt>
      <trkpt lat="45.909848213195801" lon="9.17508602142334">
        <ele>689.402587890625</ele>
        <time>2006-07-09T08:02:32Z</time>
      </trkpt>
      <trkpt lat="45.909698009490967" lon="9.175171852111816">
        <ele>691.3251953125</ele>
        <time>2006-07-09T08:02:43Z</time>
      </trkpt>
      <trkpt lat="45.909483432769775" lon="9.175064563751221">
        <ele>693.247802734375</ele>
        <time>2006-07-09T08:02:57Z</time>
      </trkpt>
      <trkpt lat="45.909354686737061" lon="9.175257682800293">
        <ele>694.209228515625</ele>
        <time>2006-07-09T08:03:09Z</time>
      </trkpt>
      <trkpt lat="45.909311771392822" lon="9.175558090209961">
        <ele>695.651123046875</ele>
        <time>2006-07-09T08:03:22Z</time>
      </trkpt>
      <trkpt lat="45.909268856048584" lon="9.175901412963867">
        <ele>696.1318359375</ele>
        <time>2006-07-09T08:03:36Z</time>
      </trkpt>
      <trkpt lat="45.909097194671631" lon="9.176223278045654">
        <ele>697.57373046875</ele>
        <time>2006-07-09T08:03:52Z</time>
      </trkpt>
      <trkpt lat="45.908968448638916" lon="9.176480770111084">
        <ele>698.534912109375</ele>
        <time>2006-07-09T08:04:05Z</time>
      </trkpt>
      <trkpt lat="45.908796787261963" lon="9.176738262176514">
        <ele>699.496337890625</ele>
        <time>2006-07-09T08:04:20Z</time>
      </trkpt>
      <trkpt lat="45.908646583557129" lon="9.176995754241943">
        <ele>705.264404296875</ele>
        <time>2006-07-09T08:04:35Z</time>
      </trkpt>
      <trkpt lat="45.908453464508057" lon="9.177274703979492">
        <ele>709.59033203125</ele>
        <time>2006-07-09T08:04:51Z</time>
      </trkpt>
      <trkpt lat="45.908260345458984" lon="9.177532196044922">
        <ele>711.512939453125</ele>
        <time>2006-07-09T08:05:07Z</time>
      </trkpt>
      <trkpt lat="45.908045768737793" lon="9.177682399749756">
        <ele>714.87744140625</ele>
        <time>2006-07-09T08:05:19Z</time>
      </trkpt>
      <trkpt lat="45.907917022705078" lon="9.177918434143066">
        <ele>716.319580078125</ele>
        <time>2006-07-09T08:05:33Z</time>
      </trkpt>
      <trkpt lat="45.907917022705078" lon="9.177939891815186">
        <ele>716.319580078125</ele>
        <time>2006-07-09T08:05:34Z</time>
      </trkpt>
      <trkpt lat="45.90787410736084" lon="9.1780686378479">
        <ele>717.281005859375</ele>
        <time>2006-07-09T08:05:42Z</time>
      </trkpt>
      <trkpt lat="45.907788276672363" lon="9.178261756896973">
        <ele>718.722900390625</ele>
        <time>2006-07-09T08:05:54Z</time>
      </trkpt>
      <trkpt lat="45.907702445983887" lon="9.178562164306641">
        <ele>721.126220703125</ele>
        <time>2006-07-09T08:06:09Z</time>
      </trkpt>
      <trkpt lat="45.907595157623291" lon="9.178905487060547">
        <ele>724.010009765625</ele>
        <time>2006-07-09T08:06:25Z</time>
      </trkpt>
      <trkpt lat="45.907530784606934" lon="9.179227352142334">
        <ele>726.413330078125</ele>
        <time>2006-07-09T08:06:40Z</time>
      </trkpt>
      <trkpt lat="45.907444953918457" lon="9.179463386535645">
        <ele>726.413330078125</ele>
        <time>2006-07-09T08:06:53Z</time>
      </trkpt>
      <trkpt lat="45.907251834869385" lon="9.179656505584717">
        <ele>728.3359375</ele>
        <time>2006-07-09T08:07:08Z</time>
      </trkpt>
      <trkpt lat="45.907058715820313" lon="9.17982816696167">
        <ele>730.7392578125</ele>
        <time>2006-07-09T08:07:24Z</time>
      </trkpt>
      <trkpt lat="45.906908512115479" lon="9.180107116699219">
        <ele>734.10400390625</ele>
        <time>2006-07-09T08:07:40Z</time>
      </trkpt>
      <trkpt lat="45.906801223754883" lon="9.180407524108887">
        <ele>737.468505859375</ele>
        <time>2006-07-09T08:07:55Z</time>
      </trkpt>
      <trkpt lat="45.906672477722168" lon="9.180686473846436">
        <ele>740.8330078125</ele>
        <time>2006-07-09T08:08:10Z</time>
      </trkpt>
      <trkpt lat="45.906543731689453" lon="9.180943965911865">
        <ele>741.79443359375</ele>
        <time>2006-07-09T08:08:25Z</time>
      </trkpt>
      <trkpt lat="45.906393527984619" lon="9.181287288665772">
        <ele>744.67822265625</ele>
        <time>2006-07-09T08:08:43Z</time>
      </trkpt>
      <trkpt lat="45.906307697296143" lon="9.181609153747559">
        <ele>745.6396484375</ele>
        <time>2006-07-09T08:08:57Z</time>
      </trkpt>
      <trkpt lat="45.906157493591309" lon="9.18182373046875">
        <ele>748.043212890625</ele>
        <time>2006-07-09T08:09:11Z</time>
      </trkpt>
      <trkpt lat="45.906071662902832" lon="9.181931018829346">
        <ele>750.927001953125</ele>
        <time>2006-07-09T08:09:20Z</time>
      </trkpt>
      <trkpt lat="45.905985832214355" lon="9.181995391845703">
        <ele>751.888427734375</ele>
        <time>2006-07-09T08:09:30Z</time>
      </trkpt>
      <trkpt lat="45.905964374542236" lon="9.181995391845703">
        <ele>752.368896484375</ele>
        <time>2006-07-09T08:09:31Z</time>
      </trkpt>
      <trkpt lat="45.905921459197998" lon="9.181995391845703">
        <ele>756.214111328125</ele>
        <time>2006-07-09T08:09:43Z</time>
      </trkpt>
      <trkpt lat="45.905835628509521" lon="9.181995391845703">
        <ele>754.772216796875</ele>
        <time>2006-07-09T08:11:32Z</time>
      </trkpt>
      <trkpt lat="45.905599594116211" lon="9.181995391845703">
        <ele>757.175537109375</ele>
        <time>2006-07-09T08:11:45Z</time>
      </trkpt>
      <trkpt lat="45.905535221099854" lon="9.18208122253418">
        <ele>757.175537109375</ele>
        <time>2006-07-09T08:11:51Z</time>
      </trkpt>
      <trkpt lat="45.905556678771973" lon="9.182274341583252">
        <ele>758.136962890625</ele>
        <time>2006-07-09T08:11:58Z</time>
      </trkpt>
      <trkpt lat="45.905449390411377" lon="9.182274341583252">
        <ele>758.617431640625</ele>
        <time>2006-07-09T08:12:06Z</time>
      </trkpt>
      <trkpt lat="45.9053635597229" lon="9.181866645812988">
        <ele>759.578857421875</ele>
        <time>2006-07-09T08:12:28Z</time>
      </trkpt>
      <trkpt lat="45.90538501739502" lon="9.181458950042725">
        <ele>760.5400390625</ele>
        <time>2006-07-09T08:12:44Z</time>
      </trkpt>
      <trkpt lat="45.90538501739502" lon="9.180986881256104">
        <ele>762.462646484375</ele>
        <time>2006-07-09T08:13:03Z</time>
      </trkpt>
      <trkpt lat="45.9053635597229" lon="9.180622100830078">
        <ele>766.788818359375</ele>
        <time>2006-07-09T08:13:17Z</time>
      </trkpt>
      <trkpt lat="45.905342102050781" lon="9.180235862731934">
        <ele>766.788818359375</ele>
        <time>2006-07-09T08:13:33Z</time>
      </trkpt>
      <trkpt lat="45.905342102050781" lon="9.179935455322266">
        <ele>770.634033203125</ele>
        <time>2006-07-09T08:13:45Z</time>
      </trkpt>
      <trkpt lat="45.905342102050781" lon="9.179592132568359">
        <ele>772.075927734375</ele>
        <time>2006-07-09T08:13:59Z</time>
      </trkpt>
      <trkpt lat="45.905342102050781" lon="9.179313182830811">
        <ele>772.556640625</ele>
        <time>2006-07-09T08:14:11Z</time>
      </trkpt>
      <trkpt lat="45.905256271362305" lon="9.179248809814453">
        <ele>773.037353515625</ele>
        <time>2006-07-09T08:14:18Z</time>
      </trkpt>
      <trkpt lat="45.905170440673828" lon="9.179356098175049">
        <ele>772.556640625</ele>
        <time>2006-07-09T08:14:24Z</time>
      </trkpt>
      <trkpt lat="45.905063152313232" lon="9.179699420928955">
        <ele>772.556640625</ele>
        <time>2006-07-09T08:14:42Z</time>
      </trkpt>
      <trkpt lat="45.905020236968994" lon="9.179892539978027">
        <ele>773.51806640625</ele>
        <time>2006-07-09T08:14:52Z</time>
      </trkpt>
      <trkpt lat="45.904977321624756" lon="9.180171489715576">
        <ele>773.51806640625</ele>
        <time>2006-07-09T08:15:06Z</time>
      </trkpt>
      <trkpt lat="45.904848575592041" lon="9.180557727813721">
        <ele>774.9599609375</ele>
        <time>2006-07-09T08:15:26Z</time>
      </trkpt>
      <trkpt lat="45.904827117919922" lon="9.18081521987915">
        <ele>779.766357421875</ele>
        <time>2006-07-09T08:15:39Z</time>
      </trkpt>
      <trkpt lat="45.904848575592041" lon="9.181051254272461">
        <ele>782.169921875</ele>
        <time>2006-07-09T08:15:50Z</time>
      </trkpt>
      <trkpt lat="45.904934406280518" lon="9.181416034698486">
        <ele>784.5732421875</ele>
        <time>2006-07-09T08:16:08Z</time>
      </trkpt>
      <trkpt lat="45.904977321624756" lon="9.18158769607544">
        <ele>786.495849609375</ele>
        <time>2006-07-09T08:16:19Z</time>
      </trkpt>
      <trkpt lat="45.904998779296875" lon="9.18182373046875">
        <ele>789.379638671875</ele>
        <time>2006-07-09T08:16:31Z</time>
      </trkpt>
      <trkpt lat="45.904998779296875" lon="9.182102680206299">
        <ele>792.263671875</ele>
        <time>2006-07-09T08:16:45Z</time>
      </trkpt>
      <trkpt lat="45.904998779296875" lon="9.182338714599609">
        <ele>793.70556640625</ele>
        <time>2006-07-09T08:16:58Z</time>
      </trkpt>
      <trkpt lat="45.905020236968994" lon="9.182596206665039">
        <ele>796.109130859375</ele>
        <time>2006-07-09T08:17:11Z</time>
      </trkpt>
      <trkpt lat="45.905063152313232" lon="9.182810783386231">
        <ele>799.4736328125</ele>
        <time>2006-07-09T08:17:23Z</time>
      </trkpt>
      <trkpt lat="45.904934406280518" lon="9.182724952697754">
        <ele>802.838134765625</ele>
        <time>2006-07-09T08:17:34Z</time>
      </trkpt>
      <trkpt lat="45.90487003326416" lon="9.182596206665039">
        <ele>804.2802734375</ele>
        <time>2006-07-09T08:17:41Z</time>
      </trkpt>
      <trkpt lat="45.904784202575684" lon="9.182424545288086">
        <ele>805.241455078125</ele>
        <time>2006-07-09T08:17:53Z</time>
      </trkpt>
      <trkpt lat="45.904719829559326" lon="9.182381629943848">
        <ele>806.683349609375</ele>
        <time>2006-07-09T08:17:58Z</time>
      </trkpt>
      <trkpt lat="45.904676914215088" lon="9.18231725692749">
        <ele>806.683349609375</ele>
        <time>2006-07-09T08:18:02Z</time>
      </trkpt>
      <trkpt lat="45.904483795166016" lon="9.182209968566895">
        <ele>808.60595703125</ele>
        <time>2006-07-09T08:18:14Z</time>
      </trkpt>
      <trkpt lat="45.904333591461182" lon="9.182145595550537">
        <ele>810.0478515625</ele>
        <time>2006-07-09T08:18:22Z</time>
      </trkpt>
      <trkpt lat="45.904226303100586" lon="9.182167053222656">
        <ele>812.451416015625</ele>
        <time>2006-07-09T08:18:32Z</time>
      </trkpt>
      <trkpt lat="45.904033184051514" lon="9.182124137878418">
        <ele>815.816162109375</ele>
        <time>2006-07-09T08:18:46Z</time>
      </trkpt>
      <trkpt lat="45.903797149658203" lon="9.182167053222656">
        <ele>818.21923828125</ele>
        <time>2006-07-09T08:19:00Z</time>
      </trkpt>
      <trkpt lat="45.903668403625488" lon="9.182274341583252">
        <ele>819.1806640625</ele>
        <time>2006-07-09T08:19:11Z</time>
      </trkpt>
      <trkpt lat="45.903561115264893" lon="9.182446002960205">
        <ele>819.661376953125</ele>
        <time>2006-07-09T08:19:22Z</time>
      </trkpt>
      <trkpt lat="45.903432369232178" lon="9.182660579681397">
        <ele>821.103271484375</ele>
        <time>2006-07-09T08:19:36Z</time>
      </trkpt>
      <trkpt lat="45.903282165527344" lon="9.182896614074707">
        <ele>823.02587890625</ele>
        <time>2006-07-09T08:19:49Z</time>
      </trkpt>
      <trkpt lat="45.903153419494629" lon="9.183089733123779">
        <ele>825.90966796875</ele>
        <time>2006-07-09T08:20:02Z</time>
      </trkpt>
      <trkpt lat="45.903003215789795" lon="9.18332576751709">
        <ele>828.313232421875</ele>
        <time>2006-07-09T08:20:17Z</time>
      </trkpt>
      <trkpt lat="45.902853012084961" lon="9.183669090270996">
        <ele>830.716552734375</ele>
        <time>2006-07-09T08:20:36Z</time>
      </trkpt>
      <trkpt lat="45.902745723724365" lon="9.183948040008545">
        <ele>830.716552734375</ele>
        <time>2006-07-09T08:20:52Z</time>
      </trkpt>
      <trkpt lat="45.90261697769165" lon="9.184269905090332">
        <ele>831.197265625</ele>
        <time>2006-07-09T08:21:09Z</time>
      </trkpt>
      <trkpt lat="45.902509689331055" lon="9.184527397155762">
        <ele>833.600341796875</ele>
        <time>2006-07-09T08:21:22Z</time>
      </trkpt>
      <trkpt lat="45.902488231658936" lon="9.184870719909668">
        <ele>835.52294921875</ele>
        <time>2006-07-09T08:21:38Z</time>
      </trkpt>
      <trkpt lat="45.90238094329834" lon="9.185214042663574">
        <ele>836.484375</ele>
        <time>2006-07-09T08:21:53Z</time>
      </trkpt>
      <trkpt lat="45.902230739593506" lon="9.185535907745361">
        <ele>837.92626953125</ele>
        <time>2006-07-09T08:22:07Z</time>
      </trkpt>
      <trkpt lat="45.902080535888672" lon="9.185922145843506">
        <ele>840.32958984375</ele>
        <time>2006-07-09T08:22:22Z</time>
      </trkpt>
      <trkpt lat="45.901973247528076" lon="9.186286926269531">
        <ele>842.73291015625</ele>
        <time>2006-07-09T08:22:36Z</time>
      </trkpt>
      <trkpt lat="45.9018874168396" lon="9.186544418334961">
        <ele>844.655517578125</ele>
        <time>2006-07-09T08:22:46Z</time>
      </trkpt>
      <trkpt lat="45.901715755462646" lon="9.186887741088867">
        <ele>847.53955078125</ele>
        <time>2006-07-09T08:22:59Z</time>
      </trkpt>
      <trkpt lat="45.901479721069336" lon="9.187338352203369">
        <ele>848.9814453125</ele>
        <time>2006-07-09T08:23:15Z</time>
      </trkpt>
      <trkpt lat="45.901200771331787" lon="9.18781042098999">
        <ele>852.345947265625</ele>
        <time>2006-07-09T08:23:33Z</time>
      </trkpt>
      <trkpt lat="45.901007652282715" lon="9.188175201416016">
        <ele>852.82666015625</ele>
        <time>2006-07-09T08:23:48Z</time>
      </trkpt>
      <trkpt lat="45.900793075561523" lon="9.188454151153565">
        <ele>853.307373046875</ele>
        <time>2006-07-09T08:24:03Z</time>
      </trkpt>
      <trkpt lat="45.900599956512451" lon="9.188647270202637">
        <ele>855.22998046875</ele>
        <time>2006-07-09T08:24:15Z</time>
      </trkpt>
      <trkpt lat="45.900428295135498" lon="9.188969135284424">
        <ele>857.152587890625</ele>
        <time>2006-07-09T08:24:30Z</time>
      </trkpt>
      <trkpt lat="45.900256633758545" lon="9.189376831054688">
        <ele>860.517333984375</ele>
        <time>2006-07-09T08:24:47Z</time>
      </trkpt>
      <trkpt lat="45.900192260742188" lon="9.18980598449707">
        <ele>863.8818359375</ele>
        <time>2006-07-09T08:25:04Z</time>
      </trkpt>
      <trkpt lat="45.900170803070068" lon="9.190106391906738">
        <ele>864.84326171875</ele>
        <time>2006-07-09T08:25:16Z</time>
      </trkpt>
      <trkpt lat="45.900149345397949" lon="9.190149307250977">
        <ele>864.84326171875</ele>
        <time>2006-07-09T08:25:18Z</time>
      </trkpt>
      <trkpt lat="45.900149345397949" lon="9.190578460693359">
        <ele>867.72705078125</ele>
        <time>2006-07-09T08:25:33Z</time>
      </trkpt>
      <trkpt lat="45.900170803070068" lon="9.191157817840576">
        <ele>872.052978515625</ele>
        <time>2006-07-09T08:25:51Z</time>
      </trkpt>
      <trkpt lat="45.90012788772583" lon="9.191629886627197">
        <ele>874.93701171875</ele>
        <time>2006-07-09T08:26:07Z</time>
      </trkpt>
      <trkpt lat="45.899956226348877" lon="9.191994667053223">
        <ele>877.821044921875</ele>
        <time>2006-07-09T08:26:22Z</time>
      </trkpt>
      <trkpt lat="45.899741649627686" lon="9.192209243774414">
        <ele>880.224365234375</ele>
        <time>2006-07-09T08:26:37Z</time>
      </trkpt>
      <trkpt lat="45.899612903594971" lon="9.19255256652832">
        <ele>882.14697265625</ele>
        <time>2006-07-09T08:26:51Z</time>
      </trkpt>
      <trkpt lat="45.899569988250732" lon="9.192917346954346">
        <ele>882.14697265625</ele>
        <time>2006-07-09T08:27:05Z</time>
      </trkpt>
      <trkpt lat="45.899484157562256" lon="9.193260669708252">
        <ele>883.5888671875</ele>
        <time>2006-07-09T08:27:19Z</time>
      </trkpt>
      <trkpt lat="45.899355411529541" lon="9.193582534790039">
        <ele>887.43408203125</ele>
        <time>2006-07-09T08:27:34Z</time>
      </trkpt>
      <trkpt lat="45.899291038513184" lon="9.193925857543945">
        <ele>891.760009765625</ele>
        <time>2006-07-09T08:27:49Z</time>
      </trkpt>
      <trkpt lat="45.899248123168945" lon="9.194355010986328">
        <ele>895.124755859375</ele>
        <time>2006-07-09T08:28:06Z</time>
      </trkpt>
      <trkpt lat="45.899183750152588" lon="9.194633960723877">
        <ele>897.528076171875</ele>
        <time>2006-07-09T08:28:19Z</time>
      </trkpt>
      <trkpt lat="45.899012088775635" lon="9.194998741149902">
        <ele>898.969970703125</ele>
        <time>2006-07-09T08:28:35Z</time>
      </trkpt>
      <trkpt lat="45.898926258087158" lon="9.195363521575928">
        <ele>900.412109375</ele>
        <time>2006-07-09T08:28:52Z</time>
      </trkpt>
      <trkpt lat="45.898861885070801" lon="9.195663928985596">
        <ele>901.85400390625</ele>
        <time>2006-07-09T08:29:05Z</time>
      </trkpt>
      <trkpt lat="45.898840427398682" lon="9.195899963378906">
        <ele>903.776611328125</ele>
        <time>2006-07-09T08:29:17Z</time>
      </trkpt>
      <trkpt lat="45.898776054382324" lon="9.196200370788574">
        <ele>905.218505859375</ele>
        <time>2006-07-09T08:29:31Z</time>
      </trkpt>
      <trkpt lat="45.898754596710205" lon="9.1965651512146">
        <ele>907.621826171875</ele>
        <time>2006-07-09T08:29:45Z</time>
      </trkpt>
      <trkpt lat="45.898711681365967" lon="9.197015762329102">
        <ele>910.986572265625</ele>
        <time>2006-07-09T08:30:02Z</time>
      </trkpt>
      <trkpt lat="45.89862585067749" lon="9.197402000427246">
        <ele>914.831787109375</ele>
        <time>2006-07-09T08:30:18Z</time>
      </trkpt>
      <trkpt lat="45.898582935333252" lon="9.197788238525391">
        <ele>916.75439453125</ele>
        <time>2006-07-09T08:30:34Z</time>
      </trkpt>
      <trkpt lat="45.898540019989014" lon="9.19806718826294">
        <ele>918.677001953125</ele>
        <time>2006-07-09T08:30:48Z</time>
      </trkpt>
      <trkpt lat="45.898518562316895" lon="9.19830322265625">
        <ele>920.118896484375</ele>
        <time>2006-07-09T08:31:01Z</time>
      </trkpt>
      <trkpt lat="45.898518562316895" lon="9.198474884033203">
        <ele>921.560791015625</ele>
        <time>2006-07-09T08:31:11Z</time>
      </trkpt>
      <trkpt lat="45.898497104644775" lon="9.198625087738037">
        <ele>922.522216796875</ele>
        <time>2006-07-09T08:31:18Z</time>
      </trkpt>
      <trkpt lat="45.898454189300537" lon="9.198989868164063">
        <ele>925.40625</ele>
        <time>2006-07-09T08:31:34Z</time>
      </trkpt>
      <trkpt lat="45.898432731628418" lon="9.199290275573731">
        <ele>927.3291015625</ele>
        <time>2006-07-09T08:31:48Z</time>
      </trkpt>
      <trkpt lat="45.898411273956299" lon="9.199590682983398">
        <ele>928.77099609375</ele>
        <time>2006-07-09T08:32:02Z</time>
      </trkpt>
      <trkpt lat="45.89838981628418" lon="9.199826717376709">
        <ele>929.25146484375</ele>
        <time>2006-07-09T08:32:14Z</time>
      </trkpt>
      <trkpt lat="45.898368358612061" lon="9.200234413146973">
        <ele>932.6162109375</ele>
        <time>2006-07-09T08:32:29Z</time>
      </trkpt>
      <trkpt lat="45.89838981628418" lon="9.200534820556641">
        <ele>934.538818359375</ele>
        <time>2006-07-09T08:32:41Z</time>
      </trkpt>
      <trkpt lat="45.898411273956299" lon="9.200921058654785">
        <ele>935.5</ele>
        <time>2006-07-09T08:32:57Z</time>
      </trkpt>
      <trkpt lat="45.898411273956299" lon="9.201221466064453">
        <ele>934.538818359375</ele>
        <time>2006-07-09T08:33:10Z</time>
      </trkpt>
      <trkpt lat="45.898432731628418" lon="9.201672077178955">
        <ele>935.5</ele>
        <time>2006-07-09T08:33:27Z</time>
      </trkpt>
      <trkpt lat="45.898454189300537" lon="9.202036857604981">
        <ele>937.422607421875</ele>
        <time>2006-07-09T08:33:42Z</time>
      </trkpt>
      <trkpt lat="45.898454189300537" lon="9.202315807342529">
        <ele>938.86474609375</ele>
        <time>2006-07-09T08:33:58Z</time>
      </trkpt>
      <trkpt lat="45.898454189300537" lon="9.202315807342529">
        <ele>944.152099609375</ele>
        <time>2006-07-09T08:34:24Z</time>
      </trkpt>
      <trkpt lat="45.898475646972656" lon="9.20229434967041">
        <ele>947.035888671875</ele>
        <time>2006-07-09T08:34:53Z</time>
      </trkpt>
      <trkpt lat="45.898475646972656" lon="9.20229434967041">
        <ele>948.477783203125</ele>
        <time>2006-07-09T08:35:04Z</time>
      </trkpt>
      <trkpt lat="45.898497104644775" lon="9.202315807342529">
        <ele>949.439208984375</ele>
        <time>2006-07-09T08:35:14Z</time>
      </trkpt>
      <trkpt lat="45.898475646972656" lon="9.202659130096436">
        <ele>948.95849609375</ele>
        <time>2006-07-09T08:35:27Z</time>
      </trkpt>
      <trkpt lat="45.89838981628418" lon="9.20304536819458">
        <ele>947.997314453125</ele>
        <time>2006-07-09T08:35:42Z</time>
      </trkpt>
      <trkpt lat="45.898325443267822" lon="9.203431606292725">
        <ele>946.555419921875</ele>
        <time>2006-07-09T08:35:59Z</time>
      </trkpt>
      <trkpt lat="45.898261070251465" lon="9.203946590423584">
        <ele>943.67138671875</ele>
        <time>2006-07-09T08:36:16Z</time>
      </trkpt>
      <trkpt lat="45.898089408874512" lon="9.203968048095703">
        <ele>944.152099609375</ele>
        <time>2006-07-09T08:36:26Z</time>
      </trkpt>
      <trkpt lat="45.897724628448486" lon="9.203882217407227">
        <ele>945.593994140625</ele>
        <time>2006-07-09T08:36:41Z</time>
      </trkpt>
      <trkpt lat="45.897252559661865" lon="9.204032421112061">
        <ele>948.477783203125</ele>
        <time>2006-07-09T08:36:59Z</time>
      </trkpt>
      <trkpt lat="45.896909236907959" lon="9.204354286193848">
        <ele>954.245849609375</ele>
        <time>2006-07-09T08:37:11Z</time>
      </trkpt>
      <trkpt lat="45.896673202514648" lon="9.204847812652588">
        <ele>959.052490234375</ele>
        <time>2006-07-09T08:37:26Z</time>
      </trkpt>
      <trkpt lat="45.896587371826172" lon="9.205341339111328">
        <ele>960.494384765625</ele>
        <time>2006-07-09T08:37:40Z</time>
      </trkpt>
      <trkpt lat="45.896544456481934" lon="9.205877780914307">
        <ele>963.85888671875</ele>
        <time>2006-07-09T08:37:58Z</time>
      </trkpt>
      <trkpt lat="45.896587371826172" lon="9.20628547668457">
        <ele>965.78173828125</ele>
        <time>2006-07-09T08:38:12Z</time>
      </trkpt>
      <trkpt lat="45.896694660186768" lon="9.206650257110596">
        <ele>967.7041015625</ele>
        <time>2006-07-09T08:38:28Z</time>
      </trkpt>
      <trkpt lat="45.896780490875244" lon="9.207015037536621">
        <ele>969.626953125</ele>
        <time>2006-07-09T08:38:44Z</time>
      </trkpt>
      <trkpt lat="45.896866321563721" lon="9.20729398727417">
        <ele>972.99169921875</ele>
        <time>2006-07-09T08:38:59Z</time>
      </trkpt>
      <trkpt lat="45.896973609924316" lon="9.2075514793396">
        <ele>975.394775390625</ele>
        <time>2006-07-09T08:39:12Z</time>
      </trkpt>
      <trkpt lat="45.897016525268555" lon="9.207723140716553">
        <ele>975.87548828125</ele>
        <time>2006-07-09T08:39:20Z</time>
      </trkpt>
      <trkpt lat="45.897037982940674" lon="9.208195209503174">
        <ele>975.87548828125</ele>
        <time>2006-07-09T08:39:34Z</time>
      </trkpt>
      <trkpt lat="45.896952152252197" lon="9.208881855010986">
        <ele>973.472412109375</ele>
        <time>2006-07-09T08:39:49Z</time>
      </trkpt>
      <trkpt lat="45.896844863891602" lon="9.209675788879395">
        <ele>970.588134765625</ele>
        <time>2006-07-09T08:40:03Z</time>
      </trkpt>
      <trkpt lat="45.896694660186768" lon="9.210684299468994">
        <ele>970.588134765625</ele>
        <time>2006-07-09T08:40:19Z</time>
      </trkpt>
      <trkpt lat="45.896544456481934" lon="9.211864471435547">
        <ele>971.54931640625</ele>
        <time>2006-07-09T08:40:37Z</time>
      </trkpt>
      <trkpt lat="45.896458625793457" lon="9.212379455566406">
        <ele>971.06884765625</ele>
        <time>2006-07-09T08:40:48Z</time>
      </trkpt>
      <trkpt lat="45.8963942527771" lon="9.212336540222168">
        <ele>972.0302734375</ele>
        <time>2006-07-09T08:40:57Z</time>
      </trkpt>
      <trkpt lat="45.89637279510498" lon="9.212422370910645">
        <ele>974.914306640625</ele>
        <time>2006-07-09T08:41:20Z</time>
      </trkpt>
      <trkpt lat="45.8963942527771" lon="9.212422370910645">
        <ele>978.27880859375</ele>
        <time>2006-07-09T08:41:41Z</time>
      </trkpt>
      <trkpt lat="45.896458625793457" lon="9.212315082550049">
        <ele>986.930419921875</ele>
        <time>2006-07-09T08:56:58Z</time>
      </trkpt>
      <trkpt lat="45.896480083465576" lon="9.212336540222168">
        <ele>984.52734375</ele>
        <time>2006-07-09T08:57:08Z</time>
      </trkpt>
      <trkpt lat="45.896458625793457" lon="9.212357997894287">
        <ele>979.720703125</ele>
        <time>2006-07-09T08:57:31Z</time>
      </trkpt>
      <trkpt lat="45.896437168121338" lon="9.212400913238525">
        <ele>976.8369140625</ele>
        <time>2006-07-09T08:58:38Z</time>
      </trkpt>
      <trkpt lat="45.896415710449219" lon="9.212701320648193">
        <ele>974.914306640625</ele>
        <time>2006-07-09T08:58:48Z</time>
      </trkpt>
      <trkpt lat="45.896244049072266" lon="9.213259220123291">
        <ele>972.99169921875</ele>
        <time>2006-07-09T08:59:04Z</time>
      </trkpt>
      <trkpt lat="45.89613676071167" lon="9.213902950286865">
        <ele>971.54931640625</ele>
        <time>2006-07-09T08:59:15Z</time>
      </trkpt>
      <trkpt lat="45.895986557006836" lon="9.214696884155273">
        <ele>972.510986328125</ele>
        <time>2006-07-09T08:59:29Z</time>
      </trkpt>
      <trkpt lat="45.895965099334717" lon="9.214739799499512">
        <ele>972.99169921875</ele>
        <time>2006-07-09T08:59:30Z</time>
      </trkpt>
      <trkpt lat="45.895514488220215" lon="9.215362071990967">
        <ele>971.06884765625</ele>
        <time>2006-07-09T08:59:46Z</time>
      </trkpt>
      <trkpt lat="45.8953857421875" lon="9.215490818023682">
        <ele>971.06884765625</ele>
        <time>2006-07-09T08:59:50Z</time>
      </trkpt>
      <trkpt lat="45.895299911499023" lon="9.215619564056397">
        <ele>971.06884765625</ele>
        <time>2006-07-09T08:59:53Z</time>
      </trkpt>
      <trkpt lat="45.895214080810547" lon="9.21579122543335">
        <ele>971.06884765625</ele>
        <time>2006-07-09T08:59:56Z</time>
      </trkpt>
      <trkpt lat="45.89512825012207" lon="9.216091632843018">
        <ele>971.06884765625</ele>
        <time>2006-07-09T09:00:01Z</time>
      </trkpt>
      <trkpt lat="45.895063877105713" lon="9.216477870941162">
        <ele>970.588134765625</ele>
        <time>2006-07-09T09:00:06Z</time>
      </trkpt>
      <trkpt lat="45.895020961761475" lon="9.216907024383545">
        <ele>969.626953125</ele>
        <time>2006-07-09T09:00:12Z</time>
      </trkpt>
      <trkpt lat="45.895042419433594" lon="9.216971397399902">
        <ele>969.146240234375</ele>
        <time>2006-07-09T09:00:13Z</time>
      </trkpt>
      <trkpt lat="45.895106792449951" lon="9.217121601104736">
        <ele>968.66552734375</ele>
        <time>2006-07-09T09:00:15Z</time>
      </trkpt>
      <trkpt lat="45.895085334777832" lon="9.217700958251953">
        <ele>966.742919921875</ele>
        <time>2006-07-09T09:00:23Z</time>
      </trkpt>
      <trkpt lat="45.894978046417236" lon="9.218044281005859">
        <ele>965.78173828125</ele>
        <time>2006-07-09T09:00:28Z</time>
      </trkpt>
      <trkpt lat="45.894613265991211" lon="9.218623638153076">
        <ele>963.85888671875</ele>
        <time>2006-07-09T09:00:39Z</time>
      </trkpt>
      <trkpt lat="45.894205570220947" lon="9.219439029693604">
        <ele>966.742919921875</ele>
        <time>2006-07-09T09:00:55Z</time>
      </trkpt>
      <trkpt lat="45.893926620483398" lon="9.220147132873535">
        <ele>968.66552734375</ele>
        <time>2006-07-09T09:01:10Z</time>
      </trkpt>
      <trkpt lat="45.893840789794922" lon="9.220726490020752">
        <ele>969.626953125</ele>
        <time>2006-07-09T09:01:23Z</time>
      </trkpt>
      <trkpt lat="45.893797874450684" lon="9.221391677856445">
        <ele>972.510986328125</ele>
        <time>2006-07-09T09:01:39Z</time>
      </trkpt>
      <trkpt lat="45.893733501434326" lon="9.221971035003662">
        <ele>975.394775390625</ele>
        <time>2006-07-09T09:01:54Z</time>
      </trkpt>
      <trkpt lat="45.89364767074585" lon="9.222571849822998">
        <ele>978.27880859375</ele>
        <time>2006-07-09T09:02:10Z</time>
      </trkpt>
      <trkpt lat="45.893583297729492" lon="9.223172664642334">
        <ele>980.201416015625</ele>
        <time>2006-07-09T09:02:24Z</time>
      </trkpt>
      <trkpt lat="45.893540382385254" lon="9.223580360412598">
        <ele>981.162841796875</ele>
        <time>2006-07-09T09:02:38Z</time>
      </trkpt>
      <trkpt lat="45.893540382385254" lon="9.223623275756836">
        <ele>981.643310546875</ele>
        <time>2006-07-09T09:03:10Z</time>
      </trkpt>
      <trkpt lat="45.893776416778564" lon="9.223859310150147">
        <ele>983.56591796875</ele>
        <time>2006-07-09T09:03:22Z</time>
      </trkpt>
      <trkpt lat="45.89414119720459" lon="9.224159717559815">
        <ele>986.449951171875</ele>
        <time>2006-07-09T09:03:38Z</time>
      </trkpt>
      <trkpt lat="45.894591808319092" lon="9.22452449798584">
        <ele>988.853515625</ele>
        <time>2006-07-09T09:03:55Z</time>
      </trkpt>
      <trkpt lat="45.89489221572876" lon="9.224910736083984">
        <ele>989.814697265625</ele>
        <time>2006-07-09T09:04:09Z</time>
      </trkpt>
      <trkpt lat="45.895235538482666" lon="9.225382804870606">
        <ele>993.17919921875</ele>
        <time>2006-07-09T09:04:25Z</time>
      </trkpt>
      <trkpt lat="45.895557403564453" lon="9.225811958312988">
        <ele>997.0244140625</ele>
        <time>2006-07-09T09:04:40Z</time>
      </trkpt>
      <trkpt lat="45.895857810974121" lon="9.226133823394775">
        <ele>998.947021484375</ele>
        <time>2006-07-09T09:04:52Z</time>
      </trkpt>
      <trkpt lat="45.896179676055908" lon="9.22652006149292">
        <ele>1000.86962890625</ele>
        <time>2006-07-09T09:05:08Z</time>
      </trkpt>
      <trkpt lat="45.896415710449219" lon="9.226863384246826">
        <ele>1001.8310546875</ele>
        <time>2006-07-09T09:05:21Z</time>
      </trkpt>
      <trkpt lat="45.896673202514648" lon="9.227292537689209">
        <ele>1001.350341796875</ele>
        <time>2006-07-09T09:05:36Z</time>
      </trkpt>
      <trkpt lat="45.896973609924316" lon="9.227614402770996">
        <ele>1004.715087890625</ele>
        <time>2006-07-09T09:05:51Z</time>
      </trkpt>
      <trkpt lat="45.897231101989746" lon="9.227936267852783">
        <ele>1006.6376953125</ele>
        <time>2006-07-09T09:06:05Z</time>
      </trkpt>
      <trkpt lat="45.897510051727295" lon="9.228193759918213">
        <ele>1008.560302734375</ele>
        <time>2006-07-09T09:06:19Z</time>
      </trkpt>
      <trkpt lat="45.897703170776367" lon="9.228322505950928">
        <ele>1009.041015625</ele>
        <time>2006-07-09T09:06:29Z</time>
      </trkpt>
      <trkpt lat="45.898003578186035" lon="9.228365421295166">
        <ele>1009.521728515625</ele>
        <time>2006-07-09T09:06:42Z</time>
      </trkpt>
      <trkpt lat="45.898282527923584" lon="9.228665828704834">
        <ele>1010.002197265625</ele>
        <time>2006-07-09T09:06:55Z</time>
      </trkpt>
      <trkpt lat="45.898475646972656" lon="9.228944778442383">
        <ele>1009.521728515625</ele>
        <time>2006-07-09T09:07:08Z</time>
      </trkpt>
      <trkpt lat="45.898647308349609" lon="9.22926664352417">
        <ele>1010.48291015625</ele>
        <time>2006-07-09T09:07:21Z</time>
      </trkpt>
      <trkpt lat="45.898776054382324" lon="9.229867458343506">
        <ele>1015.770263671875</ele>
        <time>2006-07-09T09:07:39Z</time>
      </trkpt>
      <trkpt lat="45.898969173431396" lon="9.230489730834961">
        <ele>1013.847412109375</ele>
        <time>2006-07-09T09:07:57Z</time>
      </trkpt>
      <trkpt lat="45.89911937713623" lon="9.230875968933106">
        <ele>1016.250732421875</ele>
        <time>2006-07-09T09:08:10Z</time>
      </trkpt>
      <trkpt lat="45.89937686920166" lon="9.231069087982178">
        <ele>1017.692626953125</ele>
        <time>2006-07-09T09:08:23Z</time>
      </trkpt>
      <trkpt lat="45.899698734283447" lon="9.231154918670654">
        <ele>1018.17333984375</ele>
        <time>2006-07-09T09:08:36Z</time>
      </trkpt>
      <trkpt lat="45.899934768676758" lon="9.231412410736084">
        <ele>1020.09619140625</ele>
        <time>2006-07-09T09:08:49Z</time>
      </trkpt>
      <trkpt lat="45.900170803070068" lon="9.231712818145752">
        <ele>1020.09619140625</ele>
        <time>2006-07-09T09:09:06Z</time>
      </trkpt>
      <trkpt lat="45.900321006774902" lon="9.231841564178467">
        <ele>1021.5380859375</ele>
        <time>2006-07-09T09:09:20Z</time>
      </trkpt>
      <trkpt lat="45.900449752807617" lon="9.231948852539063">
        <ele>1025.38330078125</ele>
        <time>2006-07-09T09:09:34Z</time>
      </trkpt>
      <trkpt lat="45.900557041168213" lon="9.232141971588135">
        <ele>1026.825439453125</ele>
        <time>2006-07-09T09:09:48Z</time>
      </trkpt>
      <trkpt lat="45.90062141418457" lon="9.232356548309326">
        <ele>1032.59326171875</ele>
        <time>2006-07-09T09:10:02Z</time>
      </trkpt>
      <trkpt lat="45.900707244873047" lon="9.232549667358398">
        <ele>1038.361328125</ele>
        <time>2006-07-09T09:10:19Z</time>
      </trkpt>
      <trkpt lat="45.900750160217285" lon="9.232635498046875">
        <ele>1040.283935546875</ele>
        <time>2006-07-09T09:10:26Z</time>
      </trkpt>
      <trkpt lat="45.900857448577881" lon="9.232871532440186">
        <ele>1041.725830078125</ele>
        <time>2006-07-09T09:10:43Z</time>
      </trkpt>
      <trkpt lat="45.900900363922119" lon="9.232957363128662">
        <ele>1042.20654296875</ele>
        <time>2006-07-09T09:10:49Z</time>
      </trkpt>
      <trkpt lat="45.900943279266357" lon="9.23302173614502">
        <ele>1042.20654296875</ele>
        <time>2006-07-09T09:10:53Z</time>
      </trkpt>
      <trkpt lat="45.901114940643311" lon="9.233236312866211">
        <ele>1043.6484375</ele>
        <time>2006-07-09T09:11:11Z</time>
      </trkpt>
      <trkpt lat="45.901222229003906" lon="9.233407974243164">
        <ele>1045.09033203125</ele>
        <time>2006-07-09T09:11:24Z</time>
      </trkpt>
      <trkpt lat="45.901350975036621" lon="9.233686923980713">
        <ele>1046.0517578125</ele>
        <time>2006-07-09T09:11:40Z</time>
      </trkpt>
      <trkpt lat="45.901458263397217" lon="9.233944416046143">
        <ele>1048.454833984375</ele>
        <time>2006-07-09T09:11:56Z</time>
      </trkpt>
      <trkpt lat="45.901522636413574" lon="9.234116077423096">
        <ele>1048.935546875</ele>
        <time>2006-07-09T09:12:06Z</time>
      </trkpt>
      <trkpt lat="45.901608467102051" lon="9.234416484832764">
        <ele>1048.935546875</ele>
        <time>2006-07-09T09:12:18Z</time>
      </trkpt>
      <trkpt lat="45.901651382446289" lon="9.234995841979981">
        <ele>1047.974365234375</ele>
        <time>2006-07-09T09:12:32Z</time>
      </trkpt>
      <trkpt lat="45.901672840118408" lon="9.235382080078125">
        <ele>1048.935546875</ele>
        <time>2006-07-09T09:12:43Z</time>
      </trkpt>
      <trkpt lat="45.901780128479004" lon="9.235639572143555">
        <ele>1051.3388671875</ele>
        <time>2006-07-09T09:12:53Z</time>
      </trkpt>
      <trkpt lat="45.901844501495361" lon="9.235553741455078">
        <ele>1051.3388671875</ele>
        <time>2006-07-09T09:13:00Z</time>
      </trkpt>
      <trkpt lat="45.901780128479004" lon="9.235296249389648">
        <ele>1057.587646484375</ele>
        <time>2006-07-09T09:13:16Z</time>
      </trkpt>
      <trkpt lat="45.901780128479004" lon="9.235296249389648">
        <ele>1058.068359375</ele>
        <time>2006-07-09T09:13:17Z</time>
      </trkpt>
      <trkpt lat="45.901801586151123" lon="9.235210418701172">
        <ele>1059.99072265625</ele>
        <time>2006-07-09T09:13:22Z</time>
      </trkpt>
      <trkpt lat="45.90186595916748" lon="9.235124588012695">
        <ele>1061.91357421875</ele>
        <time>2006-07-09T09:13:29Z</time>
      </trkpt>
      <trkpt lat="45.901908874511719" lon="9.2350172996521">
        <ele>1065.7587890625</ele>
        <time>2006-07-09T09:13:38Z</time>
      </trkpt>
      <trkpt lat="45.901930332183838" lon="9.2350172996521">
        <ele>1065.7587890625</ele>
        <time>2006-07-09T09:13:39Z</time>
      </trkpt>
      <trkpt lat="45.901973247528076" lon="9.234802722930908">
        <ele>1069.604248046875</ele>
        <time>2006-07-09T09:13:54Z</time>
      </trkpt>
      <trkpt lat="45.901951789855957" lon="9.234566688537598">
        <ele>1072.00732421875</ele>
        <time>2006-07-09T09:14:12Z</time>
      </trkpt>
      <trkpt lat="45.901951789855957" lon="9.234523773193359">
        <ele>1072.00732421875</ele>
        <time>2006-07-09T09:14:14Z</time>
      </trkpt>
      <trkpt lat="45.901908874511719" lon="9.234352111816406">
        <ele>1075.371826171875</ele>
        <time>2006-07-09T09:14:27Z</time>
      </trkpt>
      <trkpt lat="45.901908874511719" lon="9.23426628112793">
        <ele>1076.333251953125</ele>
        <time>2006-07-09T09:14:32Z</time>
      </trkpt>
      <trkpt lat="45.90186595916748" lon="9.234051704406738">
        <ele>1079.69775390625</ele>
        <time>2006-07-09T09:14:48Z</time>
      </trkpt>
      <trkpt lat="45.90186595916748" lon="9.23377275466919">
        <ele>1083.062255859375</ele>
        <time>2006-07-09T09:15:06Z</time>
      </trkpt>
      <trkpt lat="45.90186595916748" lon="9.23375129699707">
        <ele>1083.062255859375</ele>
        <time>2006-07-09T09:15:08Z</time>
      </trkpt>
      <trkpt lat="45.9018874168396" lon="9.233729839324951">
        <ele>1083.062255859375</ele>
        <time>2006-07-09T09:15:10Z</time>
      </trkpt>
      <trkpt lat="45.902037620544434" lon="9.233686923980713">
        <ele>1084.9853515625</ele>
        <time>2006-07-09T09:15:24Z</time>
      </trkpt>
      <trkpt lat="45.902101993560791" lon="9.233729839324951">
        <ele>1086.90771484375</ele>
        <time>2006-07-09T09:15:32Z</time>
      </trkpt>
      <trkpt lat="45.902209281921387" lon="9.233815670013428">
        <ele>1089.31103515625</ele>
        <time>2006-07-09T09:15:43Z</time>
      </trkpt>
      <trkpt lat="45.902273654937744" lon="9.233922958374023">
        <ele>1090.7529296875</ele>
        <time>2006-07-09T09:15:52Z</time>
      </trkpt>
      <trkpt lat="45.90238094329834" lon="9.234073162078857">
        <ele>1093.636962890625</ele>
        <time>2006-07-09T09:16:07Z</time>
      </trkpt>
      <trkpt lat="45.902466773986816" lon="9.234180450439453">
        <ele>1095.5595703125</ele>
        <time>2006-07-09T09:16:19Z</time>
      </trkpt>
      <trkpt lat="45.90261697769165" lon="9.234309196472168">
        <ele>1098.443359375</ele>
        <time>2006-07-09T09:16:34Z</time>
      </trkpt>
      <trkpt lat="45.902745723724365" lon="9.234395027160645">
        <ele>1101.32763671875</ele>
        <time>2006-07-09T09:16:49Z</time>
      </trkpt>
      <trkpt lat="45.902810096740723" lon="9.234395027160645">
        <ele>1103.73095703125</ele>
        <time>2006-07-09T09:17:04Z</time>
      </trkpt>
      <trkpt lat="45.902938842773438" lon="9.234416484832764">
        <ele>1104.211669921875</ele>
        <time>2006-07-09T09:17:20Z</time>
      </trkpt>
      <trkpt lat="45.903110504150391" lon="9.234416484832764">
        <ele>1102.76953125</ele>
        <time>2006-07-09T09:17:30Z</time>
      </trkpt>
      <trkpt lat="45.903174877166748" lon="9.234352111816406">
        <ele>1102.288818359375</ele>
        <time>2006-07-09T09:17:36Z</time>
      </trkpt>
      <trkpt lat="45.903453826904297" lon="9.234330654144287">
        <ele>1102.76953125</ele>
        <time>2006-07-09T09:17:51Z</time>
      </trkpt>
      <trkpt lat="45.90362548828125" lon="9.234244823455811">
        <ele>1103.73095703125</ele>
        <time>2006-07-09T09:18:03Z</time>
      </trkpt>
      <trkpt lat="45.903775691986084" lon="9.234330654144287">
        <ele>1106.134033203125</ele>
        <time>2006-07-09T09:18:15Z</time>
      </trkpt>
      <trkpt lat="45.903818607330322" lon="9.234588146209717">
        <ele>1109.498779296875</ele>
        <time>2006-07-09T09:18:31Z</time>
      </trkpt>
      <trkpt lat="45.903775691986084" lon="9.234738349914551">
        <ele>1110.940673828125</ele>
        <time>2006-07-09T09:18:41Z</time>
      </trkpt>
      <trkpt lat="45.903840065002441" lon="9.234738349914551">
        <ele>1113.343994140625</ele>
        <time>2006-07-09T09:18:46Z</time>
      </trkpt>
      <trkpt lat="45.903904438018799" lon="9.234695434570313">
        <ele>1114.30517578125</ele>
        <time>2006-07-09T09:18:53Z</time>
      </trkpt>
      <trkpt lat="45.903947353363037" lon="9.234631061553955">
        <ele>1114.785888671875</ele>
        <time>2006-07-09T09:18:58Z</time>
      </trkpt>
      <trkpt lat="45.903990268707275" lon="9.234609603881836">
        <ele>1115.2666015625</ele>
        <time>2006-07-09T09:19:02Z</time>
      </trkpt>
      <trkpt lat="45.904140472412109" lon="9.234566688537598">
        <ele>1117.189453125</ele>
        <time>2006-07-09T09:19:15Z</time>
      </trkpt>
      <trkpt lat="45.904161930084229" lon="9.234652519226074">
        <ele>1117.669921875</ele>
        <time>2006-07-09T09:19:21Z</time>
      </trkpt>
      <trkpt lat="45.904097557067871" lon="9.234845638275147">
        <ele>1117.669921875</ele>
        <time>2006-07-09T09:19:35Z</time>
      </trkpt>
      <trkpt lat="45.904033184051514" lon="9.235060214996338">
        <ele>1119.112060546875</ele>
        <time>2006-07-09T09:19:49Z</time>
      </trkpt>
      <trkpt lat="45.904011726379395" lon="9.235317707061768">
        <ele>1122.4765625</ele>
        <time>2006-07-09T09:20:06Z</time>
      </trkpt>
      <trkpt lat="45.904011726379395" lon="9.23551082611084">
        <ele>1124.399169921875</ele>
        <time>2006-07-09T09:20:19Z</time>
      </trkpt>
      <trkpt lat="45.904097557067871" lon="9.23574686050415">
        <ele>1126.802490234375</ele>
        <time>2006-07-09T09:20:36Z</time>
      </trkpt>
      <trkpt lat="45.904183387756348" lon="9.235939979553223">
        <ele>1129.686279296875</ele>
        <time>2006-07-09T09:20:51Z</time>
      </trkpt>
      <trkpt lat="45.904290676116943" lon="9.236111640930176">
        <ele>1128.72509765625</ele>
        <time>2006-07-09T09:21:01Z</time>
      </trkpt>
      <trkpt lat="45.904333591461182" lon="9.236154556274414">
        <ele>1128.244384765625</ele>
        <time>2006-07-09T09:21:05Z</time>
      </trkpt>
      <trkpt lat="45.90461254119873" lon="9.236176013946533">
        <ele>1132.08984375</ele>
        <time>2006-07-09T09:21:19Z</time>
      </trkpt>
      <trkpt lat="45.904912948608398" lon="9.236154556274414">
        <ele>1134.4931640625</ele>
        <time>2006-07-09T09:21:35Z</time>
      </trkpt>
      <trkpt lat="45.905191898345947" lon="9.236068725585938">
        <ele>1135.454345703125</ele>
        <time>2006-07-09T09:21:49Z</time>
      </trkpt>
      <trkpt lat="45.905406475067139" lon="9.235961437225342">
        <ele>1136.896240234375</ele>
        <time>2006-07-09T09:22:02Z</time>
      </trkpt>
      <trkpt lat="45.90562105178833" lon="9.236047267913818">
        <ele>1140.741455078125</ele>
        <time>2006-07-09T09:22:15Z</time>
      </trkpt>
      <trkpt lat="45.905663967132568" lon="9.236068725585938">
        <ele>1141.702880859375</ele>
        <time>2006-07-09T09:22:18Z</time>
      </trkpt>
      <trkpt lat="45.905685424804688" lon="9.236218929290772">
        <ele>1141.22216796875</ele>
        <time>2006-07-09T09:22:23Z</time>
      </trkpt>
      <trkpt lat="45.905814170837402" lon="9.236798286437988">
        <ele>1141.22216796875</ele>
        <time>2006-07-09T09:22:40Z</time>
      </trkpt>
      <trkpt lat="45.905964374542236" lon="9.237227439880371">
        <ele>1141.22216796875</ele>
        <time>2006-07-09T09:22:54Z</time>
      </trkpt>
      <trkpt lat="45.906028747558594" lon="9.237527847290039">
        <ele>1141.702880859375</ele>
        <time>2006-07-09T09:23:08Z</time>
      </trkpt>
      <trkpt lat="45.906071662902832" lon="9.237849712371826">
        <ele>1145.548095703125</ele>
        <time>2006-07-09T09:23:24Z</time>
      </trkpt>
      <trkpt lat="45.906050205230713" lon="9.238085746765137">
        <ele>1147.951416015625</ele>
        <time>2006-07-09T09:23:37Z</time>
      </trkpt>
      <trkpt lat="45.906071662902832" lon="9.238407611846924">
        <ele>1149.874267578125</ele>
        <time>2006-07-09T09:23:54Z</time>
      </trkpt>
      <trkpt lat="45.906093120574951" lon="9.238557815551758">
        <ele>1150.35498046875</ele>
        <time>2006-07-09T09:24:06Z</time>
      </trkpt>
      <trkpt lat="45.906071662902832" lon="9.238579273223877">
        <ele>1150.35498046875</ele>
        <time>2006-07-09T09:24:22Z</time>
      </trkpt>
      <trkpt lat="45.90611457824707" lon="9.238557815551758">
        <ele>1152.758056640625</ele>
        <time>2006-07-09T09:25:21Z</time>
      </trkpt>
      <trkpt lat="45.906093120574951" lon="9.238557815551758">
        <ele>1151.316162109375</ele>
        <time>2006-07-09T09:27:10Z</time>
      </trkpt>
      <trkpt lat="45.906093120574951" lon="9.238579273223877">
        <ele>1154.6806640625</ele>
        <time>2006-07-09T09:29:14Z</time>
      </trkpt>
      <trkpt lat="45.90611457824707" lon="9.238665103912354">
        <ele>1153.719482421875</ele>
        <time>2006-07-09T09:29:18Z</time>
      </trkpt>
      <trkpt lat="45.906136035919189" lon="9.238986968994141">
        <ele>1151.316162109375</ele>
        <time>2006-07-09T09:29:26Z</time>
      </trkpt>
      <trkpt lat="45.906200408935547" lon="9.239180088043213">
        <ele>1149.3935546875</ele>
        <time>2006-07-09T09:29:30Z</time>
      </trkpt>
      <trkpt lat="45.906522274017334" lon="9.239373207092285">
        <ele>1146.989990234375</ele>
        <time>2006-07-09T09:29:37Z</time>
      </trkpt>
      <trkpt lat="45.906672477722168" lon="9.239416122436523">
        <ele>1147.951416015625</ele>
        <time>2006-07-09T09:29:40Z</time>
      </trkpt>
      <trkpt lat="45.906801223754883" lon="9.239501953125">
        <ele>1147.470703125</ele>
        <time>2006-07-09T09:29:46Z</time>
      </trkpt>
      <trkpt lat="45.906736850738525" lon="9.239630699157715">
        <ele>1147.951416015625</ele>
        <time>2006-07-09T09:29:54Z</time>
      </trkpt>
      <trkpt lat="45.906736850738525" lon="9.239630699157715">
        <ele>1146.02880859375</ele>
        <time>2006-07-09T09:30:00Z</time>
      </trkpt>
      <trkpt lat="45.906586647033691" lon="9.239823818206787">
        <ele>1146.02880859375</ele>
        <time>2006-07-09T09:30:12Z</time>
      </trkpt>
      <trkpt lat="45.906414985656738" lon="9.239974021911621">
        <ele>1148.43212890625</ele>
        <time>2006-07-09T09:30:28Z</time>
      </trkpt>
      <trkpt lat="45.906350612640381" lon="9.240167140960693">
        <ele>1149.3935546875</ele>
        <time>2006-07-09T09:30:40Z</time>
      </trkpt>
      <trkpt lat="45.906479358673096" lon="9.240360260009766">
        <ele>1151.796875</ele>
        <time>2006-07-09T09:30:53Z</time>
      </trkpt>
      <trkpt lat="45.906586647033691" lon="9.2405104637146">
        <ele>1155.161376953125</ele>
        <time>2006-07-09T09:31:05Z</time>
      </trkpt>
      <trkpt lat="45.906758308410645" lon="9.240531921386719">
        <ele>1159.006591796875</ele>
        <time>2006-07-09T09:31:19Z</time>
      </trkpt>
      <trkpt lat="45.906779766082764" lon="9.240531921386719">
        <ele>1159.006591796875</ele>
        <time>2006-07-09T09:31:21Z</time>
      </trkpt>
      <trkpt lat="45.906951427459717" lon="9.240531921386719">
        <ele>1161.409912109375</ele>
        <time>2006-07-09T09:31:35Z</time>
      </trkpt>
      <trkpt lat="45.907037258148193" lon="9.240810871124268">
        <ele>1160.448486328125</ele>
        <time>2006-07-09T09:31:49Z</time>
      </trkpt>
      <trkpt lat="45.907037258148193" lon="9.241089820861816">
        <ele>1159.006591796875</ele>
        <time>2006-07-09T09:32:02Z</time>
      </trkpt>
      <trkpt lat="45.907080173492432" lon="9.241368770599365">
        <ele>1159.9677734375</ele>
        <time>2006-07-09T09:32:16Z</time>
      </trkpt>
      <trkpt lat="45.907037258148193" lon="9.241669178009033">
        <ele>1160.448486328125</ele>
        <time>2006-07-09T09:32:29Z</time>
      </trkpt>
      <trkpt lat="45.907015800476074" lon="9.241905212402344">
        <ele>1160.92919921875</ele>
        <time>2006-07-09T09:32:40Z</time>
      </trkpt>
      <trkpt lat="45.906951427459717" lon="9.242162704467773">
        <ele>1161.409912109375</ele>
        <time>2006-07-09T09:32:52Z</time>
      </trkpt>
      <trkpt lat="45.906887054443359" lon="9.242291450500488">
        <ele>1162.37109375</ele>
        <time>2006-07-09T09:33:02Z</time>
      </trkpt>
      <trkpt lat="45.906822681427002" lon="9.24250602722168">
        <ele>1163.33251953125</ele>
        <time>2006-07-09T09:33:14Z</time>
      </trkpt>
      <trkpt lat="45.906822681427002" lon="9.242699146270752">
        <ele>1164.774658203125</ele>
        <time>2006-07-09T09:33:25Z</time>
      </trkpt>
      <trkpt lat="45.90686559677124" lon="9.243042469024658">
        <ele>1163.81298828125</ele>
        <time>2006-07-09T09:33:39Z</time>
      </trkpt>
      <trkpt lat="45.906908512115479" lon="9.24325704574585">
        <ele>1162.37109375</ele>
        <time>2006-07-09T09:33:52Z</time>
      </trkpt>
      <trkpt lat="45.906887054443359" lon="9.243299961090088">
        <ele>1161.409912109375</ele>
        <time>2006-07-09T09:34:05Z</time>
      </trkpt>
      <trkpt lat="45.906758308410645" lon="9.24325704574585">
        <ele>1167.177978515625</ele>
        <time>2006-07-09T09:34:21Z</time>
      </trkpt>
      <trkpt lat="45.906693935394287" lon="9.243235588073731">
        <ele>1169.1005859375</ele>
        <time>2006-07-09T09:34:25Z</time>
      </trkpt>
      <trkpt lat="45.906543731689453" lon="9.243278503417969">
        <ele>1169.581298828125</ele>
        <time>2006-07-09T09:34:43Z</time>
      </trkpt>
      <trkpt lat="45.906479358673096" lon="9.243278503417969">
        <ele>1170.061767578125</ele>
        <time>2006-07-09T09:34:56Z</time>
      </trkpt>
      <trkpt lat="45.906350612640381" lon="9.243321418762207">
        <ele>1167.177978515625</ele>
        <time>2006-07-09T09:35:16Z</time>
      </trkpt>
      <trkpt lat="45.906243324279785" lon="9.243428707122803">
        <ele>1165.736083984375</ele>
        <time>2006-07-09T09:35:35Z</time>
      </trkpt>
      <trkpt lat="45.906178951263428" lon="9.243557453155518">
        <ele>1172.465087890625</ele>
        <time>2006-07-09T09:36:00Z</time>
      </trkpt>
      <trkpt lat="45.906028747558594" lon="9.243814945220947">
        <ele>1172.465087890625</ele>
        <time>2006-07-09T09:36:27Z</time>
      </trkpt>
      <trkpt lat="45.905985832214355" lon="9.243922233581543">
        <ele>1173.906982421875</ele>
        <time>2006-07-09T09:36:36Z</time>
      </trkpt>
      <trkpt lat="45.905942916870117" lon="9.244029521942139">
        <ele>1171.503662109375</ele>
        <time>2006-07-09T09:36:53Z</time>
      </trkpt>
      <trkpt lat="45.905921459197998" lon="9.244115352630615">
        <ele>1173.426513671875</ele>
        <time>2006-07-09T09:37:00Z</time>
      </trkpt>
      <trkpt lat="45.90587854385376" lon="9.244287014007568">
        <ele>1173.906982421875</ele>
        <time>2006-07-09T09:37:18Z</time>
      </trkpt>
      <trkpt lat="45.905835628509521" lon="9.244308471679688">
        <ele>1174.868408203125</ele>
        <time>2006-07-09T09:37:25Z</time>
      </trkpt>
      <trkpt lat="45.905835628509521" lon="9.244308471679688">
        <ele>1174.868408203125</ele>
        <time>2006-07-09T09:37:26Z</time>
      </trkpt>
      <trkpt lat="45.905749797821045" lon="9.24424409866333">
        <ele>1179.194091796875</ele>
        <time>2006-07-09T09:37:33Z</time>
      </trkpt>
      <trkpt lat="45.905706882476807" lon="9.244179725646973">
        <ele>1183.520263671875</ele>
        <time>2006-07-09T09:37:47Z</time>
      </trkpt>
      <trkpt lat="45.905685424804688" lon="9.244136810302734">
        <ele>1185.44287109375</ele>
        <time>2006-07-09T09:37:59Z</time>
      </trkpt>
      <trkpt lat="45.905556678771973" lon="9.2439866065979">
        <ele>1184.0009765625</ele>
        <time>2006-07-09T09:38:13Z</time>
      </trkpt>
      <trkpt lat="45.905492305755615" lon="9.243965148925781">
        <ele>1184.96240234375</ele>
        <time>2006-07-09T09:38:25Z</time>
      </trkpt>
      <trkpt lat="45.905492305755615" lon="9.2439866065979">
        <ele>1184.96240234375</ele>
        <time>2006-07-09T09:38:28Z</time>
      </trkpt>
      <trkpt lat="45.905320644378662" lon="9.243965148925781">
        <ele>1187.365478515625</ele>
        <time>2006-07-09T09:38:46Z</time>
      </trkpt>
      <trkpt lat="45.905148983001709" lon="9.243879318237305">
        <ele>1188.326904296875</ele>
        <time>2006-07-09T09:38:58Z</time>
      </trkpt>
      <trkpt lat="45.904934406280518" lon="9.243857860565186">
        <ele>1188.326904296875</ele>
        <time>2006-07-09T09:39:12Z</time>
      </trkpt>
      <trkpt lat="45.904698371887207" lon="9.243729114532471">
        <ele>1190.24951171875</ele>
        <time>2006-07-09T09:39:26Z</time>
      </trkpt>
      <trkpt lat="45.904483795166016" lon="9.243621826171875">
        <ele>1188.8076171875</ele>
        <time>2006-07-09T09:39:38Z</time>
      </trkpt>
      <trkpt lat="45.904183387756348" lon="9.243407249450684">
        <ele>1191.69140625</ele>
        <time>2006-07-09T09:39:53Z</time>
      </trkpt>
      <trkpt lat="45.903904438018799" lon="9.243299961090088">
        <ele>1192.172119140625</ele>
        <time>2006-07-09T09:40:05Z</time>
      </trkpt>
      <trkpt lat="45.903646945953369" lon="9.243299961090088">
        <ele>1195.53662109375</ele>
        <time>2006-07-09T09:40:18Z</time>
      </trkpt>
      <trkpt lat="45.903496742248535" lon="9.24349308013916">
        <ele>1193.614013671875</ele>
        <time>2006-07-09T09:40:32Z</time>
      </trkpt>
      <trkpt lat="45.90336799621582" lon="9.243793487548828">
        <ele>1193.614013671875</ele>
        <time>2006-07-09T09:40:47Z</time>
      </trkpt>
      <trkpt lat="45.903239250183105" lon="9.24400806427002">
        <ele>1195.055908203125</ele>
        <time>2006-07-09T09:40:59Z</time>
      </trkpt>
      <trkpt lat="45.903153419494629" lon="9.244351387023926">
        <ele>1196.498291015625</ele>
        <time>2006-07-09T09:41:14Z</time>
      </trkpt>
      <trkpt lat="45.903110504150391" lon="9.244480133056641">
        <ele>1196.978759765625</ele>
        <time>2006-07-09T09:41:19Z</time>
      </trkpt>
      <trkpt lat="45.903067588806152" lon="9.244823455810547">
        <ele>1197.940185546875</ele>
        <time>2006-07-09T09:41:32Z</time>
      </trkpt>
      <trkpt lat="45.903024673461914" lon="9.245059490203857">
        <ele>1196.498291015625</ele>
        <time>2006-07-09T09:41:40Z</time>
      </trkpt>
      <trkpt lat="45.902895927429199" lon="9.245445728302002">
        <ele>1197.940185546875</ele>
        <time>2006-07-09T09:41:53Z</time>
      </trkpt>
      <trkpt lat="45.902767181396484" lon="9.245681762695313">
        <ele>1198.9013671875</ele>
        <time>2006-07-09T09:42:05Z</time>
      </trkpt>
      <trkpt lat="45.90263843536377" lon="9.246089458465576">
        <ele>1199.86279296875</ele>
        <time>2006-07-09T09:42:26Z</time>
      </trkpt>
      <trkpt lat="45.902509689331055" lon="9.246346950531006">
        <ele>1200.823974609375</ele>
        <time>2006-07-09T09:42:43Z</time>
      </trkpt>
      <trkpt lat="45.90238094329834" lon="9.246540069580078">
        <ele>1199.86279296875</ele>
        <time>2006-07-09T09:42:58Z</time>
      </trkpt>
      <trkpt lat="45.902230739593506" lon="9.246711730957031">
        <ele>1203.227294921875</ele>
        <time>2006-07-09T09:43:12Z</time>
      </trkpt>
      <trkpt lat="45.902016162872314" lon="9.246883392333984">
        <ele>1208.033935546875</ele>
        <time>2006-07-09T09:43:25Z</time>
      </trkpt>
      <trkpt lat="45.901758670806885" lon="9.247012138366699">
        <ele>1211.3984375</ele>
        <time>2006-07-09T09:43:40Z</time>
      </trkpt>
      <trkpt lat="45.901565551757813" lon="9.246883392333984">
        <ele>1212.840576171875</ele>
        <time>2006-07-09T09:43:53Z</time>
      </trkpt>
      <trkpt lat="45.901329517364502" lon="9.246668815612793">
        <ele>1214.282470703125</ele>
        <time>2006-07-09T09:44:09Z</time>
      </trkpt>
      <trkpt lat="45.901072025299072" lon="9.246518611907959">
        <ele>1217.16650390625</ele>
        <time>2006-07-09T09:44:25Z</time>
      </trkpt>
      <trkpt lat="45.900921821594238" lon="9.246411323547363">
        <ele>1218.127685546875</ele>
        <time>2006-07-09T09:44:37Z</time>
      </trkpt>
      <trkpt lat="45.900771617889404" lon="9.246153831481934">
        <ele>1222.45361328125</ele>
        <time>2006-07-09T09:44:52Z</time>
      </trkpt>
      <trkpt lat="45.90062141418457" lon="9.245917797088623">
        <ele>1226.298828125</ele>
        <time>2006-07-09T09:45:05Z</time>
      </trkpt>
      <trkpt lat="45.900449752807617" lon="9.245660305023193">
        <ele>1227.74072265625</ele>
        <time>2006-07-09T09:45:21Z</time>
      </trkpt>
      <trkpt lat="45.900278091430664" lon="9.245467185974121">
        <ele>1229.66357421875</ele>
        <time>2006-07-09T09:45:35Z</time>
      </trkpt>
      <trkpt lat="45.900084972381592" lon="9.245402812957764">
        <ele>1230.144287109375</ele>
        <time>2006-07-09T09:45:50Z</time>
      </trkpt>
      <trkpt lat="45.899848937988281" lon="9.245316982269287">
        <ele>1234.950927734375</ele>
        <time>2006-07-09T09:46:08Z</time>
      </trkpt>
      <trkpt lat="45.899569988250732" lon="9.24525260925293">
        <ele>1239.276611328125</ele>
        <time>2006-07-09T09:46:30Z</time>
      </trkpt>
      <trkpt lat="45.899355411529541" lon="9.245145320892334">
        <ele>1243.6025390625</ele>
        <time>2006-07-09T09:46:45Z</time>
      </trkpt>
      <trkpt lat="45.899226665496826" lon="9.245016574859619">
        <ele>1242.16064453125</ele>
        <time>2006-07-09T09:46:58Z</time>
      </trkpt>
      <trkpt lat="45.89911937713623" lon="9.2449951171875">
        <ele>1240.718505859375</ele>
        <time>2006-07-09T09:47:10Z</time>
      </trkpt>
      <trkpt lat="45.89911937713623" lon="9.245038032531738">
        <ele>1236.873291015625</ele>
        <time>2006-07-09T09:48:04Z</time>
      </trkpt>
      <trkpt lat="45.89911937713623" lon="9.245102405548096">
        <ele>1236.873291015625</ele>
        <time>2006-07-09T09:48:16Z</time>
      </trkpt>
      <trkpt lat="45.89911937713623" lon="9.245123863220215">
        <ele>1239.75732421875</ele>
        <time>2006-07-09T09:52:08Z</time>
      </trkpt>
      <trkpt lat="45.89911937713623" lon="9.245145320892334">
        <ele>1242.641357421875</ele>
        <time>2006-07-09T09:52:28Z</time>
      </trkpt>
      <trkpt lat="45.899226665496826" lon="9.245402812957764">
        <ele>1242.641357421875</ele>
        <time>2006-07-09T09:52:42Z</time>
      </trkpt>
      <trkpt lat="45.899398326873779" lon="9.245681762695313">
        <ele>1246.96728515625</ele>
        <time>2006-07-09T09:52:58Z</time>
      </trkpt>
      <trkpt lat="45.899677276611328" lon="9.245831966400147">
        <ele>1250.33203125</ele>
        <time>2006-07-09T09:53:16Z</time>
      </trkpt>
      <trkpt lat="45.899934768676758" lon="9.246046543121338">
        <ele>1247.447998046875</ele>
        <time>2006-07-09T09:53:30Z</time>
      </trkpt>
      <trkpt lat="45.900149345397949" lon="9.246432781219482">
        <ele>1245.044677734375</ele>
        <time>2006-07-09T09:53:47Z</time>
      </trkpt>
      <trkpt lat="45.900342464447021" lon="9.246668815612793">
        <ele>1245.525390625</ele>
        <time>2006-07-09T09:54:02Z</time>
      </trkpt>
      <trkpt lat="45.900557041168213" lon="9.247033596038818">
        <ele>1246.96728515625</ele>
        <time>2006-07-09T09:54:21Z</time>
      </trkpt>
      <trkpt lat="45.900728702545166" lon="9.247355461120606">
        <ele>1250.8125</ele>
        <time>2006-07-09T09:54:36Z</time>
      </trkpt>
      <trkpt lat="45.900814533233643" lon="9.247720241546631">
        <ele>1251.293212890625</ele>
        <time>2006-07-09T09:54:49Z</time>
      </trkpt>
      <trkpt lat="45.900964736938477" lon="9.248020648956299">
        <ele>1251.293212890625</ele>
        <time>2006-07-09T09:55:02Z</time>
      </trkpt>
      <trkpt lat="45.90113639831543" lon="9.248321056365967">
        <ele>1251.77392578125</ele>
        <time>2006-07-09T09:55:17Z</time>
      </trkpt>
      <trkpt lat="45.901286602020264" lon="9.24849271774292">
        <ele>1253.2158203125</ele>
        <time>2006-07-09T09:55:28Z</time>
      </trkpt>
      <trkpt lat="45.901587009429932" lon="9.248600006103516">
        <ele>1253.696533203125</ele>
        <time>2006-07-09T09:55:42Z</time>
      </trkpt>
      <trkpt lat="45.901930332183838" lon="9.248471260070801">
        <ele>1256.580322265625</ele>
        <time>2006-07-09T09:55:53Z</time>
      </trkpt>
      <trkpt lat="45.902273654937744" lon="9.248278141021729">
        <ele>1258.5029296875</ele>
        <time>2006-07-09T09:56:06Z</time>
      </trkpt>
      <trkpt lat="45.902681350708008" lon="9.248106479644775">
        <ele>1261.867919921875</ele>
        <time>2006-07-09T09:56:20Z</time>
      </trkpt>
      <trkpt lat="45.903046131134033" lon="9.24799919128418">
        <ele>1262.348388671875</ele>
        <time>2006-07-09T09:56:33Z</time>
      </trkpt>
      <trkpt lat="45.90336799621582" lon="9.247634410858154">
        <ele>1260.42578125</ele>
        <time>2006-07-09T09:56:46Z</time>
      </trkpt>
      <trkpt lat="45.903711318969727" lon="9.247119426727295">
        <ele>1262.348388671875</ele>
        <time>2006-07-09T09:57:02Z</time>
      </trkpt>
      <trkpt lat="45.903990268707275" lon="9.246883392333984">
        <ele>1263.309814453125</ele>
        <time>2006-07-09T09:57:13Z</time>
      </trkpt>
      <trkpt lat="45.904397964477539" lon="9.246797561645508">
        <ele>1262.8291015625</ele>
        <time>2006-07-09T09:57:25Z</time>
      </trkpt>
      <trkpt lat="45.904698371887207" lon="9.246582984924316">
        <ele>1262.8291015625</ele>
        <time>2006-07-09T09:57:36Z</time>
      </trkpt>
      <trkpt lat="45.904955863952637" lon="9.246518611907959">
        <ele>1262.348388671875</ele>
        <time>2006-07-09T09:57:44Z</time>
      </trkpt>
      <trkpt lat="45.905406475067139" lon="9.246840476989746">
        <ele>1261.38720703125</ele>
        <time>2006-07-09T09:57:55Z</time>
      </trkpt>
      <trkpt lat="45.905642509460449" lon="9.247097969055176">
        <ele>1260.42578125</ele>
        <time>2006-07-09T09:58:01Z</time>
      </trkpt>
      <trkpt lat="45.905728340148926" lon="9.247183799743652">
        <ele>1260.42578125</ele>
        <time>2006-07-09T09:58:03Z</time>
      </trkpt>
      <trkpt lat="45.906007289886475" lon="9.247055053710938">
        <ele>1261.867919921875</ele>
        <time>2006-07-09T09:58:11Z</time>
      </trkpt>
      <trkpt lat="45.906200408935547" lon="9.246926307678223">
        <ele>1262.348388671875</ele>
        <time>2006-07-09T09:58:18Z</time>
      </trkpt>
      <trkpt lat="45.906543731689453" lon="9.246926307678223">
        <ele>1259.94482421875</ele>
        <time>2006-07-09T09:58:24Z</time>
      </trkpt>
      <trkpt lat="45.906736850738525" lon="9.246861934661865">
        <ele>1259.94482421875</ele>
        <time>2006-07-09T09:58:27Z</time>
      </trkpt>
      <trkpt lat="45.907981395721436" lon="9.24649715423584">
        <ele>1258.5029296875</ele>
        <time>2006-07-09T09:58:43Z</time>
      </trkpt>
      <trkpt lat="45.908174514770508" lon="9.24649715423584">
        <ele>1257.541748046875</ele>
        <time>2006-07-09T09:58:47Z</time>
      </trkpt>
      <trkpt lat="45.908389091491699" lon="9.246411323547363">
        <ele>1255.619140625</ele>
        <time>2006-07-09T09:58:52Z</time>
      </trkpt>
      <trkpt lat="45.908689498901367" lon="9.246325492858887">
        <ele>1254.17724609375</ele>
        <time>2006-07-09T09:59:03Z</time>
      </trkpt>
      <trkpt lat="45.908904075622559" lon="9.24623966217041">
        <ele>1253.2158203125</ele>
        <time>2006-07-09T09:59:15Z</time>
      </trkpt>
      <trkpt lat="45.909075736999512" lon="9.246175289154053">
        <ele>1252.735107421875</ele>
        <time>2006-07-09T09:59:26Z</time>
      </trkpt>
      <trkpt lat="45.909204483032227" lon="9.246132373809815">
        <ele>1253.2158203125</ele>
        <time>2006-07-09T09:59:37Z</time>
      </trkpt>
      <trkpt lat="45.909397602081299" lon="9.246068000793457">
        <ele>1254.17724609375</ele>
        <time>2006-07-09T09:59:51Z</time>
      </trkpt>
      <trkpt lat="45.909526348114014" lon="9.246046543121338">
        <ele>1254.65771484375</ele>
        <time>2006-07-09T10:00:01Z</time>
      </trkpt>
      <trkpt lat="45.909633636474609" lon="9.246046543121338">
        <ele>1255.619140625</ele>
        <time>2006-07-09T10:00:11Z</time>
      </trkpt>
      <trkpt lat="45.909698009490967" lon="9.246046543121338">
        <ele>1256.099609375</ele>
        <time>2006-07-09T10:00:22Z</time>
      </trkpt>
      <trkpt lat="45.909719467163086" lon="9.246046543121338">
        <ele>1254.65771484375</ele>
        <time>2006-07-09T10:00:37Z</time>
      </trkpt>
      <trkpt lat="45.909762382507324" lon="9.246046543121338">
        <ele>1254.65771484375</ele>
        <time>2006-07-09T10:00:40Z</time>
      </trkpt>
      <trkpt lat="45.909805297851563" lon="9.246025085449219">
        <ele>1254.65771484375</ele>
        <time>2006-07-09T10:00:44Z</time>
      </trkpt>
      <trkpt lat="45.909912586212158" lon="9.245917797088623">
        <ele>1257.541748046875</ele>
        <time>2006-07-09T10:00:59Z</time>
      </trkpt>
      <trkpt lat="45.909976959228516" lon="9.245853424072266">
        <ele>1259.46435546875</ele>
        <time>2006-07-09T10:01:10Z</time>
      </trkpt>
      <trkpt lat="45.910041332244873" lon="9.24574613571167">
        <ele>1260.906494140625</ele>
        <time>2006-07-09T10:01:22Z</time>
      </trkpt>
      <trkpt lat="45.91010570526123" lon="9.245531558990479">
        <ele>1263.790283203125</ele>
        <time>2006-07-09T10:01:35Z</time>
      </trkpt>
      <trkpt lat="45.910148620605469" lon="9.245274066925049">
        <ele>1266.193603515625</ele>
        <time>2006-07-09T10:01:50Z</time>
      </trkpt>
      <trkpt lat="45.910148620605469" lon="9.245038032531738">
        <ele>1267.155029296875</ele>
        <time>2006-07-09T10:02:03Z</time>
      </trkpt>
      <trkpt lat="45.910148620605469" lon="9.24475908279419">
        <ele>1269.558349609375</ele>
        <time>2006-07-09T10:02:18Z</time>
      </trkpt>
      <trkpt lat="45.910148620605469" lon="9.244523048400879">
        <ele>1271.480712890625</ele>
        <time>2006-07-09T10:02:32Z</time>
      </trkpt>
      <trkpt lat="45.91010570526123" lon="9.244201183319092">
        <ele>1274.36474609375</ele>
        <time>2006-07-09T10:02:48Z</time>
      </trkpt>
      <trkpt lat="45.910062789916992" lon="9.244029521942139">
        <ele>1275.806640625</ele>
        <time>2006-07-09T10:02:57Z</time>
      </trkpt>
      <trkpt lat="45.910062789916992" lon="9.243965148925781">
        <ele>1276.28759765625</ele>
        <time>2006-07-09T10:03:02Z</time>
      </trkpt>
      <trkpt lat="45.910019874572754" lon="9.243729114532471">
        <ele>1278.210205078125</ele>
        <time>2006-07-09T10:03:15Z</time>
      </trkpt>
      <trkpt lat="45.909998416900635" lon="9.243514537811279">
        <ele>1281.09423828125</ele>
        <time>2006-07-09T10:03:29Z</time>
      </trkpt>
      <trkpt lat="45.909955501556396" lon="9.243299961090088">
        <ele>1285.419921875</ele>
        <time>2006-07-09T10:03:41Z</time>
      </trkpt>
      <trkpt lat="45.909934043884277" lon="9.243085384368897">
        <ele>1289.26513671875</ele>
        <time>2006-07-09T10:03:53Z</time>
      </trkpt>
      <trkpt lat="45.909891128540039" lon="9.242935180664063">
        <ele>1290.70703125</ele>
        <time>2006-07-09T10:04:06Z</time>
      </trkpt>
      <trkpt lat="45.909891128540039" lon="9.242892265319824">
        <ele>1291.66845703125</ele>
        <time>2006-07-09T10:04:17Z</time>
      </trkpt>
      <trkpt lat="45.909891128540039" lon="9.242870807647705">
        <ele>1292.1494140625</ele>
        <time>2006-07-09T10:04:28Z</time>
      </trkpt>
      <trkpt lat="45.909891128540039" lon="9.242870807647705">
        <ele>1290.2265625</ele>
        <time>2006-07-09T10:04:48Z</time>
      </trkpt>
      <trkpt lat="45.909891128540039" lon="9.242827892303467">
        <ele>1289.26513671875</ele>
        <time>2006-07-09T10:06:36Z</time>
      </trkpt>
      <trkpt lat="45.909891128540039" lon="9.242784976959229">
        <ele>1290.70703125</ele>
        <time>2006-07-09T10:06:52Z</time>
      </trkpt>
      <trkpt lat="45.909848213195801" lon="9.242677688598633">
        <ele>1292.1494140625</ele>
        <time>2006-07-09T10:07:05Z</time>
      </trkpt>
      <trkpt lat="45.909826755523682" lon="9.242527484893799">
        <ele>1294.072021484375</ele>
        <time>2006-07-09T10:07:16Z</time>
      </trkpt>
      <trkpt lat="45.909826755523682" lon="9.242291450500488">
        <ele>1295.99462890625</ele>
        <time>2006-07-09T10:07:29Z</time>
      </trkpt>
      <trkpt lat="45.909826755523682" lon="9.242076873779297">
        <ele>1299.359130859375</ele>
        <time>2006-07-09T10:07:39Z</time>
      </trkpt>
      <trkpt lat="45.909891128540039" lon="9.241883754730225">
        <ele>1302.242919921875</ele>
        <time>2006-07-09T10:07:51Z</time>
      </trkpt>
      <trkpt lat="45.909976959228516" lon="9.241669178009033">
        <ele>1306.56884765625</ele>
        <time>2006-07-09T10:08:05Z</time>
      </trkpt>
      <trkpt lat="45.910084247589111" lon="9.241476058959961">
        <ele>1310.414306640625</ele>
        <time>2006-07-09T10:08:21Z</time>
      </trkpt>
      <trkpt lat="45.910148620605469" lon="9.241325855255127">
        <ele>1312.3369140625</ele>
        <time>2006-07-09T10:08:33Z</time>
      </trkpt>
      <trkpt lat="45.910212993621826" lon="9.241218566894531">
        <ele>1315.220947265625</ele>
        <time>2006-07-09T10:08:46Z</time>
      </trkpt>
      <trkpt lat="45.910234451293945" lon="9.241197109222412">
        <ele>1315.220947265625</ele>
        <time>2006-07-09T10:08:57Z</time>
      </trkpt>
      <trkpt lat="45.910255908966064" lon="9.241132736206055">
        <ele>1316.18212890625</ele>
        <time>2006-07-09T10:09:12Z</time>
      </trkpt>
      <trkpt lat="45.910255908966064" lon="9.241068363189697">
        <ele>1316.662841796875</ele>
        <time>2006-07-09T10:09:16Z</time>
      </trkpt>
      <trkpt lat="45.910341739654541" lon="9.240810871124268">
        <ele>1319.546875</ele>
        <time>2006-07-09T10:09:32Z</time>
      </trkpt>
      <trkpt lat="45.910449028015137" lon="9.240574836730957">
        <ele>1321.949951171875</ele>
        <time>2006-07-09T10:09:47Z</time>
      </trkpt>
      <trkpt lat="45.910534858703613" lon="9.240360260009766">
        <ele>1324.353515625</ele>
        <time>2006-07-09T10:10:02Z</time>
      </trkpt>
      <trkpt lat="45.910642147064209" lon="9.240145683288574">
        <ele>1326.7568359375</ele>
        <time>2006-07-09T10:10:17Z</time>
      </trkpt>
      <trkpt lat="45.910706520080566" lon="9.239974021911621">
        <ele>1329.640625</ele>
        <time>2006-07-09T10:10:32Z</time>
      </trkpt>
      <trkpt lat="45.910706520080566" lon="9.239974021911621">
        <ele>1329.159912109375</ele>
        <time>2006-07-09T10:10:51Z</time>
      </trkpt>
      <trkpt lat="45.910770893096924" lon="9.239888191223145">
        <ele>1330.121337890625</ele>
        <time>2006-07-09T10:11:05Z</time>
      </trkpt>
      <trkpt lat="45.910770893096924" lon="9.239866733551025">
        <ele>1330.121337890625</ele>
        <time>2006-07-09T10:11:13Z</time>
      </trkpt>
      <trkpt lat="45.910792350769043" lon="9.239845275878906">
        <ele>1331.082763671875</ele>
        <time>2006-07-09T10:11:15Z</time>
      </trkpt>
      <trkpt lat="45.910921096801758" lon="9.239695072174072">
        <ele>1333.966552734375</ele>
        <time>2006-07-09T10:11:30Z</time>
      </trkpt>
      <trkpt lat="45.910985469818115" lon="9.239609241485596">
        <ele>1335.408447265625</ele>
        <time>2006-07-09T10:11:39Z</time>
      </trkpt>
      <trkpt lat="45.911028385162354" lon="9.239695072174072">
        <ele>1335.88916015625</ele>
        <time>2006-07-09T10:11:49Z</time>
      </trkpt>
      <trkpt lat="45.910985469818115" lon="9.23975944519043">
        <ele>1336.369873046875</ele>
        <time>2006-07-09T10:12:02Z</time>
      </trkpt>
      <trkpt lat="45.910942554473877" lon="9.239823818206787">
        <ele>1336.850341796875</ele>
        <time>2006-07-09T10:12:36Z</time>
      </trkpt>
      <trkpt lat="45.91087818145752" lon="9.240059852600098">
        <ele>1338.29248046875</ele>
        <time>2006-07-09T10:12:49Z</time>
      </trkpt>
      <trkpt lat="45.91087818145752" lon="9.240317344665527">
        <ele>1340.69580078125</ele>
        <time>2006-07-09T10:13:03Z</time>
      </trkpt>
      <trkpt lat="45.91087818145752" lon="9.240446090698242">
        <ele>1342.137939453125</ele>
        <time>2006-07-09T10:13:12Z</time>
      </trkpt>
      <trkpt lat="45.910899639129639" lon="9.240660667419434">
        <ele>1344.541015625</ele>
        <time>2006-07-09T10:13:27Z</time>
      </trkpt>
      <trkpt lat="45.910899639129639" lon="9.240832328796387">
        <ele>1346.4638671875</ele>
        <time>2006-07-09T10:13:39Z</time>
      </trkpt>
      <trkpt lat="45.910899639129639" lon="9.241132736206055">
        <ele>1348.866943359375</ele>
        <time>2006-07-09T10:13:57Z</time>
      </trkpt>
      <trkpt lat="45.910899639129639" lon="9.241347312927246">
        <ele>1350.30908203125</ele>
        <time>2006-07-09T10:14:11Z</time>
      </trkpt>
      <trkpt lat="45.91087818145752" lon="9.241561889648438">
        <ele>1353.19287109375</ele>
        <time>2006-07-09T10:14:25Z</time>
      </trkpt>
      <trkpt lat="45.91087818145752" lon="9.241583347320557">
        <ele>1352.712158203125</ele>
        <time>2006-07-09T10:14:35Z</time>
      </trkpt>
      <trkpt lat="45.91087818145752" lon="9.241733551025391">
        <ele>1354.154296875</ele>
        <time>2006-07-09T10:14:49Z</time>
      </trkpt>
      <trkpt lat="45.9108567237854" lon="9.241969585418701">
        <ele>1355.115478515625</ele>
        <time>2006-07-09T10:15:03Z</time>
      </trkpt>
      <trkpt lat="45.9108567237854" lon="9.242033958435059">
        <ele>1356.076904296875</ele>
        <time>2006-07-09T10:15:15Z</time>
      </trkpt>
      <trkpt lat="45.9108567237854" lon="9.242033958435059">
        <ele>1355.59619140625</ele>
        <time>2006-07-09T10:15:31Z</time>
      </trkpt>
      <trkpt lat="45.910899639129639" lon="9.24199104309082">
        <ele>1353.19287109375</ele>
        <time>2006-07-09T10:19:42Z</time>
      </trkpt>
      <trkpt lat="45.910921096801758" lon="9.241883754730225">
        <ele>1355.59619140625</ele>
        <time>2006-07-09T10:19:55Z</time>
      </trkpt>
      <trkpt lat="45.910921096801758" lon="9.241840839385986">
        <ele>1356.5576171875</ele>
        <time>2006-07-09T10:20:01Z</time>
      </trkpt>
      <trkpt lat="45.910985469818115" lon="9.241604804992676">
        <ele>1359.441650390625</ele>
        <time>2006-07-09T10:20:15Z</time>
      </trkpt>
      <trkpt lat="45.911071300506592" lon="9.241368770599365">
        <ele>1363.767333984375</ele>
        <time>2006-07-09T10:20:29Z</time>
      </trkpt>
      <trkpt lat="45.911157131195068" lon="9.241154193878174">
        <ele>1367.132080078125</ele>
        <time>2006-07-09T10:20:43Z</time>
      </trkpt>
      <trkpt lat="45.911242961883545" lon="9.240961074829102">
        <ele>1369.535400390625</ele>
        <time>2006-07-09T10:20:56Z</time>
      </trkpt>
      <trkpt lat="45.911328792572021" lon="9.24074649810791">
        <ele>1371.9384765625</ele>
        <time>2006-07-09T10:21:09Z</time>
      </trkpt>
      <trkpt lat="45.911478996276855" lon="9.240596294403076">
        <ele>1373.861328125</ele>
        <time>2006-07-09T10:21:23Z</time>
      </trkpt>
      <trkpt lat="45.911586284637451" lon="9.240467548370361">
        <ele>1374.82275390625</ele>
        <time>2006-07-09T10:21:35Z</time>
      </trkpt>
      <trkpt lat="45.911779403686523" lon="9.240467548370361">
        <ele>1377.70654296875</ele>
        <time>2006-07-09T10:21:49Z</time>
      </trkpt>
      <trkpt lat="45.911865234375" lon="9.2405104637146">
        <ele>1380.10986328125</ele>
        <time>2006-07-09T10:22:01Z</time>
      </trkpt>
      <trkpt lat="45.911908149719238" lon="9.240553379058838">
        <ele>1381.5517578125</ele>
        <time>2006-07-09T10:22:11Z</time>
      </trkpt>
      <trkpt lat="45.911929607391357" lon="9.240574836730957">
        <ele>1381.5517578125</ele>
        <time>2006-07-09T10:22:29Z</time>
      </trkpt>
      <trkpt lat="45.911951065063477" lon="9.240574836730957">
        <ele>1381.0712890625</ele>
        <time>2006-07-09T10:23:19Z</time>
      </trkpt>
      <trkpt lat="45.912058353424072" lon="9.240703582763672">
        <ele>1383.474365234375</ele>
        <time>2006-07-09T10:23:33Z</time>
      </trkpt>
      <trkpt lat="45.912294387817383" lon="9.240789413452148">
        <ele>1388.761962890625</ele>
        <time>2006-07-09T10:23:51Z</time>
      </trkpt>
      <trkpt lat="45.912423133850098" lon="9.240725040435791">
        <ele>1391.645751953125</ele>
        <time>2006-07-09T10:24:01Z</time>
      </trkpt>
      <trkpt lat="45.912487506866455" lon="9.240682125091553">
        <ele>1393.568359375</ele>
        <time>2006-07-09T10:24:08Z</time>
      </trkpt>
      <trkpt lat="45.912659168243408" lon="9.240596294403076">
        <ele>1395.01025390625</ele>
        <time>2006-07-09T10:24:24Z</time>
      </trkpt>
      <trkpt lat="45.912830829620361" lon="9.240467548370361">
        <ele>1396.932861328125</ele>
        <time>2006-07-09T10:24:42Z</time>
      </trkpt>
      <trkpt lat="45.912959575653076" lon="9.240360260009766">
        <ele>1399.336181640625</ele>
        <time>2006-07-09T10:24:55Z</time>
      </trkpt>
      <trkpt lat="45.913088321685791" lon="9.240231513977051">
        <ele>1401.739501953125</ele>
        <time>2006-07-09T10:25:10Z</time>
      </trkpt>
      <trkpt lat="45.913088321685791" lon="9.240231513977051">
        <ele>1401.2587890625</ele>
        <time>2006-07-09T10:25:24Z</time>
      </trkpt>
      <trkpt lat="45.913174152374268" lon="9.240145683288574">
        <ele>1403.662109375</ele>
        <time>2006-07-09T10:25:49Z</time>
      </trkpt>
      <trkpt lat="45.913174152374268" lon="9.240145683288574">
        <ele>1401.739501953125</ele>
        <time>2006-07-09T10:26:13Z</time>
      </trkpt>
      <trkpt lat="45.913238525390625" lon="9.240059852600098">
        <ele>1403.181396484375</ele>
        <time>2006-07-09T10:28:04Z</time>
      </trkpt>
      <trkpt lat="45.913388729095459" lon="9.239931106567383">
        <ele>1405.5849609375</ele>
        <time>2006-07-09T10:28:20Z</time>
      </trkpt>
      <trkpt lat="45.913431644439697" lon="9.239888191223145">
        <ele>1407.02685546875</ele>
        <time>2006-07-09T10:28:33Z</time>
      </trkpt>
      <trkpt lat="45.91360330581665" lon="9.239737987518311">
        <ele>1410.8720703125</ele>
        <time>2006-07-09T10:28:50Z</time>
      </trkpt>
      <trkpt lat="45.913710594177246" lon="9.239652156829834">
        <ele>1412.31396484375</ele>
        <time>2006-07-09T10:29:01Z</time>
      </trkpt>
      <trkpt lat="45.913882255554199" lon="9.239523410797119">
        <ele>1414.71728515625</ele>
        <time>2006-07-09T10:29:15Z</time>
      </trkpt>
      <trkpt lat="45.914011001586914" lon="9.239394664764404">
        <ele>1416.639892578125</ele>
        <time>2006-07-09T10:29:29Z</time>
      </trkpt>
      <trkpt lat="45.91411828994751" lon="9.239223003387451">
        <ele>1419.043212890625</ele>
        <time>2006-07-09T10:29:43Z</time>
      </trkpt>
      <trkpt lat="45.914225578308105" lon="9.239051342010498">
        <ele>1422.407958984375</ele>
        <time>2006-07-09T10:29:57Z</time>
      </trkpt>
      <trkpt lat="45.914289951324463" lon="9.238901138305664">
        <ele>1424.811279296875</ele>
        <time>2006-07-09T10:30:08Z</time>
      </trkpt>
      <trkpt lat="45.914311408996582" lon="9.238793849945068">
        <ele>1426.253173828125</ele>
        <time>2006-07-09T10:30:15Z</time>
      </trkpt>
      <trkpt lat="45.914332866668701" lon="9.238450527191162">
        <ele>1430.098388671875</ele>
        <time>2006-07-09T10:30:33Z</time>
      </trkpt>
      <trkpt lat="45.914332866668701" lon="9.238300323486328">
        <ele>1431.540283203125</ele>
        <time>2006-07-09T10:30:46Z</time>
      </trkpt>
      <trkpt lat="45.914311408996582" lon="9.238171577453613">
        <ele>1432.982177734375</ele>
        <time>2006-07-09T10:31:10Z</time>
      </trkpt>
      <trkpt lat="45.914289951324463" lon="9.237935543060303">
        <ele>1433.943603515625</ele>
        <time>2006-07-09T10:31:24Z</time>
      </trkpt>
      <trkpt lat="45.914268493652344" lon="9.237678050994873">
        <ele>1435.8662109375</ele>
        <time>2006-07-09T10:31:38Z</time>
      </trkpt>
      <trkpt lat="45.914204120635986" lon="9.237420558929443">
        <ele>1435.8662109375</ele>
        <time>2006-07-09T10:31:51Z</time>
      </trkpt>
      <trkpt lat="45.914139747619629" lon="9.237120151519775">
        <ele>1438.269775390625</ele>
        <time>2006-07-09T10:32:05Z</time>
      </trkpt>
      <trkpt lat="45.914075374603271" lon="9.236798286437988">
        <ele>1439.23095703125</ele>
        <time>2006-07-09T10:32:18Z</time>
      </trkpt>
      <trkpt lat="45.91411828994751" lon="9.236369132995606">
        <ele>1439.711669921875</ele>
        <time>2006-07-09T10:32:31Z</time>
      </trkpt>
      <trkpt lat="45.914182662963867" lon="9.236133098602295">
        <ele>1439.711669921875</ele>
        <time>2006-07-09T10:32:42Z</time>
      </trkpt>
      <trkpt lat="45.914182662963867" lon="9.236133098602295">
        <ele>1440.1923828125</ele>
        <time>2006-07-09T10:32:56Z</time>
      </trkpt>
      <trkpt lat="45.914182662963867" lon="9.236111640930176">
        <ele>1439.23095703125</ele>
        <time>2006-07-09T10:35:05Z</time>
      </trkpt>
      <trkpt lat="45.914182662963867" lon="9.236111640930176">
        <ele>1439.23095703125</ele>
        <time>2006-07-09T10:35:22Z</time>
      </trkpt>
      <trkpt lat="45.914161205291748" lon="9.236154556274414">
        <ele>1439.23095703125</ele>
        <time>2006-07-09T10:35:38Z</time>
      </trkpt>
      <trkpt lat="45.914182662963867" lon="9.236133098602295">
        <ele>1439.711669921875</ele>
        <time>2006-07-09T10:35:54Z</time>
      </trkpt>
      <trkpt lat="45.914182662963867" lon="9.236133098602295">
        <ele>1439.711669921875</ele>
        <time>2006-07-09T10:36:09Z</time>
      </trkpt>
      <trkpt lat="45.914182662963867" lon="9.236111640930176">
        <ele>1439.711669921875</ele>
        <time>2006-07-09T10:36:29Z</time>
      </trkpt>
      <trkpt lat="45.914139747619629" lon="9.236025810241699">
        <ele>1439.711669921875</ele>
        <time>2006-07-09T10:36:33Z</time>
      </trkpt>
      <trkpt lat="45.914096832275391" lon="9.235832691192627">
        <ele>1440.1923828125</ele>
        <time>2006-07-09T10:36:44Z</time>
      </trkpt>
      <trkpt lat="45.914053916931152" lon="9.23551082611084">
        <ele>1442.114990234375</ele>
        <time>2006-07-09T10:36:58Z</time>
      </trkpt>
      <trkpt lat="45.913989543914795" lon="9.235317707061768">
        <ele>1443.556884765625</ele>
        <time>2006-07-09T10:37:09Z</time>
      </trkpt>
      <trkpt lat="45.913903713226318" lon="9.235081672668457">
        <ele>1444.998779296875</ele>
        <time>2006-07-09T10:37:22Z</time>
      </trkpt>
      <trkpt lat="45.913774967193604" lon="9.234867095947266">
        <ele>1445.960205078125</ele>
        <time>2006-07-09T10:37:35Z</time>
      </trkpt>
      <trkpt lat="45.91362476348877" lon="9.234609603881836">
        <ele>1446.44091796875</ele>
        <time>2006-07-09T10:37:51Z</time>
      </trkpt>
      <trkpt lat="45.913496017456055" lon="9.234416484832764">
        <ele>1447.402099609375</ele>
        <time>2006-07-09T10:38:03Z</time>
      </trkpt>
      <trkpt lat="45.91336727142334" lon="9.234244823455811">
        <ele>1448.36328125</ele>
        <time>2006-07-09T10:38:14Z</time>
      </trkpt>
      <trkpt lat="45.913195610046387" lon="9.234051704406738">
        <ele>1450.2861328125</ele>
        <time>2006-07-09T10:38:29Z</time>
      </trkpt>
      <trkpt lat="45.913023948669434" lon="9.233901500701904">
        <ele>1451.72802734375</ele>
        <time>2006-07-09T10:38:42Z</time>
      </trkpt>
      <trkpt lat="45.91285228729248" lon="9.23377275466919">
        <ele>1452.689453125</ele>
        <time>2006-07-09T10:38:55Z</time>
      </trkpt>
      <trkpt lat="45.912702083587646" lon="9.233644008636475">
        <ele>1454.131591796875</ele>
        <time>2006-07-09T10:39:07Z</time>
      </trkpt>
      <trkpt lat="45.912573337554932" lon="9.233493804931641">
        <ele>1456.053955078125</ele>
        <time>2006-07-09T10:39:20Z</time>
      </trkpt>
      <trkpt lat="45.912401676177979" lon="9.233365058898926">
        <ele>1457.49609375</ele>
        <time>2006-07-09T10:39:35Z</time>
      </trkpt>
      <trkpt lat="45.912272930145264" lon="9.233236312866211">
        <ele>1458.93798828125</ele>
        <time>2006-07-09T10:39:46Z</time>
      </trkpt>
      <trkpt lat="45.912079811096191" lon="9.233129024505615">
        <ele>1460.3798828125</ele>
        <time>2006-07-09T10:39:59Z</time>
      </trkpt>
      <trkpt lat="45.911929607391357" lon="9.2330002784729">
        <ele>1461.34130859375</ele>
        <time>2006-07-09T10:40:11Z</time>
      </trkpt>
      <trkpt lat="45.911693572998047" lon="9.232892990112305">
        <ele>1463.263916015625</ele>
        <time>2006-07-09T10:40:26Z</time>
      </trkpt>
      <trkpt lat="45.911521911621094" lon="9.232785701751709">
        <ele>1464.705810546875</ele>
        <time>2006-07-09T10:40:38Z</time>
      </trkpt>
      <trkpt lat="45.911350250244141" lon="9.232699871063232">
        <ele>1466.62841796875</ele>
        <time>2006-07-09T10:40:49Z</time>
      </trkpt>
      <trkpt lat="45.911242961883545" lon="9.232571125030518">
        <ele>1467.589599609375</ele>
        <time>2006-07-09T10:40:59Z</time>
      </trkpt>
      <trkpt lat="45.911135673522949" lon="9.232378005981445">
        <ele>1469.5126953125</ele>
        <time>2006-07-09T10:41:11Z</time>
      </trkpt>
      <trkpt lat="45.91111421585083" lon="9.232099056243897">
        <ele>1472.396484375</ele>
        <time>2006-07-09T10:41:24Z</time>
      </trkpt>
      <trkpt lat="45.911221504211426" lon="9.231948852539063">
        <ele>1473.35791015625</ele>
        <time>2006-07-09T10:41:37Z</time>
      </trkpt>
      <trkpt lat="45.911350250244141" lon="9.231777191162109">
        <ele>1474.7998046875</ele>
        <time>2006-07-09T10:41:50Z</time>
      </trkpt>
      <trkpt lat="45.911500453948975" lon="9.231584072113037">
        <ele>1477.203125</ele>
        <time>2006-07-09T10:42:07Z</time>
      </trkpt>
      <trkpt lat="45.911650657653809" lon="9.231369495391846">
        <ele>1479.606201171875</ele>
        <time>2006-07-09T10:42:23Z</time>
      </trkpt>
      <trkpt lat="45.911757946014404" lon="9.231176376342773">
        <ele>1482.490234375</ele>
        <time>2006-07-09T10:42:37Z</time>
      </trkpt>
      <trkpt lat="45.911886692047119" lon="9.230961799621582">
        <ele>1484.893798828125</ele>
        <time>2006-07-09T10:42:51Z</time>
      </trkpt>
      <trkpt lat="45.911972522735596" lon="9.230790138244629">
        <ele>1487.296875</ele>
        <time>2006-07-09T10:43:04Z</time>
      </trkpt>
      <trkpt lat="45.912036895751953" lon="9.230661392211914">
        <ele>1488.25830078125</ele>
        <time>2006-07-09T10:43:13Z</time>
      </trkpt>
      <trkpt lat="45.912079811096191" lon="9.230597019195557">
        <ele>1488.25830078125</ele>
        <time>2006-07-09T10:43:18Z</time>
      </trkpt>
      <trkpt lat="45.912101268768311" lon="9.230489730834961">
        <ele>1488.25830078125</ele>
        <time>2006-07-09T10:43:24Z</time>
      </trkpt>
      <trkpt lat="45.912144184112549" lon="9.230360984802246">
        <ele>1489.219482421875</ele>
        <time>2006-07-09T10:43:32Z</time>
      </trkpt>
      <trkpt lat="45.912208557128906" lon="9.230103492736816">
        <ele>1490.661376953125</ele>
        <time>2006-07-09T10:43:46Z</time>
      </trkpt>
      <trkpt lat="45.912230014801025" lon="9.229781627655029">
        <ele>1491.622802734375</ele>
        <time>2006-07-09T10:44:02Z</time>
      </trkpt>
      <trkpt lat="45.912144184112549" lon="9.229395389556885">
        <ele>1491.14208984375</ele>
        <time>2006-07-09T10:44:13Z</time>
      </trkpt>
      <trkpt lat="45.911993980407715" lon="9.228901863098145">
        <ele>1489.7001953125</ele>
        <time>2006-07-09T10:44:22Z</time>
      </trkpt>
      <trkpt lat="45.911886692047119" lon="9.228579998016357">
        <ele>1488.25830078125</ele>
        <time>2006-07-09T10:44:27Z</time>
      </trkpt>
      <trkpt lat="45.911908149719238" lon="9.228236675262451">
        <ele>1489.7001953125</ele>
        <time>2006-07-09T10:44:34Z</time>
      </trkpt>
      <trkpt lat="45.911972522735596" lon="9.22802209854126">
        <ele>1491.14208984375</ele>
        <time>2006-07-09T10:44:46Z</time>
      </trkpt>
      <trkpt lat="45.912058353424072" lon="9.22776460647583">
        <ele>1492.103515625</ele>
        <time>2006-07-09T10:45:01Z</time>
      </trkpt>
      <trkpt lat="45.912101268768311" lon="9.2275071144104">
        <ele>1493.064697265625</ele>
        <time>2006-07-09T10:45:15Z</time>
      </trkpt>
      <trkpt lat="45.912079811096191" lon="9.22727108001709">
        <ele>1492.584228515625</ele>
        <time>2006-07-09T10:45:28Z</time>
      </trkpt>
      <trkpt lat="45.912036895751953" lon="9.227099418640137">
        <ele>1494.026123046875</ele>
        <time>2006-07-09T10:45:39Z</time>
      </trkpt>
      <trkpt lat="45.911993980407715" lon="9.226906299591065">
        <ele>1495.94873046875</ele>
        <time>2006-07-09T10:45:51Z</time>
      </trkpt>
      <trkpt lat="45.911929607391357" lon="9.226691722869873">
        <ele>1498.351806640625</ele>
        <time>2006-07-09T10:46:05Z</time>
      </trkpt>
      <trkpt lat="45.911865234375" lon="9.226498603820801">
        <ele>1500.75537109375</ele>
        <time>2006-07-09T10:46:19Z</time>
      </trkpt>
      <trkpt lat="45.911843776702881" lon="9.226412773132324">
        <ele>1501.236083984375</ele>
        <time>2006-07-09T10:46:25Z</time>
      </trkpt>
      <trkpt lat="45.911757946014404" lon="9.22626256942749">
        <ele>1503.639404296875</ele>
        <time>2006-07-09T10:46:37Z</time>
      </trkpt>
      <trkpt lat="45.911672115325928" lon="9.226112365722656">
        <ele>1506.04248046875</ele>
        <time>2006-07-09T10:46:51Z</time>
      </trkpt>
      <trkpt lat="45.911629199981689" lon="9.225983619689941">
        <ele>1508.926513671875</ele>
        <time>2006-07-09T10:47:01Z</time>
      </trkpt>
      <trkpt lat="45.911586284637451" lon="9.225897789001465">
        <ele>1509.8876953125</ele>
        <time>2006-07-09T10:47:06Z</time>
      </trkpt>
      <trkpt lat="45.911543369293213" lon="9.225704669952393">
        <ele>1512.291015625</ele>
        <time>2006-07-09T10:47:19Z</time>
      </trkpt>
      <trkpt lat="45.911543369293213" lon="9.225640296936035">
        <ele>1513.25244140625</ele>
        <time>2006-07-09T10:47:23Z</time>
      </trkpt>
      <trkpt lat="45.911564826965332" lon="9.225404262542725">
        <ele>1514.213623046875</ele>
        <time>2006-07-09T10:47:36Z</time>
      </trkpt>
      <trkpt lat="45.911543369293213" lon="9.225060939788818">
        <ele>1513.25244140625</ele>
        <time>2006-07-09T10:47:48Z</time>
      </trkpt>
      <trkpt lat="45.911457538604736" lon="9.22478199005127">
        <ele>1513.25244140625</ele>
        <time>2006-07-09T10:48:03Z</time>
      </trkpt>
      <trkpt lat="45.91137170791626" lon="9.22452449798584">
        <ele>1515.175048828125</ele>
        <time>2006-07-09T10:48:18Z</time>
      </trkpt>
      <trkpt lat="45.911285877227783" lon="9.224309921264648">
        <ele>1515.65576171875</ele>
        <time>2006-07-09T10:48:29Z</time>
      </trkpt>
      <trkpt lat="45.911200046539307" lon="9.224116802215576">
        <ele>1516.6171875</ele>
        <time>2006-07-09T10:48:40Z</time>
      </trkpt>
      <trkpt lat="45.911092758178711" lon="9.223902225494385">
        <ele>1518.05908203125</ele>
        <time>2006-07-09T10:48:54Z</time>
      </trkpt>
      <trkpt lat="45.910985469818115" lon="9.223644733428955">
        <ele>1519.981689453125</ele>
        <time>2006-07-09T10:49:08Z</time>
      </trkpt>
      <trkpt lat="45.910942554473877" lon="9.223215579986572">
        <ele>1519.981689453125</ele>
        <time>2006-07-09T10:49:20Z</time>
      </trkpt>
      <trkpt lat="45.911006927490234" lon="9.222872257232666">
        <ele>1519.0205078125</ele>
        <time>2006-07-09T10:49:25Z</time>
      </trkpt>
      <trkpt lat="45.911049842834473" lon="9.222743511199951">
        <ele>1518.539794921875</ele>
        <time>2006-07-09T10:49:27Z</time>
      </trkpt>
      <trkpt lat="45.911049842834473" lon="9.222486019134522">
        <ele>1518.05908203125</ele>
        <time>2006-07-09T10:49:31Z</time>
      </trkpt>
      <trkpt lat="45.910835266113281" lon="9.221584796905518">
        <ele>1516.6171875</ele>
        <time>2006-07-09T10:49:42Z</time>
      </trkpt>
      <trkpt lat="45.910792350769043" lon="9.221413135528565">
        <ele>1517.097900390625</ele>
        <time>2006-07-09T10:49:48Z</time>
      </trkpt>
      <trkpt lat="45.910706520080566" lon="9.221220016479492">
        <ele>1518.05908203125</ele>
        <time>2006-07-09T10:49:59Z</time>
      </trkpt>
      <trkpt lat="45.91062068939209" lon="9.220983982086182">
        <ele>1519.981689453125</ele>
        <time>2006-07-09T10:50:13Z</time>
      </trkpt>
      <trkpt lat="45.910534858703613" lon="9.22076940536499">
        <ele>1522.385009765625</ele>
        <time>2006-07-09T10:50:28Z</time>
      </trkpt>
      <trkpt lat="45.910513401031494" lon="9.220640659332275">
        <ele>1523.346435546875</ele>
        <time>2006-07-09T10:50:37Z</time>
      </trkpt>
      <trkpt lat="45.910556316375732" lon="9.22053337097168">
        <ele>1524.788330078125</ele>
        <time>2006-07-09T10:50:46Z</time>
      </trkpt>
      <trkpt lat="45.910663604736328" lon="9.220426082611084">
        <ele>1527.191650390625</ele>
        <time>2006-07-09T10:51:01Z</time>
      </trkpt>
      <trkpt lat="45.910792350769043" lon="9.220340251922607">
        <ele>1529.5947265625</ele>
        <time>2006-07-09T10:51:15Z</time>
      </trkpt>
      <trkpt lat="45.91087818145752" lon="9.220211505889893">
        <ele>1531.036865234375</ele>
        <time>2006-07-09T10:51:29Z</time>
      </trkpt>
      <trkpt lat="45.910964012145996" lon="9.220082759857178">
        <ele>1532.95947265625</ele>
        <time>2006-07-09T10:51:42Z</time>
      </trkpt>
      <trkpt lat="45.911071300506592" lon="9.219932556152344">
        <ele>1535.36279296875</ele>
        <time>2006-07-09T10:51:56Z</time>
      </trkpt>
      <trkpt lat="45.911157131195068" lon="9.219825267791748">
        <ele>1537.76611328125</ele>
        <time>2006-07-09T10:52:08Z</time>
      </trkpt>
      <trkpt lat="45.911221504211426" lon="9.219803810119629">
        <ele>1538.7275390625</ele>
        <time>2006-07-09T10:52:20Z</time>
      </trkpt>
      <trkpt lat="45.911328792572021" lon="9.219846725463867">
        <ele>1541.611328125</ele>
        <time>2006-07-09T10:52:32Z</time>
      </trkpt>
      <trkpt lat="45.911500453948975" lon="9.219868183135986">
        <ele>1545.937255859375</ele>
        <time>2006-07-09T10:52:49Z</time>
      </trkpt>
      <trkpt lat="45.911672115325928" lon="9.219825267791748">
        <ele>1549.78271484375</ele>
        <time>2006-07-09T10:53:06Z</time>
      </trkpt>
      <trkpt lat="45.911865234375" lon="9.219760894775391">
        <ele>1551.224609375</ele>
        <time>2006-07-09T10:53:25Z</time>
      </trkpt>
      <trkpt lat="45.911993980407715" lon="9.219675064086914">
        <ele>1551.224609375</ele>
        <time>2006-07-09T10:53:40Z</time>
      </trkpt>
      <trkpt lat="45.912058353424072" lon="9.219653606414795">
        <ele>1552.185791015625</ele>
        <time>2006-07-09T10:53:54Z</time>
      </trkpt>
      <trkpt lat="45.912230014801025" lon="9.219546318054199">
        <ele>1555.06982421875</ele>
        <time>2006-07-09T10:54:12Z</time>
      </trkpt>
      <trkpt lat="45.912380218505859" lon="9.219460487365723">
        <ele>1559.395751953125</ele>
        <time>2006-07-09T10:54:28Z</time>
      </trkpt>
      <trkpt lat="45.912551879882813" lon="9.219374656677246">
        <ele>1564.202392578125</ele>
        <time>2006-07-09T10:54:45Z</time>
      </trkpt>
      <trkpt lat="45.912680625915527" lon="9.219245910644531">
        <ele>1565.64453125</ele>
        <time>2006-07-09T10:55:03Z</time>
      </trkpt>
      <trkpt lat="45.912787914276123" lon="9.219095706939697">
        <ele>1569.97021484375</ele>
        <time>2006-07-09T10:55:17Z</time>
      </trkpt>
      <trkpt lat="45.9128737449646" lon="9.218838214874268">
        <ele>1573.8154296875</ele>
        <time>2006-07-09T10:55:36Z</time>
      </trkpt>
      <trkpt lat="45.912959575653076" lon="9.218602180480957">
        <ele>1575.738037109375</ele>
        <time>2006-07-09T10:55:53Z</time>
      </trkpt>
      <trkpt lat="45.913066864013672" lon="9.218387603759766">
        <ele>1578.141357421875</ele>
        <time>2006-07-09T10:56:10Z</time>
      </trkpt>
      <trkpt lat="45.913217067718506" lon="9.218194484710693">
        <ele>1580.544921875</ele>
        <time>2006-07-09T10:56:27Z</time>
      </trkpt>
      <trkpt lat="45.91336727142334" lon="9.218001365661621">
        <ele>1583.909423828125</ele>
        <time>2006-07-09T10:56:44Z</time>
      </trkpt>
      <trkpt lat="45.913517475128174" lon="9.21778678894043">
        <ele>1585.351318359375</ele>
        <time>2006-07-09T10:57:02Z</time>
      </trkpt>
      <trkpt lat="45.91362476348877" lon="9.217572212219238">
        <ele>1584.870849609375</ele>
        <time>2006-07-09T10:57:17Z</time>
      </trkpt>
      <trkpt lat="45.913689136505127" lon="9.21729326248169">
        <ele>1585.351318359375</ele>
        <time>2006-07-09T10:57:34Z</time>
      </trkpt>
      <trkpt lat="45.913710594177246" lon="9.217185974121094">
        <ele>1586.312744140625</ele>
        <time>2006-07-09T10:57:48Z</time>
      </trkpt>
      <trkpt lat="45.913774967193604" lon="9.217014312744141">
        <ele>1587.27392578125</ele>
        <time>2006-07-09T10:58:00Z</time>
      </trkpt>
      <trkpt lat="45.913839340209961" lon="9.216735363006592">
        <ele>1587.754638671875</ele>
        <time>2006-07-09T10:58:18Z</time>
      </trkpt>
      <trkpt lat="45.91386079788208" lon="9.216499328613281">
        <ele>1590.157958984375</ele>
        <time>2006-07-09T10:58:34Z</time>
      </trkpt>
      <trkpt lat="45.913882255554199" lon="9.216263294219971">
        <ele>1593.5224609375</ele>
        <time>2006-07-09T10:58:49Z</time>
      </trkpt>
      <trkpt lat="45.913903713226318" lon="9.21602725982666">
        <ele>1595.92578125</ele>
        <time>2006-07-09T10:59:05Z</time>
      </trkpt>
      <trkpt lat="45.914011001586914" lon="9.215769767761231">
        <ele>1597.8486328125</ele>
        <time>2006-07-09T10:59:21Z</time>
      </trkpt>
      <trkpt lat="45.914161205291748" lon="9.215512275695801">
        <ele>1599.29052734375</ele>
        <time>2006-07-09T10:59:38Z</time>
      </trkpt>
      <trkpt lat="45.914289951324463" lon="9.215211868286133">
        <ele>1599.29052734375</ele>
        <time>2006-07-09T10:59:57Z</time>
      </trkpt>
      <trkpt lat="45.914397239685059" lon="9.214911460876465">
        <ele>1599.29052734375</ele>
        <time>2006-07-09T11:00:14Z</time>
      </trkpt>
      <trkpt lat="45.914483070373535" lon="9.214611053466797">
        <ele>1601.213134765625</ele>
        <time>2006-07-09T11:00:31Z</time>
      </trkpt>
      <trkpt lat="45.914547443389893" lon="9.21428918838501">
        <ele>1604.57763671875</ele>
        <time>2006-07-09T11:00:51Z</time>
      </trkpt>
      <trkpt lat="45.914654731750488" lon="9.213988780975342">
        <ele>1607.461669921875</ele>
        <time>2006-07-09T11:01:11Z</time>
      </trkpt>
      <trkpt lat="45.914719104766846" lon="9.213709831237793">
        <ele>1609.86474609375</ele>
        <time>2006-07-09T11:01:29Z</time>
      </trkpt>
      <trkpt lat="45.914762020111084" lon="9.213452339172363">
        <ele>1611.78759765625</ele>
        <time>2006-07-09T11:01:45Z</time>
      </trkpt>
      <trkpt lat="45.914762020111084" lon="9.213409423828125">
        <ele>1611.306884765625</ele>
        <time>2006-07-09T11:01:57Z</time>
      </trkpt>
      <trkpt lat="45.914740562438965" lon="9.213366508483887">
        <ele>1610.826171875</ele>
        <time>2006-07-09T11:02:10Z</time>
      </trkpt>
      <trkpt lat="45.914762020111084" lon="9.21328067779541">
        <ele>1611.78759765625</ele>
        <time>2006-07-09T11:02:26Z</time>
      </trkpt>
      <trkpt lat="45.914762020111084" lon="9.213216304779053">
        <ele>1614.671630859375</ele>
        <time>2006-07-09T11:02:37Z</time>
      </trkpt>
      <trkpt lat="45.914783477783203" lon="9.213130474090576">
        <ele>1615.633056640625</ele>
        <time>2006-07-09T11:02:48Z</time>
      </trkpt>
      <trkpt lat="45.914804935455322" lon="9.2130446434021">
        <ele>1618.0361328125</ele>
        <time>2006-07-09T11:03:03Z</time>
      </trkpt>
      <trkpt lat="45.914847850799561" lon="9.212958812713623">
        <ele>1619.958740234375</ele>
        <time>2006-07-09T11:03:16Z</time>
      </trkpt>
      <trkpt lat="45.914890766143799" lon="9.212851524353027">
        <ele>1621.400634765625</ele>
        <time>2006-07-09T11:03:32Z</time>
      </trkpt>
      <trkpt lat="45.914912223815918" lon="9.212744235992432">
        <ele>1624.28466796875</ele>
        <time>2006-07-09T11:03:48Z</time>
      </trkpt>
      <trkpt lat="45.914890766143799" lon="9.212636947631836">
        <ele>1627.168701171875</ele>
        <time>2006-07-09T11:04:04Z</time>
      </trkpt>
      <trkpt lat="45.914890766143799" lon="9.21252965927124">
        <ele>1630.052734375</ele>
        <time>2006-07-09T11:04:17Z</time>
      </trkpt>
      <trkpt lat="45.914890766143799" lon="9.212443828582764">
        <ele>1631.975341796875</ele>
        <time>2006-07-09T11:04:29Z</time>
      </trkpt>
      <trkpt lat="45.914890766143799" lon="9.212422370910645">
        <ele>1632.4560546875</ele>
        <time>2006-07-09T11:04:45Z</time>
      </trkpt>
      <trkpt lat="45.914890766143799" lon="9.212336540222168">
        <ele>1634.378662109375</ele>
        <time>2006-07-09T11:04:58Z</time>
      </trkpt>
      <trkpt lat="45.914912223815918" lon="9.212207794189453">
        <ele>1636.78173828125</ele>
        <time>2006-07-09T11:05:13Z</time>
      </trkpt>
      <trkpt lat="45.914955139160156" lon="9.2120361328125">
        <ele>1639.665771484375</ele>
        <time>2006-07-09T11:05:31Z</time>
      </trkpt>
      <trkpt lat="45.914955139160156" lon="9.211993217468262">
        <ele>1641.107666015625</ele>
        <time>2006-07-09T11:05:49Z</time>
      </trkpt>
      <trkpt lat="45.914955139160156" lon="9.211885929107666">
        <ele>1642.5498046875</ele>
        <time>2006-07-09T11:06:24Z</time>
      </trkpt>
      <trkpt lat="45.914976596832275" lon="9.211735725402832">
        <ele>1644.953125</ele>
        <time>2006-07-09T11:06:40Z</time>
      </trkpt>
      <trkpt lat="45.914998054504395" lon="9.211585521697998">
        <ele>1648.317626953125</ele>
        <time>2006-07-09T11:06:58Z</time>
      </trkpt>
      <trkpt lat="45.914998054504395" lon="9.211521148681641">
        <ele>1650.240478515625</ele>
        <time>2006-07-09T11:07:19Z</time>
      </trkpt>
      <trkpt lat="45.914998054504395" lon="9.211413860321045">
        <ele>1652.6435546875</ele>
        <time>2006-07-09T11:07:37Z</time>
      </trkpt>
      <trkpt lat="45.915019512176514" lon="9.21128511428833">
        <ele>1655.046875</ele>
        <time>2006-07-09T11:08:13Z</time>
      </trkpt>
      <trkpt lat="45.915040969848633" lon="9.211134910583496">
        <ele>1658.411376953125</ele>
        <time>2006-07-09T11:08:30Z</time>
      </trkpt>
      <trkpt lat="45.915062427520752" lon="9.2110276222229">
        <ele>1661.295654296875</ele>
        <time>2006-07-09T11:08:46Z</time>
      </trkpt>
      <trkpt lat="45.915062427520752" lon="9.210963249206543">
        <ele>1662.737548828125</ele>
        <time>2006-07-09T11:09:21Z</time>
      </trkpt>
      <trkpt lat="45.915062427520752" lon="9.210898876190186">
        <ele>1664.179443359375</ele>
        <time>2006-07-09T11:09:37Z</time>
      </trkpt>
      <trkpt lat="45.915083885192871" lon="9.210770130157471">
        <ele>1666.10205078125</ele>
        <time>2006-07-09T11:09:54Z</time>
      </trkpt>
      <trkpt lat="45.91510534286499" lon="9.210705757141113">
        <ele>1667.5439453125</ele>
        <time>2006-07-09T11:10:09Z</time>
      </trkpt>
      <trkpt lat="45.915126800537109" lon="9.210577011108398">
        <ele>1670.90869140625</ele>
        <time>2006-07-09T11:10:27Z</time>
      </trkpt>
      <trkpt lat="45.915126800537109" lon="9.210577011108398">
        <ele>1670.90869140625</ele>
        <time>2006-07-09T11:10:57Z</time>
      </trkpt>
      <trkpt lat="45.915148258209229" lon="9.210448265075684">
        <ele>1673.31201171875</ele>
        <time>2006-07-09T11:11:10Z</time>
      </trkpt>
      <trkpt lat="45.915169715881348" lon="9.210340976715088">
        <ele>1675.234375</ele>
        <time>2006-07-09T11:11:27Z</time>
      </trkpt>
      <trkpt lat="45.915212631225586" lon="9.210255146026611">
        <ele>1677.637939453125</ele>
        <time>2006-07-09T11:11:39Z</time>
      </trkpt>
      <trkpt lat="45.915255546569824" lon="9.210126399993897">
        <ele>1679.079833984375</ele>
        <time>2006-07-09T11:11:52Z</time>
      </trkpt>
      <trkpt lat="45.915255546569824" lon="9.210104942321777">
        <ele>1679.560546875</ele>
        <time>2006-07-09T11:11:53Z</time>
      </trkpt>
      <trkpt lat="45.915341377258301" lon="9.209954738616943">
        <ele>1682.444580078125</ele>
        <time>2006-07-09T11:12:08Z</time>
      </trkpt>
      <trkpt lat="45.915427207946777" lon="9.209911823272705">
        <ele>1683.886474609375</ele>
        <time>2006-07-09T11:12:18Z</time>
      </trkpt>
      <trkpt lat="45.915470123291016" lon="9.209804534912109">
        <ele>1683.886474609375</ele>
        <time>2006-07-09T11:12:31Z</time>
      </trkpt>
      <trkpt lat="45.915491580963135" lon="9.209804534912109">
        <ele>1683.886474609375</ele>
        <time>2006-07-09T11:12:46Z</time>
      </trkpt>
      <trkpt lat="45.915555953979492" lon="9.209697246551514">
        <ele>1683.40576171875</ele>
        <time>2006-07-09T11:14:52Z</time>
      </trkpt>
      <trkpt lat="45.915749073028564" lon="9.20954704284668">
        <ele>1681.483154296875</ele>
        <time>2006-07-09T11:15:00Z</time>
      </trkpt>
      <trkpt lat="45.915899276733398" lon="9.209418296813965">
        <ele>1681.002685546875</ele>
        <time>2006-07-09T11:15:10Z</time>
      </trkpt>
      <trkpt lat="45.915963649749756" lon="9.209332466125488">
        <ele>1680.041259765625</ele>
        <time>2006-07-09T11:15:19Z</time>
      </trkpt>
      <trkpt lat="45.916028022766113" lon="9.20928955078125">
        <ele>1679.079833984375</ele>
        <time>2006-07-09T11:15:28Z</time>
      </trkpt>
      <trkpt lat="45.916028022766113" lon="9.20928955078125">
        <ele>1678.599365234375</ele>
        <time>2006-07-09T11:15:29Z</time>
      </trkpt>
      <trkpt lat="45.916135311126709" lon="9.209160804748535">
        <ele>1676.196044921875</ele>
        <time>2006-07-09T11:15:38Z</time>
      </trkpt>
      <trkpt lat="45.916156768798828" lon="9.209117889404297">
        <ele>1675.234375</ele>
        <time>2006-07-09T11:15:47Z</time>
      </trkpt>
      <trkpt lat="45.916156768798828" lon="9.209139347076416">
        <ele>1673.31201171875</ele>
        <time>2006-07-09T11:16:39Z</time>
      </trkpt>
      <trkpt lat="45.916156768798828" lon="9.209160804748535">
        <ele>1669.466796875</ele>
        <time>2006-07-09T11:20:09Z</time>
      </trkpt>
      <trkpt lat="45.916178226470947" lon="9.209096431732178">
        <ele>1673.79248046875</ele>
        <time>2006-07-09T11:21:26Z</time>
      </trkpt>
      <trkpt lat="45.916221141815186" lon="9.20905351638794">
        <ele>1671.869873046875</ele>
        <time>2006-07-09T11:21:39Z</time>
      </trkpt>
      <trkpt lat="45.916221141815186" lon="9.209074974060059">
        <ele>1673.79248046875</ele>
        <time>2006-07-09T11:22:14Z</time>
      </trkpt>
      <trkpt lat="45.916221141815186" lon="9.209096431732178">
        <ele>1673.79248046875</ele>
        <time>2006-07-09T11:22:18Z</time>
      </trkpt>
      <trkpt lat="45.916242599487305" lon="9.209225177764893">
        <ele>1671.869873046875</ele>
        <time>2006-07-09T11:22:27Z</time>
      </trkpt>
      <trkpt lat="45.916264057159424" lon="9.209311008453369">
        <ele>1670.90869140625</ele>
        <time>2006-07-09T11:22:35Z</time>
      </trkpt>
      <trkpt lat="45.916285514831543" lon="9.209353923797607">
        <ele>1669.466796875</ele>
        <time>2006-07-09T11:22:45Z</time>
      </trkpt>
      <trkpt lat="45.916306972503662" lon="9.209396839141846">
        <ele>1667.0634765625</ele>
        <time>2006-07-09T11:22:56Z</time>
      </trkpt>
      <trkpt lat="45.916306972503662" lon="9.209439754486084">
        <ele>1664.179443359375</ele>
        <time>2006-07-09T11:23:06Z</time>
      </trkpt>
      <trkpt lat="45.916328430175781" lon="9.209482669830322">
        <ele>1661.7763671875</ele>
        <time>2006-07-09T11:23:18Z</time>
      </trkpt>
      <trkpt lat="45.916328430175781" lon="9.209568500518799">
        <ele>1660.334228515625</ele>
        <time>2006-07-09T11:23:29Z</time>
      </trkpt>
      <trkpt lat="45.916328430175781" lon="9.209654331207275">
        <ele>1659.372802734375</ele>
        <time>2006-07-09T11:23:42Z</time>
      </trkpt>
      <trkpt lat="45.91637134552002" lon="9.209675788879395">
        <ele>1656.008056640625</ele>
        <time>2006-07-09T11:23:53Z</time>
      </trkpt>
      <trkpt lat="45.916392803192139" lon="9.209718704223633">
        <ele>1653.124267578125</ele>
        <time>2006-07-09T11:24:03Z</time>
      </trkpt>
      <trkpt lat="45.916392803192139" lon="9.20978307723999">
        <ele>1652.162841796875</ele>
        <time>2006-07-09T11:24:11Z</time>
      </trkpt>
      <trkpt lat="45.916414260864258" lon="9.209825992584229">
        <ele>1651.20166015625</ele>
        <time>2006-07-09T11:24:20Z</time>
      </trkpt>
      <trkpt lat="45.916414260864258" lon="9.209890365600586">
        <ele>1649.279052734375</ele>
        <time>2006-07-09T11:24:31Z</time>
      </trkpt>
      <trkpt lat="45.916435718536377" lon="9.209890365600586">
        <ele>1649.279052734375</ele>
        <time>2006-07-09T11:24:42Z</time>
      </trkpt>
      <trkpt lat="45.916457176208496" lon="9.209868907928467">
        <ele>1648.317626953125</ele>
        <time>2006-07-09T11:24:47Z</time>
      </trkpt>
      <trkpt lat="45.916585922241211" lon="9.209911823272705">
        <ele>1647.837158203125</ele>
        <time>2006-07-09T11:25:04Z</time>
      </trkpt>
      <trkpt lat="45.916628837585449" lon="9.209911823272705">
        <ele>1647.837158203125</ele>
        <time>2006-07-09T11:25:14Z</time>
      </trkpt>
      <trkpt lat="45.916650295257568" lon="9.209868907928467">
        <ele>1645.91455078125</ele>
        <time>2006-07-09T11:25:20Z</time>
      </trkpt>
      <trkpt lat="45.916650295257568" lon="9.209933280944824">
        <ele>1644.953125</ele>
        <time>2006-07-09T11:25:29Z</time>
      </trkpt>
      <trkpt lat="45.916693210601807" lon="9.209954738616943">
        <ele>1643.0302734375</ele>
        <time>2006-07-09T11:25:39Z</time>
      </trkpt>
      <trkpt lat="45.916671752929688" lon="9.209997653961182">
        <ele>1640.146484375</ele>
        <time>2006-07-09T11:25:50Z</time>
      </trkpt>
      <trkpt lat="45.916693210601807" lon="9.210083484649658">
        <ele>1635.820556640625</ele>
        <time>2006-07-09T11:26:00Z</time>
      </trkpt>
      <trkpt lat="45.916693210601807" lon="9.210083484649658">
        <ele>1633.417236328125</ele>
        <time>2006-07-09T11:26:09Z</time>
      </trkpt>
      <trkpt lat="45.916714668273926" lon="9.210062026977539">
        <ele>1631.49462890625</ele>
        <time>2006-07-09T11:26:37Z</time>
      </trkpt>
      <trkpt lat="45.916757583618164" lon="9.210083484649658">
        <ele>1630.533447265625</ele>
        <time>2006-07-09T11:26:48Z</time>
      </trkpt>
      <trkpt lat="45.916821956634521" lon="9.210126399993897">
        <ele>1627.649169921875</ele>
        <time>2006-07-09T11:27:07Z</time>
      </trkpt>
      <trkpt lat="45.91686487197876" lon="9.210147857666016">
        <ele>1625.7265625</ele>
        <time>2006-07-09T11:27:19Z</time>
      </trkpt>
      <trkpt lat="45.916821956634521" lon="9.210190773010254">
        <ele>1622.362060546875</ele>
        <time>2006-07-09T11:27:31Z</time>
      </trkpt>
      <trkpt lat="45.916886329650879" lon="9.210190773010254">
        <ele>1619.958740234375</ele>
        <time>2006-07-09T11:27:43Z</time>
      </trkpt>
      <trkpt lat="45.916950702667236" lon="9.210190773010254">
        <ele>1617.555419921875</ele>
        <time>2006-07-09T11:27:53Z</time>
      </trkpt>
      <trkpt lat="45.916993618011475" lon="9.210276603698731">
        <ele>1615.633056640625</ele>
        <time>2006-07-09T11:28:04Z</time>
      </trkpt>
      <trkpt lat="45.916972160339355" lon="9.210276603698731">
        <ele>1615.633056640625</ele>
        <time>2006-07-09T11:28:14Z</time>
      </trkpt>
      <trkpt lat="45.916929244995117" lon="9.210426807403565">
        <ele>1613.229736328125</ele>
        <time>2006-07-09T11:28:27Z</time>
      </trkpt>
      <trkpt lat="45.916929244995117" lon="9.210448265075684">
        <ele>1609.86474609375</ele>
        <time>2006-07-09T11:28:37Z</time>
      </trkpt>
      <trkpt lat="45.916972160339355" lon="9.210448265075684">
        <ele>1606.01953125</ele>
        <time>2006-07-09T11:28:47Z</time>
      </trkpt>
      <trkpt lat="45.916972160339355" lon="9.210469722747803">
        <ele>1604.09716796875</ele>
        <time>2006-07-09T11:29:00Z</time>
      </trkpt>
      <trkpt lat="45.916972160339355" lon="9.210469722747803">
        <ele>1604.09716796875</ele>
        <time>2006-07-09T11:29:01Z</time>
      </trkpt>
      <trkpt lat="45.917057991027832" lon="9.210469722747803">
        <ele>1603.1357421875</ele>
        <time>2006-07-09T11:29:11Z</time>
      </trkpt>
      <trkpt lat="45.917079448699951" lon="9.210469722747803">
        <ele>1599.29052734375</ele>
        <time>2006-07-09T11:29:23Z</time>
      </trkpt>
      <trkpt lat="45.917057991027832" lon="9.210512638092041">
        <ele>1598.809814453125</ele>
        <time>2006-07-09T11:29:35Z</time>
      </trkpt>
      <trkpt lat="45.917079448699951" lon="9.21053409576416">
        <ele>1597.8486328125</ele>
        <time>2006-07-09T11:29:43Z</time>
      </trkpt>
      <trkpt lat="45.91710090637207" lon="9.21053409576416">
        <ele>1598.3291015625</ele>
        <time>2006-07-09T11:29:51Z</time>
      </trkpt>
      <trkpt lat="45.917165279388428" lon="9.210491180419922">
        <ele>1596.40673828125</ele>
        <time>2006-07-09T11:30:01Z</time>
      </trkpt>
      <trkpt lat="45.917229652404785" lon="9.210469722747803">
        <ele>1591.119140625</ele>
        <time>2006-07-09T11:30:16Z</time>
      </trkpt>
      <trkpt lat="45.917251110076904" lon="9.210491180419922">
        <ele>1588.2353515625</ele>
        <time>2006-07-09T11:30:26Z</time>
      </trkpt>
      <trkpt lat="45.917294025421143" lon="9.210469722747803">
        <ele>1585.83203125</ele>
        <time>2006-07-09T11:30:36Z</time>
      </trkpt>
      <trkpt lat="45.9173583984375" lon="9.210383892059326">
        <ele>1582.947998046875</ele>
        <time>2006-07-09T11:30:50Z</time>
      </trkpt>
      <trkpt lat="45.917401313781738" lon="9.210319519042969">
        <ele>1579.583251953125</ele>
        <time>2006-07-09T11:31:02Z</time>
      </trkpt>
      <trkpt lat="45.917422771453857" lon="9.21029806137085">
        <ele>1579.583251953125</ele>
        <time>2006-07-09T11:31:12Z</time>
      </trkpt>
      <trkpt lat="45.917444229125977" lon="9.210340976715088">
        <ele>1578.141357421875</ele>
        <time>2006-07-09T11:31:24Z</time>
      </trkpt>
      <trkpt lat="45.917444229125977" lon="9.210362434387207">
        <ele>1576.699462890625</ele>
        <time>2006-07-09T11:31:44Z</time>
      </trkpt>
      <trkpt lat="45.917444229125977" lon="9.210362434387207">
        <ele>1575.25732421875</ele>
        <time>2006-07-09T11:32:02Z</time>
      </trkpt>
      <trkpt lat="45.917465686798096" lon="9.210405349731445">
        <ele>1572.854248046875</ele>
        <time>2006-07-09T11:32:12Z</time>
      </trkpt>
      <trkpt lat="45.917508602142334" lon="9.210383892059326">
        <ele>1567.56689453125</ele>
        <time>2006-07-09T11:32:25Z</time>
      </trkpt>
      <trkpt lat="45.917530059814453" lon="9.210362434387207">
        <ele>1564.68310546875</ele>
        <time>2006-07-09T11:32:42Z</time>
      </trkpt>
      <trkpt lat="45.917594432830811" lon="9.210405349731445">
        <ele>1563.240966796875</ele>
        <time>2006-07-09T11:32:52Z</time>
      </trkpt>
      <trkpt lat="45.91761589050293" lon="9.210448265075684">
        <ele>1562.279541015625</ele>
        <time>2006-07-09T11:32:58Z</time>
      </trkpt>
      <trkpt lat="45.917637348175049" lon="9.210469722747803">
        <ele>1560.35693359375</ele>
        <time>2006-07-09T11:33:09Z</time>
      </trkpt>
      <trkpt lat="45.917701721191406" lon="9.210426807403565">
        <ele>1557.953857421875</ele>
        <time>2006-07-09T11:33:21Z</time>
      </trkpt>
      <trkpt lat="45.917701721191406" lon="9.210405349731445">
        <ele>1553.6279296875</ele>
        <time>2006-07-09T11:33:42Z</time>
      </trkpt>
      <trkpt lat="45.917744636535645" lon="9.210405349731445">
        <ele>1550.743896484375</ele>
        <time>2006-07-09T11:33:56Z</time>
      </trkpt>
      <trkpt lat="45.917787551879883" lon="9.210426807403565">
        <ele>1543.533935546875</ele>
        <time>2006-07-09T11:34:10Z</time>
      </trkpt>
      <trkpt lat="45.917830467224121" lon="9.210426807403565">
        <ele>1543.05322265625</ele>
        <time>2006-07-09T11:34:21Z</time>
      </trkpt>
      <trkpt lat="45.91785192489624" lon="9.210491180419922">
        <ele>1542.092041015625</ele>
        <time>2006-07-09T11:34:33Z</time>
      </trkpt>
      <trkpt lat="45.91785192489624" lon="9.210555553436279">
        <ele>1541.130615234375</ele>
        <time>2006-07-09T11:34:42Z</time>
      </trkpt>
      <trkpt lat="45.917873382568359" lon="9.210577011108398">
        <ele>1537.76611328125</ele>
        <time>2006-07-09T11:34:56Z</time>
      </trkpt>
      <trkpt lat="45.917937755584717" lon="9.21053409576416">
        <ele>1535.36279296875</ele>
        <time>2006-07-09T11:35:37Z</time>
      </trkpt>
      <trkpt lat="45.918002128601074" lon="9.210598468780518">
        <ele>1534.401611328125</ele>
        <time>2006-07-09T11:36:05Z</time>
      </trkpt>
      <trkpt lat="45.918045043945313" lon="9.210598468780518">
        <ele>1534.401611328125</ele>
        <time>2006-07-09T11:36:17Z</time>
      </trkpt>
      <trkpt lat="45.918045043945313" lon="9.210641384124756">
        <ele>1532.47900390625</ele>
        <time>2006-07-09T11:36:31Z</time>
      </trkpt>
      <trkpt lat="45.918045043945313" lon="9.210662841796875">
        <ele>1531.517333984375</ele>
        <time>2006-07-09T11:36:35Z</time>
      </trkpt>
      <trkpt lat="45.918087959289551" lon="9.210684299468994">
        <ele>1530.075439453125</ele>
        <time>2006-07-09T11:36:49Z</time>
      </trkpt>
      <trkpt lat="45.918130874633789" lon="9.210662841796875">
        <ele>1528.633544921875</ele>
        <time>2006-07-09T11:36:59Z</time>
      </trkpt>
      <trkpt lat="45.918173789978027" lon="9.210705757141113">
        <ele>1528.15283203125</ele>
        <time>2006-07-09T11:37:15Z</time>
      </trkpt>
      <trkpt lat="45.918173789978027" lon="9.210770130157471">
        <ele>1527.672119140625</ele>
        <time>2006-07-09T11:37:25Z</time>
      </trkpt>
      <trkpt lat="45.918216705322266" lon="9.21079158782959">
        <ele>1526.7109375</ele>
        <time>2006-07-09T11:37:37Z</time>
      </trkpt>
      <trkpt lat="45.918238162994385" lon="9.210920333862305">
        <ele>1523.826904296875</ele>
        <time>2006-07-09T11:37:52Z</time>
      </trkpt>
      <trkpt lat="45.918302536010742" lon="9.210898876190186">
        <ele>1522.385009765625</ele>
        <time>2006-07-09T11:38:03Z</time>
      </trkpt>
      <trkpt lat="45.918388366699219" lon="9.210920333862305">
        <ele>1518.539794921875</ele>
        <time>2006-07-09T11:38:13Z</time>
      </trkpt>
      <trkpt lat="45.918431282043457" lon="9.210920333862305">
        <ele>1515.65576171875</ele>
        <time>2006-07-09T11:38:23Z</time>
      </trkpt>
      <trkpt lat="45.918495655059814" lon="9.210984706878662">
        <ele>1512.291015625</ele>
        <time>2006-07-09T11:38:41Z</time>
      </trkpt>
      <trkpt lat="45.918581485748291" lon="9.21104907989502">
        <ele>1511.810546875</ele>
        <time>2006-07-09T11:38:52Z</time>
      </trkpt>
      <trkpt lat="45.91860294342041" lon="9.2110276222229">
        <ele>1508.44580078125</ele>
        <time>2006-07-09T11:39:04Z</time>
      </trkpt>
      <trkpt lat="45.918667316436768" lon="9.211113452911377">
        <ele>1506.04248046875</ele>
        <time>2006-07-09T11:39:23Z</time>
      </trkpt>
      <trkpt lat="45.918817520141602" lon="9.211134910583496">
        <ele>1503.639404296875</ele>
        <time>2006-07-09T11:39:38Z</time>
      </trkpt>
      <trkpt lat="45.91886043548584" lon="9.211220741271973">
        <ele>1498.351806640625</ele>
        <time>2006-07-09T11:40:03Z</time>
      </trkpt>
      <trkpt lat="45.91886043548584" lon="9.211349487304688">
        <ele>1497.871337890625</ele>
        <time>2006-07-09T11:40:21Z</time>
      </trkpt>
      <trkpt lat="45.918967723846436" lon="9.211392402648926">
        <ele>1497.390625</ele>
        <time>2006-07-09T11:40:31Z</time>
      </trkpt>
      <trkpt lat="45.919032096862793" lon="9.211456775665283">
        <ele>1494.9873046875</ele>
        <time>2006-07-09T11:40:46Z</time>
      </trkpt>
      <trkpt lat="45.919139385223389" lon="9.211585521697998">
        <ele>1494.026123046875</ele>
        <time>2006-07-09T11:41:04Z</time>
      </trkpt>
      <trkpt lat="45.919289588928223" lon="9.211692810058594">
        <ele>1492.584228515625</ele>
        <time>2006-07-09T11:41:27Z</time>
      </trkpt>
      <trkpt lat="45.919289588928223" lon="9.211714267730713">
        <ele>1492.584228515625</ele>
        <time>2006-07-09T11:41:29Z</time>
      </trkpt>
      <trkpt lat="45.91935396194458" lon="9.211757183074951">
        <ele>1488.25830078125</ele>
        <time>2006-07-09T11:41:41Z</time>
      </trkpt>
      <trkpt lat="45.919482707977295" lon="9.211821556091309">
        <ele>1488.25830078125</ele>
        <time>2006-07-09T11:41:56Z</time>
      </trkpt>
      <trkpt lat="45.919675827026367" lon="9.211993217468262">
        <ele>1485.374267578125</ele>
        <time>2006-07-09T11:42:23Z</time>
      </trkpt>
      <trkpt lat="45.919697284698486" lon="9.2120361328125">
        <ele>1476.722412109375</ele>
        <time>2006-07-09T11:43:07Z</time>
      </trkpt>
      <trkpt lat="45.919783115386963" lon="9.212143421173096">
        <ele>1473.83837890625</ele>
        <time>2006-07-09T11:43:39Z</time>
      </trkpt>
      <trkpt lat="45.919826030731201" lon="9.212250709533691">
        <ele>1448.36328125</ele>
        <time>2006-07-09T11:44:28Z</time>
      </trkpt>
      <trkpt lat="45.919740200042725" lon="9.212207794189453">
        <ele>1444.03759765625</ele>
        <time>2006-07-09T11:44:46Z</time>
      </trkpt>
      <trkpt lat="45.919933319091797" lon="9.212443828582764">
        <ele>1438.75048828125</ele>
        <time>2006-07-09T11:45:43Z</time>
      </trkpt>
      <trkpt lat="45.920019149780273" lon="9.212636947631836">
        <ele>1437.7890625</ele>
        <time>2006-07-09T11:46:17Z</time>
      </trkpt>
      <trkpt lat="45.920212268829346" lon="9.212808609008789">
        <ele>1430.5791015625</ele>
        <time>2006-07-09T11:47:15Z</time>
      </trkpt>
      <trkpt lat="45.920255184173584" lon="9.212894439697266">
        <ele>1426.253173828125</ele>
        <time>2006-07-09T11:47:56Z</time>
      </trkpt>
      <trkpt lat="45.920341014862061" lon="9.212958812713623">
        <ele>1423.369384765625</ele>
        <time>2006-07-09T11:48:10Z</time>
      </trkpt>
      <trkpt lat="45.920383930206299" lon="9.212980270385742">
        <ele>1421.446533203125</ele>
        <time>2006-07-09T11:48:25Z</time>
      </trkpt>
      <trkpt lat="45.920426845550537" lon="9.213001728057861">
        <ele>1415.197998046875</ele>
        <time>2006-07-09T11:48:54Z</time>
      </trkpt>
      <trkpt lat="45.920619964599609" lon="9.213409423828125">
        <ele>1406.546142578125</ele>
        <time>2006-07-09T11:50:43Z</time>
      </trkpt>
      <trkpt lat="45.920705795288086" lon="9.213559627532959">
        <ele>1405.104248046875</ele>
        <time>2006-07-09T11:51:01Z</time>
      </trkpt>
      <trkpt lat="45.920748710632324" lon="9.213645458221436">
        <ele>1396.932861328125</ele>
        <time>2006-07-09T11:51:21Z</time>
      </trkpt>
      <trkpt lat="45.92085599899292" lon="9.213838577270508">
        <ele>1392.12646484375</ele>
        <time>2006-07-09T11:51:37Z</time>
      </trkpt>
      <trkpt lat="45.920877456665039" lon="9.213988780975342">
        <ele>1389.72314453125</ele>
        <time>2006-07-09T11:51:52Z</time>
      </trkpt>
      <trkpt lat="45.920920372009277" lon="9.214010238647461">
        <ele>1382.99365234375</ele>
        <time>2006-07-09T11:52:14Z</time>
      </trkpt>
      <trkpt lat="45.921006202697754" lon="9.214181900024414">
        <ele>1382.99365234375</ele>
        <time>2006-07-09T11:52:39Z</time>
      </trkpt>
      <trkpt lat="45.921070575714111" lon="9.214267730712891">
        <ele>1380.10986328125</ele>
        <time>2006-07-09T11:53:06Z</time>
      </trkpt>
      <trkpt lat="45.921220779418945" lon="9.214417934417725">
        <ele>1378.187255859375</ele>
        <time>2006-07-09T11:53:27Z</time>
      </trkpt>
      <trkpt lat="45.921306610107422" lon="9.214632511138916">
        <ele>1374.82275390625</ele>
        <time>2006-07-09T11:53:53Z</time>
      </trkpt>
      <trkpt lat="45.921328067779541" lon="9.214632511138916">
        <ele>1366.170654296875</ele>
        <time>2006-07-09T11:54:12Z</time>
      </trkpt>
      <trkpt lat="45.921392440795898" lon="9.214675426483154">
        <ele>1365.690185546875</ele>
        <time>2006-07-09T11:54:37Z</time>
      </trkpt>
      <trkpt lat="45.921456813812256" lon="9.214911460876465">
        <ele>1360.40283203125</ele>
        <time>2006-07-09T11:55:21Z</time>
      </trkpt>
      <trkpt lat="45.921564102172852" lon="9.215061664581299">
        <ele>1355.59619140625</ele>
        <time>2006-07-09T11:55:47Z</time>
      </trkpt>
      <trkpt lat="45.92160701751709" lon="9.215126037597656">
        <ele>1346.4638671875</ele>
        <time>2006-07-09T11:56:16Z</time>
      </trkpt>
      <trkpt lat="45.921649932861328" lon="9.215211868286133">
        <ele>1342.137939453125</ele>
        <time>2006-07-09T11:56:31Z</time>
      </trkpt>
      <trkpt lat="45.921628475189209" lon="9.215297698974609">
        <ele>1339.734375</ele>
        <time>2006-07-09T11:56:43Z</time>
      </trkpt>
      <trkpt lat="45.921714305877686" lon="9.215319156646729">
        <ele>1336.850341796875</ele>
        <time>2006-07-09T11:56:58Z</time>
      </trkpt>
      <trkpt lat="45.921778678894043" lon="9.215362071990967">
        <ele>1331.082763671875</ele>
        <time>2006-07-09T11:57:10Z</time>
      </trkpt>
      <trkpt lat="45.921821594238281" lon="9.215426445007324">
        <ele>1326.276123046875</ele>
        <time>2006-07-09T11:57:23Z</time>
      </trkpt>
      <trkpt lat="45.921907424926758" lon="9.215512275695801">
        <ele>1322.4306640625</ele>
        <time>2006-07-09T11:57:39Z</time>
      </trkpt>
      <trkpt lat="45.921928882598877" lon="9.215555191040039">
        <ele>1318.104736328125</ele>
        <time>2006-07-09T11:57:49Z</time>
      </trkpt>
      <trkpt lat="45.921993255615234" lon="9.215683937072754">
        <ele>1314.740234375</ele>
        <time>2006-07-09T11:58:04Z</time>
      </trkpt>
      <trkpt lat="45.922036170959473" lon="9.215705394744873">
        <ele>1308.01123046875</ele>
        <time>2006-07-09T11:58:17Z</time>
      </trkpt>
      <trkpt lat="45.922079086303711" lon="9.215726852416992">
        <ele>1308.01123046875</ele>
        <time>2006-07-09T11:58:29Z</time>
      </trkpt>
      <trkpt lat="45.92210054397583" lon="9.21579122543335">
        <ele>1306.56884765625</ele>
        <time>2006-07-09T11:58:42Z</time>
      </trkpt>
      <trkpt lat="45.922122001647949" lon="9.215834140777588">
        <ele>1307.049560546875</ele>
        <time>2006-07-09T11:58:50Z</time>
      </trkpt>
      <trkpt lat="45.922207832336426" lon="9.215834140777588">
        <ele>1291.66845703125</ele>
        <time>2006-07-09T11:59:15Z</time>
      </trkpt>
      <trkpt lat="45.922186374664307" lon="9.215812683105469">
        <ele>1278.69091796875</ele>
        <time>2006-07-09T12:01:38Z</time>
      </trkpt>
      <trkpt lat="45.922186374664307" lon="9.215812683105469">
        <ele>1276.28759765625</ele>
        <time>2006-07-09T12:01:44Z</time>
      </trkpt>
      <trkpt lat="45.92235803604126" lon="9.215877056121826">
        <ele>1273.884033203125</ele>
        <time>2006-07-09T12:01:51Z</time>
      </trkpt>
      <trkpt lat="45.922379493713379" lon="9.216177463531494">
        <ele>1272.442138671875</ele>
        <time>2006-07-09T12:02:01Z</time>
      </trkpt>
      <trkpt lat="45.922443866729736" lon="9.216434955596924">
        <ele>1265.713134765625</ele>
        <time>2006-07-09T12:02:09Z</time>
      </trkpt>
      <trkpt lat="45.922529697418213" lon="9.216799736022949">
        <ele>1259.94482421875</ele>
        <time>2006-07-09T12:02:18Z</time>
      </trkpt>
      <trkpt lat="45.922572612762451" lon="9.216928482055664">
        <ele>1254.65771484375</ele>
        <time>2006-07-09T12:02:23Z</time>
      </trkpt>
      <trkpt lat="45.922679901123047" lon="9.216821193695068">
        <ele>1249.37060546875</ele>
        <time>2006-07-09T12:02:30Z</time>
      </trkpt>
      <trkpt lat="45.922701358795166" lon="9.21677827835083">
        <ele>1248.4091796875</ele>
        <time>2006-07-09T12:02:31Z</time>
      </trkpt>
      <trkpt lat="45.922915935516357" lon="9.216241836547852">
        <ele>1238.3154296875</ele>
        <time>2006-07-09T12:02:41Z</time>
      </trkpt>
      <trkpt lat="45.922958850860596" lon="9.216005802154541">
        <ele>1233.5087890625</ele>
        <time>2006-07-09T12:02:45Z</time>
      </trkpt>
      <trkpt lat="45.923044681549072" lon="9.216070175170898">
        <ele>1231.586181640625</ele>
        <time>2006-07-09T12:02:52Z</time>
      </trkpt>
      <trkpt lat="45.923130512237549" lon="9.216392040252686">
        <ele>1227.74072265625</ele>
        <time>2006-07-09T12:03:07Z</time>
      </trkpt>
      <trkpt lat="45.923151969909668" lon="9.216413497924805">
        <ele>1227.74072265625</ele>
        <time>2006-07-09T12:03:20Z</time>
      </trkpt>
      <trkpt lat="45.923151969909668" lon="9.216477870941162">
        <ele>1227.74072265625</ele>
        <time>2006-07-09T12:03:32Z</time>
      </trkpt>
      <trkpt lat="45.923216342926025" lon="9.216413497924805">
        <ele>1229.66357421875</ele>
        <time>2006-07-09T12:36:35Z</time>
      </trkpt>
      <trkpt lat="45.923130512237549" lon="9.216606616973877">
        <ele>1222.45361328125</ele>
        <time>2006-07-09T12:46:38Z</time>
      </trkpt>
      <trkpt lat="45.923151969909668" lon="9.216649532318115">
        <ele>1221.01171875</ele>
        <time>2006-07-09T12:46:40Z</time>
      </trkpt>
      <trkpt lat="45.923323631286621" lon="9.216885566711426">
        <ele>1214.282470703125</ele>
        <time>2006-07-09T12:46:48Z</time>
      </trkpt>
      <trkpt lat="45.923473834991455" lon="9.216992855072022">
        <ele>1209.475830078125</ele>
        <time>2006-07-09T12:46:56Z</time>
      </trkpt>
      <trkpt lat="45.923688411712646" lon="9.216992855072022">
        <ele>1205.630615234375</ele>
        <time>2006-07-09T12:47:05Z</time>
      </trkpt>
      <trkpt lat="45.923945903778076" lon="9.217057228088379">
        <ele>1203.227294921875</ele>
        <time>2006-07-09T12:47:14Z</time>
      </trkpt>
      <trkpt lat="45.924010276794434" lon="9.217121601104736">
        <ele>1204.188720703125</ele>
        <time>2006-07-09T12:47:20Z</time>
      </trkpt>
      <trkpt lat="45.924267768859863" lon="9.217228889465332">
        <ele>1204.188720703125</ele>
        <time>2006-07-09T12:47:32Z</time>
      </trkpt>
      <trkpt lat="45.924546718597412" lon="9.217400550842285">
        <ele>1202.74658203125</ele>
        <time>2006-07-09T12:47:37Z</time>
      </trkpt>
      <trkpt lat="45.924632549285889" lon="9.217422008514404">
        <ele>1203.227294921875</ele>
        <time>2006-07-09T12:47:41Z</time>
      </trkpt>
      <trkpt lat="45.924868583679199" lon="9.217572212219238">
        <ele>1202.265869140625</ele>
        <time>2006-07-09T12:47:55Z</time>
      </trkpt>
      <trkpt lat="45.92510461807251" lon="9.217593669891357">
        <ele>1197.940185546875</ele>
        <time>2006-07-09T12:48:02Z</time>
      </trkpt>
      <trkpt lat="45.925576686859131" lon="9.217658042907715">
        <ele>1193.13330078125</ele>
        <time>2006-07-09T12:48:10Z</time>
      </trkpt>
      <trkpt lat="45.925769805908203" lon="9.217679500579834">
        <ele>1191.69140625</ele>
        <time>2006-07-09T12:48:15Z</time>
      </trkpt>
      <trkpt lat="45.926027297973633" lon="9.217743873596191">
        <ele>1189.2880859375</ele>
        <time>2006-07-09T12:48:22Z</time>
      </trkpt>
      <trkpt lat="45.926134586334229" lon="9.217936992645264">
        <ele>1187.84619140625</ele>
        <time>2006-07-09T12:48:26Z</time>
      </trkpt>
      <trkpt lat="45.926134586334229" lon="9.218001365661621">
        <ele>1188.326904296875</ele>
        <time>2006-07-09T12:48:28Z</time>
      </trkpt>
      <trkpt lat="45.926198959350586" lon="9.218087196350098">
        <ele>1191.210693359375</ele>
        <time>2006-07-09T12:48:37Z</time>
      </trkpt>
      <trkpt lat="45.926241874694824" lon="9.218215942382813">
        <ele>1188.8076171875</ele>
        <time>2006-07-09T12:48:51Z</time>
      </trkpt>
      <trkpt lat="45.926434993743896" lon="9.218323230743408">
        <ele>1185.923583984375</ele>
        <time>2006-07-09T12:48:57Z</time>
      </trkpt>
      <trkpt lat="45.926928520202637" lon="9.2185378074646">
        <ele>1184.96240234375</ele>
        <time>2006-07-09T12:49:06Z</time>
      </trkpt>
      <trkpt lat="45.927894115447998" lon="9.218709468841553">
        <ele>1184.96240234375</ele>
        <time>2006-07-09T12:49:24Z</time>
      </trkpt>
      <trkpt lat="45.928022861480713" lon="9.218816757202148">
        <ele>1174.3876953125</ele>
        <time>2006-07-09T12:49:50Z</time>
      </trkpt>
      <trkpt lat="45.928645133972168" lon="9.218945503234863">
        <ele>1174.3876953125</ele>
        <time>2006-07-09T12:50:13Z</time>
      </trkpt>
      <trkpt lat="45.928924083709717" lon="9.218924045562744">
        <ele>1169.1005859375</ele>
        <time>2006-07-09T12:50:26Z</time>
      </trkpt>
      <trkpt lat="45.929203033447266" lon="9.219009876251221">
        <ele>1166.216552734375</ele>
        <time>2006-07-09T12:50:33Z</time>
      </trkpt>
      <trkpt lat="45.929524898529053" lon="9.219117164611816">
        <ele>1159.9677734375</ele>
        <time>2006-07-09T12:50:41Z</time>
      </trkpt>
      <trkpt lat="45.929696559906006" lon="9.219181537628174">
        <ele>1157.083984375</ele>
        <time>2006-07-09T12:50:48Z</time>
      </trkpt>
      <trkpt lat="45.929954051971436" lon="9.219310283660889">
        <ele>1153.719482421875</ele>
        <time>2006-07-09T12:50:56Z</time>
      </trkpt>
      <trkpt lat="45.929996967315674" lon="9.219331741333008">
        <ele>1153.719482421875</ele>
        <time>2006-07-09T12:50:58Z</time>
      </trkpt>
      <trkpt lat="45.930447578430176" lon="9.219546318054199">
        <ele>1149.3935546875</ele>
        <time>2006-07-09T12:51:11Z</time>
      </trkpt>
      <trkpt lat="45.930747985839844" lon="9.219696521759033">
        <ele>1143.62548828125</ele>
        <time>2006-07-09T12:51:24Z</time>
      </trkpt>
      <trkpt lat="45.930790901184082" lon="9.219696521759033">
        <ele>1138.819091796875</ele>
        <time>2006-07-09T12:51:30Z</time>
      </trkpt>
      <trkpt lat="45.930984020233154" lon="9.219717979431152">
        <ele>1133.53173828125</ele>
        <time>2006-07-09T12:51:43Z</time>
      </trkpt>
      <trkpt lat="45.931155681610107" lon="9.219954013824463">
        <ele>1130.1669921875</ele>
        <time>2006-07-09T12:51:54Z</time>
      </trkpt>
      <trkpt lat="45.931520462036133" lon="9.220404624938965">
        <ele>1125.841064453125</ele>
        <time>2006-07-09T12:52:23Z</time>
      </trkpt>
      <trkpt lat="45.931606292724609" lon="9.220490455627441">
        <ele>1121.995849609375</ele>
        <time>2006-07-09T12:52:32Z</time>
      </trkpt>
      <trkpt lat="45.931906700134277" lon="9.220468997955322">
        <ele>1117.669921875</ele>
        <time>2006-07-09T12:52:55Z</time>
      </trkpt>
      <trkpt lat="45.931971073150635" lon="9.220447540283203">
        <ele>1115.747314453125</ele>
        <time>2006-07-09T12:52:59Z</time>
      </trkpt>
      <trkpt lat="45.932207107543945" lon="9.220447540283203">
        <ele>1113.824462890625</ele>
        <time>2006-07-09T12:53:11Z</time>
      </trkpt>
      <trkpt lat="45.932507514953613" lon="9.220554828643799">
        <ele>1107.576171875</ele>
        <time>2006-07-09T12:53:26Z</time>
      </trkpt>
      <trkpt lat="45.932786464691162" lon="9.22053337097168">
        <ele>1104.692138671875</ele>
        <time>2006-07-09T12:53:34Z</time>
      </trkpt>
      <trkpt lat="45.933065414428711" lon="9.220619201660156">
        <ele>1100.366455078125</ele>
        <time>2006-07-09T12:53:47Z</time>
      </trkpt>
      <trkpt lat="45.933451652526855" lon="9.220597743988037">
        <ele>1095.5595703125</ele>
        <time>2006-07-09T12:54:01Z</time>
      </trkpt>
      <trkpt lat="45.933666229248047" lon="9.220662117004395">
        <ele>1087.388427734375</ele>
        <time>2006-07-09T12:54:13Z</time>
      </trkpt>
      <trkpt lat="45.933730602264404" lon="9.220747947692871">
        <ele>1079.69775390625</ele>
        <time>2006-07-09T12:54:47Z</time>
      </trkpt>
      <trkpt lat="45.933837890625" lon="9.220812320709229">
        <ele>1077.294677734375</ele>
        <time>2006-07-09T12:54:53Z</time>
      </trkpt>
      <trkpt lat="45.933859348297119" lon="9.220812320709229">
        <ele>1077.294677734375</ele>
        <time>2006-07-09T12:55:02Z</time>
      </trkpt>
      <trkpt lat="45.933945178985596" lon="9.220941066741943">
        <ele>1075.371826171875</ele>
        <time>2006-07-09T12:55:06Z</time>
      </trkpt>
      <trkpt lat="45.934052467346191" lon="9.221048355102539">
        <ele>1072.488037109375</ele>
        <time>2006-07-09T12:55:10Z</time>
      </trkpt>
      <trkpt lat="45.934352874755859" lon="9.221262931823731">
        <ele>1068.642822265625</ele>
        <time>2006-07-09T12:55:17Z</time>
      </trkpt>
      <trkpt lat="45.934374332427979" lon="9.221391677856445">
        <ele>1065.7587890625</ele>
        <time>2006-07-09T12:55:20Z</time>
      </trkpt>
      <trkpt lat="45.934739112854004" lon="9.221863746643066">
        <ele>1056.626220703125</ele>
        <time>2006-07-09T12:55:29Z</time>
      </trkpt>
      <trkpt lat="45.935125350952148" lon="9.222249984741211">
        <ele>1051.3388671875</ele>
        <time>2006-07-09T12:55:36Z</time>
      </trkpt>
      <trkpt lat="45.935232639312744" lon="9.222486019134522">
        <ele>1047.012939453125</ele>
        <time>2006-07-09T12:55:41Z</time>
      </trkpt>
      <trkpt lat="45.935404300689697" lon="9.222593307495117">
        <ele>1045.571044921875</ele>
        <time>2006-07-09T12:55:44Z</time>
      </trkpt>
      <trkpt lat="45.935511589050293" lon="9.22276496887207">
        <ele>1043.167724609375</ele>
        <time>2006-07-09T12:55:47Z</time>
      </trkpt>
      <trkpt lat="45.935704708099365" lon="9.223151206970215">
        <ele>1042.687255859375</ele>
        <time>2006-07-09T12:55:52Z</time>
      </trkpt>
      <trkpt lat="45.935983657836914" lon="9.223430156707764">
        <ele>1041.725830078125</ele>
        <time>2006-07-09T12:56:00Z</time>
      </trkpt>
      <trkpt lat="45.936026573181152" lon="9.223451614379883">
        <ele>1038.361328125</ele>
        <time>2006-07-09T12:56:06Z</time>
      </trkpt>
      <trkpt lat="45.93609094619751" lon="9.22351598739624">
        <ele>1022.018798828125</ele>
        <time>2006-07-09T12:56:42Z</time>
      </trkpt>
      <trkpt lat="45.936133861541748" lon="9.22351598739624">
        <ele>1017.212158203125</ele>
        <time>2006-07-09T12:57:01Z</time>
      </trkpt>
      <trkpt lat="45.936155319213867" lon="9.22351598739624">
        <ele>1016.7314453125</ele>
        <time>2006-07-09T12:57:07Z</time>
      </trkpt>
      <trkpt lat="45.936262607574463" lon="9.223408699035645">
        <ele>1014.808837890625</ele>
        <time>2006-07-09T12:57:15Z</time>
      </trkpt>
      <trkpt lat="45.93632698059082" lon="9.223365783691406">
        <ele>1012.405517578125</ele>
        <time>2006-07-09T12:57:19Z</time>
      </trkpt>
      <trkpt lat="45.936412811279297" lon="9.223301410675049">
        <ele>1011.4443359375</ele>
        <time>2006-07-09T12:57:25Z</time>
      </trkpt>
      <trkpt lat="45.936498641967773" lon="9.223108291625977">
        <ele>1007.118408203125</ele>
        <time>2006-07-09T12:57:39Z</time>
      </trkpt>
      <trkpt lat="45.936541557312012" lon="9.223065376281738">
        <ele>1000.86962890625</ele>
        <time>2006-07-09T12:57:49Z</time>
      </trkpt>
      <trkpt lat="45.936563014984131" lon="9.2230224609375">
        <ele>998.46630859375</ele>
        <time>2006-07-09T12:57:59Z</time>
      </trkpt>
      <trkpt lat="45.93658447265625" lon="9.2230224609375">
        <ele>998.46630859375</ele>
        <time>2006-07-09T12:58:27Z</time>
      </trkpt>
      <trkpt lat="45.936627388000488" lon="9.222936630249023">
        <ele>995.58251953125</ele>
        <time>2006-07-09T12:58:44Z</time>
      </trkpt>
      <trkpt lat="45.936691761016846" lon="9.22278642654419">
        <ele>995.58251953125</ele>
        <time>2006-07-09T12:59:01Z</time>
      </trkpt>
      <trkpt lat="45.936734676361084" lon="9.222593307495117">
        <ele>995.58251953125</ele>
        <time>2006-07-09T12:59:18Z</time>
      </trkpt>
      <trkpt lat="45.936799049377441" lon="9.222464561462402">
        <ele>995.101806640625</ele>
        <time>2006-07-09T12:59:32Z</time>
      </trkpt>
      <trkpt lat="45.93707799911499" lon="9.222121238708496">
        <ele>991.256591796875</ele>
        <time>2006-07-09T12:59:50Z</time>
      </trkpt>
      <trkpt lat="45.937442779541016" lon="9.221799373626709">
        <ele>990.77587890625</ele>
        <time>2006-07-09T13:00:08Z</time>
      </trkpt>
      <trkpt lat="45.937850475311279" lon="9.221563339233398">
        <ele>990.77587890625</ele>
        <time>2006-07-09T13:00:24Z</time>
      </trkpt>
      <trkpt lat="45.937914848327637" lon="9.22152042388916">
        <ele>990.77587890625</ele>
        <time>2006-07-09T13:00:27Z</time>
      </trkpt>
      <trkpt lat="45.93808650970459" lon="9.221370220184326">
        <ele>987.4111328125</ele>
        <time>2006-07-09T13:00:39Z</time>
      </trkpt>
      <trkpt lat="45.9383225440979" lon="9.221048355102539">
        <ele>978.27880859375</ele>
        <time>2006-07-09T13:00:56Z</time>
      </trkpt>
      <trkpt lat="45.9383225440979" lon="9.221048355102539">
        <ele>973.952880859375</ele>
        <time>2006-07-09T13:00:59Z</time>
      </trkpt>
      <trkpt lat="45.938365459442139" lon="9.220898151397705">
        <ele>958.57177734375</ele>
        <time>2006-07-09T13:01:13Z</time>
      </trkpt>
      <trkpt lat="45.938472747802734" lon="9.220855236053467">
        <ele>949.919921875</ele>
        <time>2006-07-09T13:01:34Z</time>
      </trkpt>
      <trkpt lat="45.938515663146973" lon="9.220812320709229">
        <ele>949.919921875</ele>
        <time>2006-07-09T13:01:40Z</time>
      </trkpt>
      <trkpt lat="45.938708782196045" lon="9.220705032348633">
        <ele>949.439208984375</ele>
        <time>2006-07-09T13:01:55Z</time>
      </trkpt>
      <trkpt lat="45.938880443572998" lon="9.220705032348633">
        <ele>944.152099609375</ele>
        <time>2006-07-09T13:02:11Z</time>
      </trkpt>
      <trkpt lat="45.938966274261475" lon="9.220662117004395">
        <ele>939.825927734375</ele>
        <time>2006-07-09T13:02:21Z</time>
      </trkpt>
      <trkpt lat="45.938987731933594" lon="9.220597743988037">
        <ele>938.86474609375</ele>
        <time>2006-07-09T13:02:40Z</time>
      </trkpt>
      <trkpt lat="45.93907356262207" lon="9.220554828643799">
        <ele>938.86474609375</ele>
        <time>2006-07-09T13:02:58Z</time>
      </trkpt>
      <trkpt lat="45.939288139343262" lon="9.220447540283203">
        <ele>937.9033203125</ele>
        <time>2006-07-09T13:03:25Z</time>
      </trkpt>
      <trkpt lat="45.939395427703857" lon="9.220404624938965">
        <ele>935.980712890625</ele>
        <time>2006-07-09T13:03:54Z</time>
      </trkpt>
      <trkpt lat="45.939481258392334" lon="9.220361709594727">
        <ele>935.980712890625</ele>
        <time>2006-07-09T13:04:11Z</time>
      </trkpt>
      <trkpt lat="45.939652919769287" lon="9.22027587890625">
        <ele>932.135498046875</ele>
        <time>2006-07-09T13:04:25Z</time>
      </trkpt>
      <trkpt lat="45.939695835113525" lon="9.22027587890625">
        <ele>931.65478515625</ele>
        <time>2006-07-09T13:04:37Z</time>
      </trkpt>
      <trkpt lat="45.939846038818359" lon="9.220168590545654">
        <ele>929.25146484375</ele>
        <time>2006-07-09T13:04:56Z</time>
      </trkpt>
      <trkpt lat="45.939996242523193" lon="9.220104217529297">
        <ele>927.3291015625</ele>
        <time>2006-07-09T13:05:11Z</time>
      </trkpt>
      <trkpt lat="45.940039157867432" lon="9.220168590545654">
        <ele>925.40625</ele>
        <time>2006-07-09T13:05:28Z</time>
      </trkpt>
      <trkpt lat="45.940124988555908" lon="9.220211505889893">
        <ele>922.522216796875</ele>
        <time>2006-07-09T13:05:39Z</time>
      </trkpt>
      <trkpt lat="45.940275192260742" lon="9.220318794250488">
        <ele>921.080322265625</ele>
        <time>2006-07-09T13:06:01Z</time>
      </trkpt>
      <trkpt lat="45.9403395652771" lon="9.220318794250488">
        <ele>920.118896484375</ele>
        <time>2006-07-09T13:06:17Z</time>
      </trkpt>
      <trkpt lat="45.940468311309814" lon="9.220190048217773">
        <ele>919.638427734375</ele>
        <time>2006-07-09T13:06:38Z</time>
      </trkpt>
      <trkpt lat="45.940597057342529" lon="9.220061302185059">
        <ele>919.15771484375</ele>
        <time>2006-07-09T13:06:57Z</time>
      </trkpt>
      <trkpt lat="45.940897464752197" lon="9.219825267791748">
        <ele>918.677001953125</ele>
        <time>2006-07-09T13:07:15Z</time>
      </trkpt>
      <trkpt lat="45.941176414489746" lon="9.219717979431152">
        <ele>916.273681640625</ele>
        <time>2006-07-09T13:07:31Z</time>
      </trkpt>
      <trkpt lat="45.941455364227295" lon="9.219653606414795">
        <ele>911.947998046875</ele>
        <time>2006-07-09T13:07:49Z</time>
      </trkpt>
      <trkpt lat="45.941755771636963" lon="9.219503402709961">
        <ele>905.218505859375</ele>
        <time>2006-07-09T13:08:10Z</time>
      </trkpt>
      <trkpt lat="45.941948890686035" lon="9.21928882598877">
        <ele>898.969970703125</ele>
        <time>2006-07-09T13:08:29Z</time>
      </trkpt>
      <trkpt lat="45.941948890686035" lon="9.21928882598877">
        <ele>898.969970703125</ele>
        <time>2006-07-09T13:08:34Z</time>
      </trkpt>
      <trkpt lat="45.941712856292725" lon="9.219353199005127">
        <ele>875.41748046875</ele>
        <time>2006-07-09T13:08:47Z</time>
      </trkpt>
      <trkpt lat="45.941863059997559" lon="9.219224452972412">
        <ele>875.41748046875</ele>
        <time>2006-07-09T13:08:51Z</time>
      </trkpt>
      <trkpt lat="45.941948890686035" lon="9.218924045562744">
        <ele>869.169189453125</ele>
        <time>2006-07-09T13:09:06Z</time>
      </trkpt>
      <trkpt lat="45.941970348358154" lon="9.218430519104004">
        <ele>865.8046875</ele>
        <time>2006-07-09T13:09:33Z</time>
      </trkpt>
      <trkpt lat="45.941948890686035" lon="9.218301773071289">
        <ele>862.920654296875</ele>
        <time>2006-07-09T13:09:53Z</time>
      </trkpt>
      <trkpt lat="45.941927433013916" lon="9.218108654022217">
        <ele>861.95947265625</ele>
        <time>2006-07-09T13:10:14Z</time>
      </trkpt>
      <trkpt lat="45.941863059997559" lon="9.218044281005859">
        <ele>850.904052734375</ele>
        <time>2006-07-09T13:10:24Z</time>
      </trkpt>
      <trkpt lat="45.942056179046631" lon="9.217936992645264">
        <ele>842.252197265625</ele>
        <time>2006-07-09T13:10:34Z</time>
      </trkpt>
      <trkpt lat="45.941605567932129" lon="9.217679500579834">
        <ele>830.716552734375</ele>
        <time>2006-07-09T13:10:42Z</time>
      </trkpt>
      <trkpt lat="45.941669940948486" lon="9.217636585235596">
        <ele>829.755126953125</ele>
        <time>2006-07-09T13:10:46Z</time>
      </trkpt>
      <trkpt lat="45.941927433013916" lon="9.21727180480957">
        <ele>826.87109375</ele>
        <time>2006-07-09T13:11:01Z</time>
      </trkpt>
      <trkpt lat="45.941927433013916" lon="9.217336177825928">
        <ele>825.90966796875</ele>
        <time>2006-07-09T13:11:14Z</time>
      </trkpt>
      <trkpt lat="45.941991806030273" lon="9.217250347137451">
        <ele>822.064453125</ele>
        <time>2006-07-09T13:11:44Z</time>
      </trkpt>
      <trkpt lat="45.942206382751465" lon="9.216992855072022">
        <ele>821.583740234375</ele>
        <time>2006-07-09T13:11:59Z</time>
      </trkpt>
      <trkpt lat="45.942270755767822" lon="9.216907024383545">
        <ele>806.683349609375</ele>
        <time>2006-07-09T13:12:17Z</time>
      </trkpt>
      <trkpt lat="45.942270755767822" lon="9.216842651367188">
        <ele>802.838134765625</ele>
        <time>2006-07-09T13:12:40Z</time>
      </trkpt>
      <trkpt lat="45.942356586456299" lon="9.216756820678711">
        <ele>790.821533203125</ele>
        <time>2006-07-09T13:13:12Z</time>
      </trkpt>
      <trkpt lat="45.942378044128418" lon="9.216756820678711">
        <ele>785.053955078125</ele>
        <time>2006-07-09T13:13:29Z</time>
      </trkpt>
      <trkpt lat="45.942463874816895" lon="9.21677827835083">
        <ele>781.689208984375</ele>
        <time>2006-07-09T13:13:41Z</time>
      </trkpt>
      <trkpt lat="45.942635536193848" lon="9.216628074645996">
        <ele>774.479248046875</ele>
        <time>2006-07-09T13:13:56Z</time>
      </trkpt>
      <trkpt lat="45.942871570587158" lon="9.216670989990234">
        <ele>761.982177734375</ele>
        <time>2006-07-09T13:14:11Z</time>
      </trkpt>
      <trkpt lat="45.943129062652588" lon="9.216756820678711">
        <ele>759.578857421875</ele>
        <time>2006-07-09T13:14:26Z</time>
      </trkpt>
      <trkpt lat="45.943279266357422" lon="9.216606616973877">
        <ele>757.65625</ele>
        <time>2006-07-09T13:14:40Z</time>
      </trkpt>
      <trkpt lat="45.943236351013184" lon="9.216113090515137">
        <ele>757.175537109375</ele>
        <time>2006-07-09T13:14:58Z</time>
      </trkpt>
      <trkpt lat="45.94306468963623" lon="9.215598106384277">
        <ele>752.849609375</ele>
        <time>2006-07-09T13:15:15Z</time>
      </trkpt>
      <trkpt lat="45.94306468963623" lon="9.21527624130249">
        <ele>749.485107421875</ele>
        <time>2006-07-09T13:15:30Z</time>
      </trkpt>
      <trkpt lat="45.94308614730835" lon="9.215254783630371">
        <ele>749.485107421875</ele>
        <time>2006-07-09T13:15:33Z</time>
      </trkpt>
      <trkpt lat="45.943150520324707" lon="9.215126037597656">
        <ele>748.523681640625</ele>
        <time>2006-07-09T13:15:53Z</time>
      </trkpt>
      <trkpt lat="45.943150520324707" lon="9.215126037597656">
        <ele>740.3525390625</ele>
        <time>2006-07-09T13:16:33Z</time>
      </trkpt>
      <trkpt lat="45.943129062652588" lon="9.214975833892822">
        <ele>728.3359375</ele>
        <time>2006-07-09T13:16:54Z</time>
      </trkpt>
      <trkpt lat="45.943129062652588" lon="9.214868545532227">
        <ele>727.374755859375</ele>
        <time>2006-07-09T13:17:04Z</time>
      </trkpt>
      <trkpt lat="45.943000316619873" lon="9.214868545532227">
        <ele>689.402587890625</ele>
        <time>2006-07-09T13:18:30Z</time>
      </trkpt>
      <trkpt lat="45.942935943603516" lon="9.214847087860107">
        <ele>677.38623046875</ele>
        <time>2006-07-09T13:18:46Z</time>
      </trkpt>
      <trkpt lat="45.942978858947754" lon="9.214696884155273">
        <ele>668.253662109375</ele>
        <time>2006-07-09T13:20:58Z</time>
      </trkpt>
      <trkpt lat="45.94308614730835" lon="9.214632511138916">
        <ele>666.8115234375</ele>
        <time>2006-07-09T13:21:17Z</time>
      </trkpt>
      <trkpt lat="45.943043231964111" lon="9.214653968811035">
        <ele>661.5244140625</ele>
        <time>2006-07-09T13:21:39Z</time>
      </trkpt>
      <trkpt lat="45.943043231964111" lon="9.214632511138916">
        <ele>658.640380859375</ele>
        <time>2006-07-09T13:22:00Z</time>
      </trkpt>
      <trkpt lat="45.943021774291992" lon="9.214632511138916">
        <ele>662.005126953125</ele>
        <time>2006-07-09T13:22:34Z</time>
      </trkpt>
      <trkpt lat="45.943129062652588" lon="9.214632511138916">
        <ele>657.67919921875</ele>
        <time>2006-07-09T13:23:30Z</time>
      </trkpt>
      <trkpt lat="45.943300724029541" lon="9.214611053466797">
        <ele>658.159912109375</ele>
        <time>2006-07-09T13:23:45Z</time>
      </trkpt>
      <trkpt lat="45.943493843078613" lon="9.214611053466797">
        <ele>645.66259765625</ele>
        <time>2006-07-09T13:24:29Z</time>
      </trkpt>
      <trkpt lat="45.94357967376709" lon="9.214611053466797">
        <ele>643.25927734375</ele>
        <time>2006-07-09T13:24:41Z</time>
      </trkpt>
      <trkpt lat="45.943708419799805" lon="9.214568138122559">
        <ele>642.298095703125</ele>
        <time>2006-07-09T13:24:58Z</time>
      </trkpt>
      <trkpt lat="45.943880081176758" lon="9.214568138122559">
        <ele>641.336669921875</ele>
        <time>2006-07-09T13:25:12Z</time>
      </trkpt>
      <trkpt lat="45.944008827209473" lon="9.21454668045044">
        <ele>639.4140625</ele>
        <time>2006-07-09T13:25:23Z</time>
      </trkpt>
      <trkpt lat="45.944223403930664" lon="9.214568138122559">
        <ele>633.165283203125</ele>
        <time>2006-07-09T13:25:36Z</time>
      </trkpt>
      <trkpt lat="45.944223403930664" lon="9.214460849761963">
        <ele>630.76220703125</ele>
        <time>2006-07-09T13:25:50Z</time>
      </trkpt>
      <trkpt lat="45.944223403930664" lon="9.214439392089844">
        <ele>630.76220703125</ele>
        <time>2006-07-09T13:25:51Z</time>
      </trkpt>
      <trkpt lat="45.944030284881592" lon="9.214203357696533">
        <ele>629.80078125</ele>
        <time>2006-07-09T13:26:22Z</time>
      </trkpt>
      <trkpt lat="45.943987369537354" lon="9.214181900024414">
        <ele>628.839599609375</ele>
        <time>2006-07-09T13:26:39Z</time>
      </trkpt>
      <trkpt lat="45.943987369537354" lon="9.214117527008057">
        <ele>628.839599609375</ele>
        <time>2006-07-09T13:26:41Z</time>
      </trkpt>
      <trkpt lat="45.9438157081604" lon="9.213731288909912">
        <ele>628.839599609375</ele>
        <time>2006-07-09T13:27:00Z</time>
      </trkpt>
      <trkpt lat="45.943729877471924" lon="9.21353816986084">
        <ele>627.397705078125</ele>
        <time>2006-07-09T13:27:22Z</time>
      </trkpt>
      <trkpt lat="45.943601131439209" lon="9.213345050811768">
        <ele>626.9169921875</ele>
        <time>2006-07-09T13:27:37Z</time>
      </trkpt>
      <trkpt lat="45.943021774291992" lon="9.212379455566406">
        <ele>624.032958984375</ele>
        <time>2006-07-09T13:28:08Z</time>
      </trkpt>
      <trkpt lat="45.943000316619873" lon="9.21229362487793">
        <ele>612.4970703125</ele>
        <time>2006-07-09T13:28:20Z</time>
      </trkpt>
      <trkpt lat="45.943043231964111" lon="9.212229251861572">
        <ele>601.922607421875</ele>
        <time>2006-07-09T13:28:33Z</time>
      </trkpt>
      <trkpt lat="45.94308614730835" lon="9.212207794189453">
        <ele>599.03857421875</ele>
        <time>2006-07-09T13:28:42Z</time>
      </trkpt>
      <trkpt lat="45.943214893341064" lon="9.212143421173096">
        <ele>595.674072265625</ele>
        <time>2006-07-09T13:28:57Z</time>
      </trkpt>
      <trkpt lat="45.943408012390137" lon="9.2120361328125">
        <ele>594.712646484375</ele>
        <time>2006-07-09T13:29:32Z</time>
      </trkpt>
      <trkpt lat="45.943171977996826" lon="9.211499691009522">
        <ele>595.193359375</ele>
        <time>2006-07-09T13:29:59Z</time>
      </trkpt>
      <trkpt lat="45.943021774291992" lon="9.211006164550781">
        <ele>587.02197265625</ele>
        <time>2006-07-09T13:30:17Z</time>
      </trkpt>
      <trkpt lat="45.943021774291992" lon="9.210834503173828">
        <ele>580.29296875</ele>
        <time>2006-07-09T13:30:27Z</time>
      </trkpt>
      <trkpt lat="45.942978858947754" lon="9.210727214813232">
        <ele>573.56396484375</ele>
        <time>2006-07-09T13:30:38Z</time>
      </trkpt>
      <trkpt lat="45.942914485931396" lon="9.21053409576416">
        <ele>567.315185546875</ele>
        <time>2006-07-09T13:30:51Z</time>
      </trkpt>
      <trkpt lat="45.94282865524292" lon="9.210233688354492">
        <ele>566.83447265625</ele>
        <time>2006-07-09T13:31:05Z</time>
      </trkpt>
      <trkpt lat="45.942764282226563" lon="9.210169315338135">
        <ele>566.353759765625</ele>
        <time>2006-07-09T13:31:18Z</time>
      </trkpt>
      <trkpt lat="45.942764282226563" lon="9.21004056930542">
        <ele>563.469970703125</ele>
        <time>2006-07-09T13:31:35Z</time>
      </trkpt>
      <trkpt lat="45.942785739898682" lon="9.209997653961182">
        <ele>535.591552734375</ele>
        <time>2006-07-09T13:31:57Z</time>
      </trkpt>
      <trkpt lat="45.942785739898682" lon="9.209954738616943">
        <ele>529.3431396484375</ele>
        <time>2006-07-09T13:32:09Z</time>
      </trkpt>
      <trkpt lat="45.942807197570801" lon="9.209933280944824">
        <ele>527.42041015625</ele>
        <time>2006-07-09T13:32:11Z</time>
      </trkpt>
      <trkpt lat="45.942978858947754" lon="9.209611415863037">
        <ele>518.7685546875</ele>
        <time>2006-07-09T13:32:28Z</time>
      </trkpt>
      <trkpt lat="45.943021774291992" lon="9.20954704284668">
        <ele>508.6746826171875</ele>
        <time>2006-07-09T13:32:41Z</time>
      </trkpt>
      <trkpt lat="45.943021774291992" lon="9.209525585174561">
        <ele>500.984130859375</ele>
        <time>2006-07-09T13:32:57Z</time>
      </trkpt>
      <trkpt lat="45.943129062652588" lon="9.209740161895752">
        <ele>500.02294921875</ele>
        <time>2006-07-09T13:33:14Z</time>
      </trkpt>
      <trkpt lat="45.943107604980469" lon="9.209804534912109">
        <ele>500.02294921875</ele>
        <time>2006-07-09T13:33:27Z</time>
      </trkpt>
      <trkpt lat="45.943107604980469" lon="9.209740161895752">
        <ele>499.542236328125</ele>
        <time>2006-07-09T13:33:52Z</time>
      </trkpt>
      <trkpt lat="45.943193435668945" lon="9.209589958190918">
        <ele>498.5809326171875</ele>
        <time>2006-07-09T13:34:07Z</time>
      </trkpt>
      <trkpt lat="45.943236351013184" lon="9.209525585174561">
        <ele>498.5809326171875</ele>
        <time>2006-07-09T13:34:17Z</time>
      </trkpt>
      <trkpt lat="45.943386554718018" lon="9.209396839141846">
        <ele>490.890380859375</ele>
        <time>2006-07-09T13:34:31Z</time>
      </trkpt>
      <trkpt lat="45.943472385406494" lon="9.209375381469727">
        <ele>484.1611328125</ele>
        <time>2006-07-09T13:34:51Z</time>
      </trkpt>
      <trkpt lat="45.943644046783447" lon="9.209225177764893">
        <ele>479.8350830078125</ele>
        <time>2006-07-09T13:35:03Z</time>
      </trkpt>
      <trkpt lat="45.9438157081604" lon="9.209074974060059">
        <ele>475.0286865234375</ele>
        <time>2006-07-09T13:35:20Z</time>
      </trkpt>
      <trkpt lat="45.943858623504639" lon="9.20905351638794">
        <ele>471.6639404296875</ele>
        <time>2006-07-09T13:35:34Z</time>
      </trkpt>
      <trkpt lat="45.943922996520996" lon="9.209096431732178">
        <ele>468.29931640625</ele>
        <time>2006-07-09T13:36:03Z</time>
      </trkpt>
      <trkpt lat="45.944030284881592" lon="9.20905351638794">
        <ele>458.6861572265625</ele>
        <time>2006-07-09T13:36:15Z</time>
      </trkpt>
      <trkpt lat="45.94407320022583" lon="9.208946228027344">
        <ele>455.80224609375</ele>
        <time>2006-07-09T13:36:31Z</time>
      </trkpt>
      <trkpt lat="45.944159030914307" lon="9.208774566650391">
        <ele>449.5537109375</ele>
        <time>2006-07-09T13:36:48Z</time>
      </trkpt>
      <trkpt lat="45.944137573242188" lon="9.208753108978272">
        <ele>449.5537109375</ele>
        <time>2006-07-09T13:36:55Z</time>
      </trkpt>
      <trkpt lat="45.944094657897949" lon="9.208731651306152">
        <ele>449.5537109375</ele>
        <time>2006-07-09T13:36:58Z</time>
      </trkpt>
      <trkpt lat="45.943858623504639" lon="9.208559989929199">
        <ele>449.5537109375</ele>
        <time>2006-07-09T13:37:05Z</time>
      </trkpt>
      <trkpt lat="45.94332218170166" lon="9.208645820617676">
        <ele>449.5537109375</ele>
        <time>2006-07-09T13:37:20Z</time>
      </trkpt>
      <trkpt lat="45.943257808685303" lon="9.208366870880127">
        <ele>446.1890869140625</ele>
        <time>2006-07-09T13:39:28Z</time>
      </trkpt>
      <trkpt lat="45.943193435668945" lon="9.20828104019165">
        <ele>445.7083740234375</ele>
        <time>2006-07-09T13:39:48Z</time>
      </trkpt>
      <trkpt lat="45.943171977996826" lon="9.208195209503174">
        <ele>444.7470703125</ele>
        <time>2006-07-09T13:39:57Z</time>
      </trkpt>
      <trkpt lat="45.943214893341064" lon="9.208002090454102">
        <ele>443.3050537109375</ele>
        <time>2006-07-09T13:40:09Z</time>
      </trkpt>
      <trkpt lat="45.943300724029541" lon="9.207873344421387">
        <ele>440.90185546875</ele>
        <time>2006-07-09T13:40:25Z</time>
      </trkpt>
      <trkpt lat="45.943343639373779" lon="9.207830429077148">
        <ele>440.4212646484375</ele>
        <time>2006-07-09T13:40:35Z</time>
      </trkpt>
      <trkpt lat="45.943408012390137" lon="9.20778751373291">
        <ele>439.9404296875</ele>
        <time>2006-07-09T13:40:41Z</time>
      </trkpt>
      <trkpt lat="45.943751335144043" lon="9.207658767700195">
        <ele>438.9791259765625</ele>
        <time>2006-07-09T13:40:49Z</time>
      </trkpt>
      <trkpt lat="45.944116115570068" lon="9.207465648651123">
        <ele>438.49853515625</ele>
        <time>2006-07-09T13:41:00Z</time>
      </trkpt>
      <trkpt lat="45.944716930389404" lon="9.20729398727417">
        <ele>438.49853515625</ele>
        <time>2006-07-09T13:41:13Z</time>
      </trkpt>
      <trkpt lat="45.944867134094238" lon="9.207315444946289">
        <ele>436.09521484375</ele>
        <time>2006-07-09T13:41:26Z</time>
      </trkpt>
      <trkpt lat="45.945274829864502" lon="9.207251071929932">
        <ele>435.1339111328125</ele>
        <time>2006-07-09T13:41:36Z</time>
      </trkpt>
      <trkpt lat="45.945489406585693" lon="9.207100868225098">
        <ele>337.56005859375</ele>
        <time>2006-07-09T13:41:45Z</time>
      </trkpt>
      <trkpt lat="45.945532321929932" lon="9.206929206848145">
        <ele>336.598876953125</ele>
        <time>2006-07-09T13:41:51Z</time>
      </trkpt>
      <trkpt lat="45.945510864257813" lon="9.206821918487549">
        <ele>336.598876953125</ele>
        <time>2006-07-09T13:42:01Z</time>
      </trkpt>
      <trkpt lat="45.945510864257813" lon="9.206757545471191">
        <ele>337.0794677734375</ele>
        <time>2006-07-09T13:42:14Z</time>
      </trkpt>
      <trkpt lat="45.945746898651123" lon="9.206628799438477">
        <ele>335.6373291015625</ele>
        <time>2006-07-09T13:42:26Z</time>
      </trkpt>
      <trkpt lat="45.94581127166748" lon="9.206628799438477">
        <ele>334.1954345703125</ele>
        <time>2006-07-09T13:42:29Z</time>
      </trkpt>
      <trkpt lat="45.945897102355957" lon="9.206907749176025">
        <ele>329.8695068359375</ele>
        <time>2006-07-09T13:42:38Z</time>
      </trkpt>
      <trkpt lat="45.946176052093506" lon="9.206779003143311">
        <ele>327.94677734375</ele>
        <time>2006-07-09T13:42:47Z</time>
      </trkpt>
      <trkpt lat="45.946347713470459" lon="9.206693172454834">
        <ele>327.94677734375</ele>
        <time>2006-07-09T13:42:52Z</time>
      </trkpt>
      <trkpt lat="45.946369171142578" lon="9.206156730651856">
        <ele>326.985595703125</ele>
        <time>2006-07-09T13:43:02Z</time>
      </trkpt>
      <trkpt lat="45.94632625579834" lon="9.205191135406494">
        <ele>326.985595703125</ele>
        <time>2006-07-09T13:43:17Z</time>
      </trkpt>
      <trkpt lat="45.946240425109863" lon="9.204139709472656">
        <ele>326.5048828125</ele>
        <time>2006-07-09T13:43:34Z</time>
      </trkpt>
      <trkpt lat="45.946240425109863" lon="9.20405387878418">
        <ele>326.024169921875</ele>
        <time>2006-07-09T13:43:41Z</time>
      </trkpt>
      <trkpt lat="45.946240425109863" lon="9.20405387878418">
        <ele>308.2398681640625</ele>
        <time>2006-07-09T13:44:00Z</time>
      </trkpt>
      <trkpt lat="45.946433544158936" lon="9.204182624816895">
        <ele>297.6654052734375</ele>
        <time>2006-07-09T13:44:11Z</time>
      </trkpt>
      <trkpt lat="45.946755409240723" lon="9.204397201538086">
        <ele>289.974853515625</ele>
        <time>2006-07-09T13:44:25Z</time>
      </trkpt>
      <trkpt lat="45.94707727432251" lon="9.204869270324707">
        <ele>280.3616943359375</ele>
        <time>2006-07-09T13:44:38Z</time>
      </trkpt>
      <trkpt lat="45.947120189666748" lon="9.204783439636231">
        <ele>279.4002685546875</ele>
        <time>2006-07-09T13:44:42Z</time>
      </trkpt>
      <trkpt lat="45.946969985961914" lon="9.204483032226563">
        <ele>278.919677734375</ele>
        <time>2006-07-09T13:44:48Z</time>
      </trkpt>
      <trkpt lat="45.947098731994629" lon="9.204354286193848">
        <ele>273.6324462890625</ele>
        <time>2006-07-09T13:44:53Z</time>
      </trkpt>
      <trkpt lat="45.947141647338867" lon="9.204483032226563">
        <ele>270.2677001953125</ele>
        <time>2006-07-09T13:44:55Z</time>
      </trkpt>
      <trkpt lat="45.947334766387939" lon="9.204654693603516">
        <ele>266.4224853515625</ele>
        <time>2006-07-09T13:45:01Z</time>
      </trkpt>
      <trkpt lat="45.947270393371582" lon="9.204525947570801">
        <ele>265.94189453125</ele>
        <time>2006-07-09T13:45:03Z</time>
      </trkpt>
      <trkpt lat="45.947120189666748" lon="9.20405387878418">
        <ele>263.057861328125</ele>
        <time>2006-07-09T13:45:09Z</time>
      </trkpt>
      <trkpt lat="45.947227478027344" lon="9.203667640686035">
        <ele>262.5771484375</ele>
        <time>2006-07-09T13:45:15Z</time>
      </trkpt>
      <trkpt lat="45.947291851043701" lon="9.203753471374512">
        <ele>260.1739501953125</ele>
        <time>2006-07-09T13:45:17Z</time>
      </trkpt>
      <trkpt lat="45.947484970092773" lon="9.203968048095703">
        <ele>255.3673095703125</ele>
        <time>2006-07-09T13:45:22Z</time>
      </trkpt>
      <trkpt lat="45.947742462158203" lon="9.204118251800537">
        <ele>250.560791015625</ele>
        <time>2006-07-09T13:45:28Z</time>
      </trkpt>
      <trkpt lat="45.947935581207275" lon="9.204246997833252">
        <ele>249.1187744140625</ele>
        <time>2006-07-09T13:45:32Z</time>
      </trkpt>
      <trkpt lat="45.948364734649658" lon="9.20480489730835">
        <ele>240.9476318359375</ele>
        <time>2006-07-09T13:45:44Z</time>
      </trkpt>
      <trkpt lat="45.948386192321777" lon="9.205126762390137">
        <ele>234.2183837890625</ele>
        <time>2006-07-09T13:45:49Z</time>
      </trkpt>
      <trkpt lat="45.948300361633301" lon="9.205470085144043">
        <ele>228.93115234375</ele>
        <time>2006-07-09T13:45:54Z</time>
      </trkpt>
      <trkpt lat="45.948386192321777" lon="9.205448627471924">
        <ele>225.0859375</ele>
        <time>2006-07-09T13:46:01Z</time>
      </trkpt>
      <trkpt lat="45.948536396026611" lon="9.204955101013184">
        <ele>222.6824951171875</ele>
        <time>2006-07-09T13:46:13Z</time>
      </trkpt>
      <trkpt lat="45.948665142059326" lon="9.204504489898682">
        <ele>220.2791748046875</ele>
        <time>2006-07-09T13:46:22Z</time>
      </trkpt>
      <trkpt lat="45.948536396026611" lon="9.204204082489014">
        <ele>217.8759765625</ele>
        <time>2006-07-09T13:46:27Z</time>
      </trkpt>
      <trkpt lat="45.948343276977539" lon="9.203946590423584">
        <ele>215.47265625</ele>
        <time>2006-07-09T13:46:35Z</time>
      </trkpt>
      <trkpt lat="45.94832181930542" lon="9.203882217407227">
        <ele>215.47265625</ele>
        <time>2006-07-09T13:46:42Z</time>
      </trkpt>
      <trkpt lat="45.948300361633301" lon="9.203860759735107">
        <ele>200.0916748046875</ele>
        <time>2006-07-09T13:47:30Z</time>
      </trkpt>
      <trkpt lat="45.948300361633301" lon="9.203882217407227">
        <ele>209.704833984375</ele>
        <time>2006-07-09T13:51:25Z</time>
      </trkpt>
      <trkpt lat="45.948214530944824" lon="9.20379638671875">
        <ele>211.62744140625</ele>
        <time>2006-07-09T13:51:33Z</time>
      </trkpt>
      <trkpt lat="45.947935581207275" lon="9.20353889465332">
        <ele>212.1080322265625</ele>
        <time>2006-07-09T13:51:44Z</time>
      </trkpt>
      <trkpt lat="45.947484970092773" lon="9.203088283538818">
        <ele>212.1080322265625</ele>
        <time>2006-07-09T13:51:58Z</time>
      </trkpt>
      <trkpt lat="45.946948528289795" lon="9.202444553375244">
        <ele>210.1854248046875</ele>
        <time>2006-07-09T13:52:14Z</time>
      </trkpt>
      <trkpt lat="45.946712493896484" lon="9.201521873474121">
        <ele>209.22412109375</ele>
        <time>2006-07-09T13:52:26Z</time>
      </trkpt>
      <trkpt lat="45.946605205535889" lon="9.201071262359619">
        <ele>208.2628173828125</ele>
        <time>2006-07-09T13:52:31Z</time>
      </trkpt>
      <trkpt lat="45.946519374847412" lon="9.200663566589356">
        <ele>211.62744140625</ele>
        <time>2006-07-09T13:52:36Z</time>
      </trkpt>
      <trkpt lat="45.946390628814697" lon="9.199976921081543">
        <ele>213.0693359375</ele>
        <time>2006-07-09T13:52:46Z</time>
      </trkpt>
      <trkpt lat="45.94632625579834" lon="9.19879674911499">
        <ele>211.62744140625</ele>
        <time>2006-07-09T13:53:04Z</time>
      </trkpt>
      <trkpt lat="45.94632625579834" lon="9.19856071472168">
        <ele>210.666015625</ele>
        <time>2006-07-09T13:53:08Z</time>
      </trkpt>
      <trkpt lat="45.946433544158936" lon="9.197466373443604">
        <ele>214.0306396484375</ele>
        <time>2006-07-09T13:53:25Z</time>
      </trkpt>
      <trkpt lat="45.94658374786377" lon="9.196715354919434">
        <ele>213.0693359375</ele>
        <time>2006-07-09T13:53:42Z</time>
      </trkpt>
      <trkpt lat="45.946605205535889" lon="9.196629524230957">
        <ele>214.991943359375</ele>
        <time>2006-07-09T13:53:50Z</time>
      </trkpt>
      <trkpt lat="45.94656229019165" lon="9.196457862854004">
        <ele>214.51123046875</ele>
        <time>2006-07-09T13:54:01Z</time>
      </trkpt>
      <trkpt lat="45.946433544158936" lon="9.196157455444336">
        <ele>215.47265625</ele>
        <time>2006-07-09T13:54:16Z</time>
      </trkpt>
      <trkpt lat="45.946369171142578" lon="9.195556640625">
        <ele>215.9532470703125</ele>
        <time>2006-07-09T13:54:29Z</time>
      </trkpt>
      <trkpt lat="45.946433544158936" lon="9.194848537445068">
        <ele>214.991943359375</ele>
        <time>2006-07-09T13:54:44Z</time>
      </trkpt>
      <trkpt lat="45.946455001831055" lon="9.194076061248779">
        <ele>215.9532470703125</ele>
        <time>2006-07-09T13:55:02Z</time>
      </trkpt>
      <trkpt lat="45.946369171142578" lon="9.193410873413086">
        <ele>217.3953857421875</ele>
        <time>2006-07-09T13:55:16Z</time>
      </trkpt>
      <trkpt lat="45.946111679077148" lon="9.192938804626465">
        <ele>218.8372802734375</ele>
        <time>2006-07-09T13:55:27Z</time>
      </trkpt>
      <trkpt lat="45.9458327293396" lon="9.192466735839844">
        <ele>216.9146728515625</ele>
        <time>2006-07-09T13:55:39Z</time>
      </trkpt>
      <trkpt lat="45.94557523727417" lon="9.191780090332031">
        <ele>216.4339599609375</ele>
        <time>2006-07-09T13:55:57Z</time>
      </trkpt>
      <trkpt lat="45.94557523727417" lon="9.191415309906006">
        <ele>217.3953857421875</ele>
        <time>2006-07-09T13:56:06Z</time>
      </trkpt>
      <trkpt lat="45.945596694946289" lon="9.191350936889648">
        <ele>215.47265625</ele>
        <time>2006-07-09T13:56:19Z</time>
      </trkpt>
      <trkpt lat="45.945639610290527" lon="9.191286563873291">
        <ele>221.2406005859375</ele>
        <time>2006-07-09T13:57:30Z</time>
      </trkpt>
      <trkpt lat="45.945618152618408" lon="9.191286563873291">
        <ele>219.3179931640625</ele>
        <time>2006-07-09T13:57:42Z</time>
      </trkpt>
      <trkpt lat="45.945618152618408" lon="9.191286563873291">
        <ele>218.8372802734375</ele>
        <time>2006-07-09T13:57:45Z</time>
      </trkpt>
      <trkpt lat="45.94557523727417" lon="9.191200733184815">
        <ele>218.8372802734375</ele>
        <time>2006-07-09T13:57:49Z</time>
      </trkpt>
      <trkpt lat="45.945467948913574" lon="9.190878868103027">
        <ele>219.3179931640625</ele>
        <time>2006-07-09T13:58:01Z</time>
      </trkpt>
      <trkpt lat="45.945360660552979" lon="9.190192222595215">
        <ele>219.798583984375</ele>
        <time>2006-07-09T13:58:19Z</time>
      </trkpt>
      <trkpt lat="45.945339202880859" lon="9.189655780792236">
        <ele>220.7598876953125</ele>
        <time>2006-07-09T13:58:33Z</time>
      </trkpt>
      <trkpt lat="45.945253372192383" lon="9.189226627349854">
        <ele>221.72119140625</ele>
        <time>2006-07-09T13:58:45Z</time>
      </trkpt>
      <trkpt lat="45.945103168487549" lon="9.188625812530518">
        <ele>224.12451171875</ele>
        <time>2006-07-09T13:58:58Z</time>
      </trkpt>
      <trkpt lat="45.94508171081543" lon="9.188046455383301">
        <ele>224.605224609375</ele>
        <time>2006-07-09T13:59:09Z</time>
      </trkpt>
      <trkpt lat="45.945274829864502" lon="9.186780452728272">
        <ele>224.605224609375</ele>
        <time>2006-07-09T13:59:31Z</time>
      </trkpt>
      <trkpt lat="45.945296287536621" lon="9.186458587646484">
        <ele>225.0859375</ele>
        <time>2006-07-09T13:59:36Z</time>
      </trkpt>
      <trkpt lat="45.945124626159668" lon="9.185085296630859">
        <ele>226.047119140625</ele>
        <time>2006-07-09T13:59:57Z</time>
      </trkpt>
      <trkpt lat="45.945038795471191" lon="9.183862209320068">
        <ele>225.5665283203125</ele>
        <time>2006-07-09T14:00:14Z</time>
      </trkpt>
      <trkpt lat="45.94508171081543" lon="9.183454513549805">
        <ele>225.5665283203125</ele>
        <time>2006-07-09T14:00:19Z</time>
      </trkpt>
      <trkpt lat="45.945060253143311" lon="9.182553291320801">
        <ele>224.605224609375</ele>
        <time>2006-07-09T14:00:31Z</time>
      </trkpt>
      <trkpt lat="45.945017337799072" lon="9.182338714599609">
        <ele>224.605224609375</ele>
        <time>2006-07-09T14:00:34Z</time>
      </trkpt>
      <trkpt lat="45.944952964782715" lon="9.18208122253418">
        <ele>225.5665283203125</ele>
        <time>2006-07-09T14:00:38Z</time>
      </trkpt>
      <trkpt lat="45.944609642028809" lon="9.181437492370606">
        <ele>225.5665283203125</ele>
        <time>2006-07-09T14:00:49Z</time>
      </trkpt>
      <trkpt lat="45.944545269012451" lon="9.18133020401001">
        <ele>225.5665283203125</ele>
        <time>2006-07-09T14:00:51Z</time>
      </trkpt>
      <trkpt lat="45.944244861602783" lon="9.181029796600342">
        <ele>226.047119140625</ele>
        <time>2006-07-09T14:00:59Z</time>
      </trkpt>
      <trkpt lat="45.943965911865234" lon="9.180192947387695">
        <ele>227.008544921875</ele>
        <time>2006-07-09T14:01:15Z</time>
      </trkpt>
      <trkpt lat="45.943922996520996" lon="9.180064201354981">
        <ele>227.008544921875</ele>
        <time>2006-07-09T14:01:17Z</time>
      </trkpt>
      <trkpt lat="45.94383716583252" lon="9.179592132568359">
        <ele>227.9697265625</ele>
        <time>2006-07-09T14:01:25Z</time>
      </trkpt>
      <trkpt lat="45.943858623504639" lon="9.179463386535645">
        <ele>227.9697265625</ele>
        <time>2006-07-09T14:01:27Z</time>
      </trkpt>
      <trkpt lat="45.943858623504639" lon="9.17858362197876">
        <ele>228.450439453125</ele>
        <time>2006-07-09T14:01:41Z</time>
      </trkpt>
      <trkpt lat="45.943880081176758" lon="9.178261756896973">
        <ele>228.450439453125</ele>
        <time>2006-07-09T14:01:46Z</time>
      </trkpt>
      <trkpt lat="45.943665504455566" lon="9.177446365356445">
        <ele>227.9697265625</ele>
        <time>2006-07-09T14:01:59Z</time>
      </trkpt>
      <trkpt lat="45.943429470062256" lon="9.176630973815918">
        <ele>227.4891357421875</ele>
        <time>2006-07-09T14:02:11Z</time>
      </trkpt>
      <trkpt lat="45.94306468963623" lon="9.175772666931152">
        <ele>226.047119140625</ele>
        <time>2006-07-09T14:02:25Z</time>
      </trkpt>
      <trkpt lat="45.94282865524292" lon="9.174957275390625">
        <ele>225.5665283203125</ele>
        <time>2006-07-09T14:02:37Z</time>
      </trkpt>
      <trkpt lat="45.942678451538086" lon="9.174034595489502">
        <ele>224.12451171875</ele>
        <time>2006-07-09T14:02:49Z</time>
      </trkpt>
      <trkpt lat="45.942463874816895" lon="9.173047542572022">
        <ele>222.2017822265625</ele>
        <time>2006-07-09T14:03:01Z</time>
      </trkpt>
      <trkpt lat="45.942442417144775" lon="9.172875881195068">
        <ele>222.2017822265625</ele>
        <time>2006-07-09T14:03:03Z</time>
      </trkpt>
      <trkpt lat="45.942184925079346" lon="9.172103404998779">
        <ele>220.7598876953125</ele>
        <time>2006-07-09T14:03:14Z</time>
      </trkpt>
      <trkpt lat="45.942013263702393" lon="9.171524047851563">
        <ele>221.2406005859375</ele>
        <time>2006-07-09T14:03:23Z</time>
      </trkpt>
      <trkpt lat="45.942013263702393" lon="9.171309471130371">
        <ele>220.7598876953125</ele>
        <time>2006-07-09T14:03:26Z</time>
      </trkpt>
      <trkpt lat="45.941927433013916" lon="9.171051979064941">
        <ele>220.2791748046875</ele>
        <time>2006-07-09T14:03:30Z</time>
      </trkpt>
      <trkpt lat="45.941734313964844" lon="9.170858860015869">
        <ele>219.3179931640625</ele>
        <time>2006-07-09T14:03:35Z</time>
      </trkpt>
      <trkpt lat="45.941112041473389" lon="9.170408248901367">
        <ele>218.3565673828125</ele>
        <time>2006-07-09T14:03:49Z</time>
      </trkpt>
      <trkpt lat="45.940725803375244" lon="9.16985034942627">
        <ele>218.3565673828125</ele>
        <time>2006-07-09T14:04:00Z</time>
      </trkpt>
      <trkpt lat="45.940682888031006" lon="9.169785976409912">
        <ele>218.3565673828125</ele>
        <time>2006-07-09T14:04:01Z</time>
      </trkpt>
      <trkpt lat="45.940618515014648" lon="9.16959285736084">
        <ele>218.3565673828125</ele>
        <time>2006-07-09T14:04:04Z</time>
      </trkpt>
      <trkpt lat="45.940425395965576" lon="9.168627262115479">
        <ele>219.3179931640625</ele>
        <time>2006-07-09T14:04:18Z</time>
      </trkpt>
      <trkpt lat="45.9403395652771" lon="9.168241024017334">
        <ele>219.3179931640625</ele>
        <time>2006-07-09T14:04:24Z</time>
      </trkpt>
      <trkpt lat="45.9403395652771" lon="9.167962074279785">
        <ele>219.798583984375</ele>
        <time>2006-07-09T14:04:28Z</time>
      </trkpt>
      <trkpt lat="45.940403938293457" lon="9.167318344116211">
        <ele>219.3179931640625</ele>
        <time>2006-07-09T14:04:38Z</time>
      </trkpt>
      <trkpt lat="45.940361022949219" lon="9.166996479034424">
        <ele>219.798583984375</ele>
        <time>2006-07-09T14:04:43Z</time>
      </trkpt>
      <trkpt lat="45.94008207321167" lon="9.165859222412109">
        <ele>218.8372802734375</ele>
        <time>2006-07-09T14:04:59Z</time>
      </trkpt>
      <trkpt lat="45.939846038818359" lon="9.16510820388794">
        <ele>217.8759765625</ele>
        <time>2006-07-09T14:05:10Z</time>
      </trkpt>
      <trkpt lat="45.939674377441406" lon="9.16409969329834">
        <ele>218.3565673828125</ele>
        <time>2006-07-09T14:05:24Z</time>
      </trkpt>
      <trkpt lat="45.939652919769287" lon="9.164035320281982">
        <ele>218.3565673828125</ele>
        <time>2006-07-09T14:05:25Z</time>
      </trkpt>
      <trkpt lat="45.939309597015381" lon="9.163370132446289">
        <ele>218.3565673828125</ele>
        <time>2006-07-09T14:05:36Z</time>
      </trkpt>
      <trkpt lat="45.938987731933594" lon="9.162747859954834">
        <ele>218.8372802734375</ele>
        <time>2006-07-09T14:05:47Z</time>
      </trkpt>
      <trkpt lat="45.938923358917236" lon="9.162468910217285">
        <ele>218.8372802734375</ele>
        <time>2006-07-09T14:05:51Z</time>
      </trkpt>
      <trkpt lat="45.938901901245117" lon="9.162039756774902">
        <ele>218.8372802734375</ele>
        <time>2006-07-09T14:05:57Z</time>
      </trkpt>
      <trkpt lat="45.938708782196045" lon="9.161288738250732">
        <ele>221.2406005859375</ele>
        <time>2006-07-09T14:06:09Z</time>
      </trkpt>
      <trkpt lat="45.938622951507568" lon="9.160494804382324">
        <ele>221.72119140625</ele>
        <time>2006-07-09T14:06:21Z</time>
      </trkpt>
      <trkpt lat="45.938215255737305" lon="9.159722328186035">
        <ele>221.2406005859375</ele>
        <time>2006-07-09T14:06:35Z</time>
      </trkpt>
      <trkpt lat="45.937957763671875" lon="9.159464836120606">
        <ele>221.72119140625</ele>
        <time>2006-07-09T14:06:41Z</time>
      </trkpt>
      <trkpt lat="45.937850475311279" lon="9.159293174743652">
        <ele>221.72119140625</ele>
        <time>2006-07-09T14:06:44Z</time>
      </trkpt>
      <trkpt lat="45.937421321868896" lon="9.158263206481934">
        <ele>221.2406005859375</ele>
        <time>2006-07-09T14:07:00Z</time>
      </trkpt>
      <trkpt lat="45.937399864196777" lon="9.158177375793457">
        <ele>221.2406005859375</ele>
        <time>2006-07-09T14:07:01Z</time>
      </trkpt>
      <trkpt lat="45.937356948852539" lon="9.157898426055908">
        <ele>221.2406005859375</ele>
        <time>2006-07-09T14:07:05Z</time>
      </trkpt>
      <trkpt lat="45.937356948852539" lon="9.157168865203857">
        <ele>220.7598876953125</ele>
        <time>2006-07-09T14:07:15Z</time>
      </trkpt>
      <trkpt lat="45.937249660491943" lon="9.156761169433594">
        <ele>220.2791748046875</ele>
        <time>2006-07-09T14:07:21Z</time>
      </trkpt>
      <trkpt lat="45.936756134033203" lon="9.155817031860352">
        <ele>219.3179931640625</ele>
        <time>2006-07-09T14:07:36Z</time>
      </trkpt>
      <trkpt lat="45.936241149902344" lon="9.154572486877441">
        <ele>220.2791748046875</ele>
        <time>2006-07-09T14:07:56Z</time>
      </trkpt>
      <trkpt lat="45.936155319213867" lon="9.154272079467773">
        <ele>220.7598876953125</ele>
        <time>2006-07-09T14:08:01Z</time>
      </trkpt>
      <trkpt lat="45.935747623443604" lon="9.153392314910889">
        <ele>221.2406005859375</ele>
        <time>2006-07-09T14:08:16Z</time>
      </trkpt>
      <trkpt lat="45.93557596206665" lon="9.153242111206055">
        <ele>220.7598876953125</ele>
        <time>2006-07-09T14:08:20Z</time>
      </trkpt>
      <trkpt lat="45.935211181640625" lon="9.153048992156982">
        <ele>217.3953857421875</ele>
        <time>2006-07-09T14:08:28Z</time>
      </trkpt>
      <trkpt lat="45.93458890914917" lon="9.152340888977051">
        <ele>215.9532470703125</ele>
        <time>2006-07-09T14:08:45Z</time>
      </trkpt>
      <trkpt lat="45.933902263641357" lon="9.151782989501953">
        <ele>218.3565673828125</ele>
        <time>2006-07-09T14:09:02Z</time>
      </trkpt>
      <trkpt lat="45.933773517608643" lon="9.151697158813477">
        <ele>218.8372802734375</ele>
        <time>2006-07-09T14:09:05Z</time>
      </trkpt>
      <trkpt lat="45.933451652526855" lon="9.151096343994141">
        <ele>218.8372802734375</ele>
        <time>2006-07-09T14:09:17Z</time>
      </trkpt>
      <trkpt lat="45.933237075805664" lon="9.150924682617188">
        <ele>219.798583984375</ele>
        <time>2006-07-09T14:09:23Z</time>
      </trkpt>
      <trkpt lat="45.932035446166992" lon="9.150774478912354">
        <ele>220.2791748046875</ele>
        <time>2006-07-09T14:09:50Z</time>
      </trkpt>
      <trkpt lat="45.93134880065918" lon="9.150946140289307">
        <ele>220.2791748046875</ele>
        <time>2006-07-09T14:10:06Z</time>
      </trkpt>
      <trkpt lat="45.931177139282227" lon="9.151031970977783">
        <ele>220.2791748046875</ele>
        <time>2006-07-09T14:10:10Z</time>
      </trkpt>
      <trkpt lat="45.930790901184082" lon="9.150924682617188">
        <ele>220.2791748046875</ele>
        <time>2006-07-09T14:10:19Z</time>
      </trkpt>
      <trkpt lat="45.930318832397461" lon="9.15036678314209">
        <ele>222.2017822265625</ele>
        <time>2006-07-09T14:10:32Z</time>
      </trkpt>
      <trkpt lat="45.930254459381104" lon="9.150302410125732">
        <ele>222.2017822265625</ele>
        <time>2006-07-09T14:10:34Z</time>
      </trkpt>
      <trkpt lat="45.929653644561768" lon="9.150130748748779">
        <ele>224.605224609375</ele>
        <time>2006-07-09T14:10:50Z</time>
      </trkpt>
      <trkpt lat="45.929503440856934" lon="9.150087833404541">
        <ele>224.605224609375</ele>
        <time>2006-07-09T14:10:54Z</time>
      </trkpt>
      <trkpt lat="45.928645133972168" lon="9.150173664093018">
        <ele>225.0859375</ele>
        <time>2006-07-09T14:11:14Z</time>
      </trkpt>
      <trkpt lat="45.927486419677734" lon="9.150581359863281">
        <ele>225.0859375</ele>
        <time>2006-07-09T14:11:39Z</time>
      </trkpt>
      <trkpt lat="45.926499366760254" lon="9.15111780166626">
        <ele>225.0859375</ele>
        <time>2006-07-09T14:11:59Z</time>
      </trkpt>
      <trkpt lat="45.925877094268799" lon="9.151461124420166">
        <ele>225.0859375</ele>
        <time>2006-07-09T14:12:12Z</time>
      </trkpt>
      <trkpt lat="45.925683975219727" lon="9.151396751403809">
        <ele>225.0859375</ele>
        <time>2006-07-09T14:12:16Z</time>
      </trkpt>
      <trkpt lat="45.925576686859131" lon="9.151289463043213">
        <ele>225.5665283203125</ele>
        <time>2006-07-09T14:12:19Z</time>
      </trkpt>
      <trkpt lat="45.925040245056152" lon="9.151074886322022">
        <ele>225.5665283203125</ele>
        <time>2006-07-09T14:12:31Z</time>
      </trkpt>
      <trkpt lat="45.924868583679199" lon="9.151031970977783">
        <ele>225.5665283203125</ele>
        <time>2006-07-09T14:12:35Z</time>
      </trkpt>
      <trkpt lat="45.92409610748291" lon="9.151203632354736">
        <ele>225.5665283203125</ele>
        <time>2006-07-09T14:12:53Z</time>
      </trkpt>
      <trkpt lat="45.923023223876953" lon="9.151525497436523">
        <ele>226.047119140625</ele>
        <time>2006-07-09T14:13:18Z</time>
      </trkpt>
      <trkpt lat="45.922894477844238" lon="9.151546955108643">
        <ele>226.047119140625</ele>
        <time>2006-07-09T14:13:21Z</time>
      </trkpt>
      <trkpt lat="45.922808647155762" lon="9.151568412780762">
        <ele>226.047119140625</ele>
        <time>2006-07-09T14:13:23Z</time>
      </trkpt>
      <trkpt lat="45.922443866729736" lon="9.151997566223145">
        <ele>226.047119140625</ele>
        <time>2006-07-09T14:13:33Z</time>
      </trkpt>
      <trkpt lat="45.92210054397583" lon="9.152426719665527">
        <ele>226.047119140625</ele>
        <time>2006-07-09T14:13:43Z</time>
      </trkpt>
      <trkpt lat="45.921950340270996" lon="9.152512550354004">
        <ele>226.047119140625</ele>
        <time>2006-07-09T14:13:46Z</time>
      </trkpt>
      <trkpt lat="45.921542644500732" lon="9.152598381042481">
        <ele>226.52783203125</ele>
        <time>2006-07-09T14:13:54Z</time>
      </trkpt>
      <trkpt lat="45.920984745025635" lon="9.152963161468506">
        <ele>226.52783203125</ele>
        <time>2006-07-09T14:14:06Z</time>
      </trkpt>
      <trkpt lat="45.920555591583252" lon="9.152963161468506">
        <ele>226.52783203125</ele>
        <time>2006-07-09T14:14:14Z</time>
      </trkpt>
      <trkpt lat="45.920147895812988" lon="9.153027534484863">
        <ele>227.008544921875</ele>
        <time>2006-07-09T14:14:22Z</time>
      </trkpt>
      <trkpt lat="45.920040607452393" lon="9.153070449829102">
        <ele>227.008544921875</ele>
        <time>2006-07-09T14:14:24Z</time>
      </trkpt>
      <trkpt lat="45.91961145401001" lon="9.153435230255127">
        <ele>228.93115234375</ele>
        <time>2006-07-09T14:14:34Z</time>
      </trkpt>
      <trkpt lat="45.91935396194458" lon="9.153521060943604">
        <ele>229.4117431640625</ele>
        <time>2006-07-09T14:14:39Z</time>
      </trkpt>
      <trkpt lat="45.91911792755127" lon="9.153542518615723">
        <ele>228.93115234375</ele>
        <time>2006-07-09T14:14:44Z</time>
      </trkpt>
      <trkpt lat="45.91886043548584" lon="9.153542518615723">
        <ele>229.892333984375</ele>
        <time>2006-07-09T14:14:49Z</time>
      </trkpt>
      <trkpt lat="45.918045043945313" lon="9.153692722320557">
        <ele>228.450439453125</ele>
        <time>2006-07-09T14:15:04Z</time>
      </trkpt>
      <trkpt lat="45.917830467224121" lon="9.153671264648438">
        <ele>230.373046875</ele>
        <time>2006-07-09T14:15:08Z</time>
      </trkpt>
      <trkpt lat="45.917143821716309" lon="9.153714179992676">
        <ele>237.102294921875</ele>
        <time>2006-07-09T14:15:23Z</time>
      </trkpt>
      <trkpt lat="45.916564464569092" lon="9.153757095336914">
        <ele>239.9862060546875</ele>
        <time>2006-07-09T14:15:39Z</time>
      </trkpt>
      <trkpt lat="45.91611385345459" lon="9.153885841369629">
        <ele>241.42822265625</ele>
        <time>2006-07-09T14:15:53Z</time>
      </trkpt>
      <trkpt lat="45.915534496307373" lon="9.154014587402344">
        <ele>241.908935546875</ele>
        <time>2006-07-09T14:16:11Z</time>
      </trkpt>
      <trkpt lat="45.914998054504395" lon="9.153950214385986">
        <ele>242.8702392578125</ele>
        <time>2006-07-09T14:16:28Z</time>
      </trkpt>
      <trkpt lat="45.914461612701416" lon="9.154143333435059">
        <ele>243.83154296875</ele>
        <time>2006-07-09T14:16:45Z</time>
      </trkpt>
      <trkpt lat="45.914332866668701" lon="9.154229164123535">
        <ele>243.83154296875</ele>
        <time>2006-07-09T14:16:49Z</time>
      </trkpt>
      <trkpt lat="45.913839340209961" lon="9.154186248779297">
        <ele>245.2734375</ele>
        <time>2006-07-09T14:17:01Z</time>
      </trkpt>
      <trkpt lat="45.913174152374268" lon="9.154272079467773">
        <ele>245.754150390625</ele>
        <time>2006-07-09T14:17:18Z</time>
      </trkpt>
      <trkpt lat="45.912551879882813" lon="9.154808521270752">
        <ele>245.754150390625</ele>
        <time>2006-07-09T14:17:37Z</time>
      </trkpt>
      <trkpt lat="45.912187099456787" lon="9.155001640319824">
        <ele>245.754150390625</ele>
        <time>2006-07-09T14:17:48Z</time>
      </trkpt>
      <trkpt lat="45.912079811096191" lon="9.155087471008301">
        <ele>245.754150390625</ele>
        <time>2006-07-09T14:17:52Z</time>
      </trkpt>
      <trkpt lat="45.912230014801025" lon="9.155344963073731">
        <ele>245.754150390625</ele>
        <time>2006-07-09T14:18:03Z</time>
      </trkpt>
      <trkpt lat="45.912230014801025" lon="9.155387878417969">
        <ele>245.754150390625</ele>
        <time>2006-07-09T14:18:04Z</time>
      </trkpt>
      <trkpt lat="45.912744998931885" lon="9.155130386352539">
        <ele>245.754150390625</ele>
        <time>2006-07-09T14:18:22Z</time>
      </trkpt>
      <trkpt lat="45.913496017456055" lon="9.154572486877441">
        <ele>251.0413818359375</ele>
        <time>2006-07-09T14:18:51Z</time>
      </trkpt>
      <trkpt lat="45.914053916931152" lon="9.154443740844727">
        <ele>253.4447021484375</ele>
        <time>2006-07-09T14:19:11Z</time>
      </trkpt>
      <trkpt lat="45.914397239685059" lon="9.154593944549561">
        <ele>256.3287353515625</ele>
        <time>2006-07-09T14:19:28Z</time>
      </trkpt>
      <trkpt lat="45.914783477783203" lon="9.154894351959229">
        <ele>259.212646484375</ele>
        <time>2006-07-09T14:19:52Z</time>
      </trkpt>
      <trkpt lat="45.914955139160156" lon="9.154787063598633">
        <ele>262.5771484375</ele>
        <time>2006-07-09T14:20:04Z</time>
      </trkpt>
      <trkpt lat="45.915169715881348" lon="9.15461540222168">
        <ele>268.8258056640625</ele>
        <time>2006-07-09T14:20:19Z</time>
      </trkpt>
      <trkpt lat="45.915491580963135" lon="9.154486656188965">
        <ele>274.113037109375</ele>
        <time>2006-07-09T14:20:37Z</time>
      </trkpt>
      <trkpt lat="45.915813446044922" lon="9.154593944549561">
        <ele>275.5550537109375</ele>
        <time>2006-07-09T14:20:55Z</time>
      </trkpt>
      <trkpt lat="45.916156768798828" lon="9.154808521270752">
        <ele>278.43896484375</ele>
        <time>2006-07-09T14:21:14Z</time>
      </trkpt>
      <trkpt lat="45.916414260864258" lon="9.154829978942871">
        <ele>280.3616943359375</ele>
        <time>2006-07-09T14:21:28Z</time>
      </trkpt>
      <trkpt lat="45.916564464569092" lon="9.154787063598633">
        <ele>281.8035888671875</ele>
        <time>2006-07-09T14:21:43Z</time>
      </trkpt>
      <trkpt lat="45.916564464569092" lon="9.154765605926514">
        <ele>286.6102294921875</ele>
        <time>2006-07-09T14:22:09Z</time>
      </trkpt>
      <trkpt lat="45.916628837585449" lon="9.154744148254395">
        <ele>286.1295166015625</ele>
        <time>2006-07-09T14:23:12Z</time>
      </trkpt>
      <trkpt lat="45.916650295257568" lon="9.154744148254395">
        <ele>287.0908203125</ele>
        <time>2006-07-09T14:23:17Z</time>
      </trkpt>
      <trkpt lat="45.916736125946045" lon="9.154765605926514">
        <ele>287.5714111328125</ele>
        <time>2006-07-09T14:23:26Z</time>
      </trkpt>
      <trkpt lat="45.917036533355713" lon="9.154787063598633">
        <ele>290.45556640625</ele>
        <time>2006-07-09T14:23:45Z</time>
      </trkpt>
      <trkpt lat="45.917186737060547" lon="9.154765605926514">
        <ele>290.9361572265625</ele>
        <time>2006-07-09T14:23:54Z</time>
      </trkpt>
      <trkpt lat="45.917165279388428" lon="9.15485143661499">
        <ele>290.9361572265625</ele>
        <time>2006-07-09T14:24:00Z</time>
      </trkpt>
      <trkpt lat="45.916950702667236" lon="9.15485143661499">
        <ele>291.8974609375</ele>
        <time>2006-07-09T14:24:12Z</time>
      </trkpt>
      <trkpt lat="45.916650295257568" lon="9.154980182647705">
        <ele>295.261962890625</ele>
        <time>2006-07-09T14:24:29Z</time>
      </trkpt>
      <trkpt lat="45.916306972503662" lon="9.155194759368897">
        <ele>299.1072998046875</ele>
        <time>2006-07-09T14:24:49Z</time>
      </trkpt>
      <trkpt lat="45.916006565093994" lon="9.155194759368897">
        <ele>302.9525146484375</ele>
        <time>2006-07-09T14:25:05Z</time>
      </trkpt>
      <trkpt lat="45.915663242340088" lon="9.155173301696777">
        <ele>305.35595703125</ele>
        <time>2006-07-09T14:25:22Z</time>
      </trkpt>
      <trkpt lat="45.91536283493042" lon="9.15536642074585">
        <ele>307.278564453125</ele>
        <time>2006-07-09T14:25:40Z</time>
      </trkpt>
      <trkpt lat="45.915277004241943" lon="9.155752658843994">
        <ele>308.720458984375</ele>
        <time>2006-07-09T14:25:55Z</time>
      </trkpt>
      <trkpt lat="45.915040969848633" lon="9.155817031860352">
        <ele>310.64306640625</ele>
        <time>2006-07-09T14:26:07Z</time>
      </trkpt>
      <trkpt lat="45.914804935455322" lon="9.155945777893066">
        <ele>311.123779296875</ele>
        <time>2006-07-09T14:26:20Z</time>
      </trkpt>
      <trkpt lat="45.914719104766846" lon="9.155988693237305">
        <ele>311.6044921875</ele>
        <time>2006-07-09T14:26:24Z</time>
      </trkpt>
      <trkpt lat="45.914332866668701" lon="9.155924320220947">
        <ele>312.5657958984375</ele>
        <time>2006-07-09T14:26:42Z</time>
      </trkpt>
      <trkpt lat="45.913925170898438" lon="9.155967235565186">
        <ele>318.3336181640625</ele>
        <time>2006-07-09T14:27:00Z</time>
      </trkpt>
      <trkpt lat="45.913538932800293" lon="9.1560959815979">
        <ele>318.8143310546875</ele>
        <time>2006-07-09T14:27:19Z</time>
      </trkpt>
      <trkpt lat="45.913345813751221" lon="9.156374931335449">
        <ele>321.6983642578125</ele>
        <time>2006-07-09T14:27:32Z</time>
      </trkpt>
      <trkpt lat="45.913195610046387" lon="9.156718254089356">
        <ele>321.6983642578125</ele>
        <time>2006-07-09T14:27:44Z</time>
      </trkpt>
      <trkpt lat="45.912938117980957" lon="9.1571044921875">
        <ele>323.140380859375</ele>
        <time>2006-07-09T14:28:01Z</time>
      </trkpt>
      <trkpt lat="45.912551879882813" lon="9.157211780548096">
        <ele>324.582275390625</ele>
        <time>2006-07-09T14:28:22Z</time>
      </trkpt>
      <trkpt lat="45.912315845489502" lon="9.157469272613525">
        <ele>324.1015625</ele>
        <time>2006-07-09T14:28:33Z</time>
      </trkpt>
      <trkpt lat="45.912272930145264" lon="9.157512187957764">
        <ele>324.1015625</ele>
        <time>2006-07-09T14:28:34Z</time>
      </trkpt>
      <trkpt lat="45.912036895751953" lon="9.15759801864624">
        <ele>323.6209716796875</ele>
        <time>2006-07-09T14:28:38Z</time>
      </trkpt>
      <trkpt lat="45.911715030670166" lon="9.157512187957764">
        <ele>323.140380859375</ele>
        <time>2006-07-09T14:28:43Z</time>
      </trkpt>
      <trkpt lat="45.911328792572021" lon="9.157190322875977">
        <ele>322.178955078125</ele>
        <time>2006-07-09T14:28:49Z</time>
      </trkpt>
      <trkpt lat="45.910964012145996" lon="9.1571044921875">
        <ele>321.6983642578125</ele>
        <time>2006-07-09T14:28:55Z</time>
      </trkpt>
      <trkpt lat="45.91087818145752" lon="9.157211780548096">
        <ele>321.6983642578125</ele>
        <time>2006-07-09T14:29:00Z</time>
      </trkpt>
      <trkpt lat="45.910813808441162" lon="9.157533645629883">
        <ele>321.6983642578125</ele>
        <time>2006-07-09T14:29:14Z</time>
      </trkpt>
      <trkpt lat="45.910642147064209" lon="9.157898426055908">
        <ele>321.6983642578125</ele>
        <time>2006-07-09T14:29:35Z</time>
      </trkpt>
      <trkpt lat="45.910449028015137" lon="9.158198833465576">
        <ele>322.65966796875</ele>
        <time>2006-07-09T14:29:57Z</time>
      </trkpt>
      <trkpt lat="45.910320281982422" lon="9.158284664154053">
        <ele>323.140380859375</ele>
        <time>2006-07-09T14:30:06Z</time>
      </trkpt>
      <trkpt lat="45.910212993621826" lon="9.158413410186768">
        <ele>326.985595703125</ele>
        <time>2006-07-09T14:30:19Z</time>
      </trkpt>
      <trkpt lat="45.910084247589111" lon="9.158456325531006">
        <ele>327.94677734375</ele>
        <time>2006-07-09T14:30:35Z</time>
      </trkpt>
      <trkpt lat="45.909955501556396" lon="9.158434867858887">
        <ele>333.234130859375</ele>
        <time>2006-07-09T14:30:51Z</time>
      </trkpt>
      <trkpt lat="45.909891128540039" lon="9.158456325531006">
        <ele>334.1954345703125</ele>
        <time>2006-07-09T14:30:59Z</time>
      </trkpt>
      <trkpt lat="45.909826755523682" lon="9.158778190612793">
        <ele>334.6761474609375</ele>
        <time>2006-07-09T14:31:24Z</time>
      </trkpt>
      <trkpt lat="45.909848213195801" lon="9.15886402130127">
        <ele>334.6761474609375</ele>
        <time>2006-07-09T14:31:28Z</time>
      </trkpt>
      <trkpt lat="45.90986967086792" lon="9.159293174743652">
        <ele>336.1181640625</ele>
        <time>2006-07-09T14:32:01Z</time>
      </trkpt>
      <trkpt lat="45.909955501556396" lon="9.159228801727295">
        <ele>338.521484375</ele>
        <time>2006-07-09T14:32:25Z</time>
      </trkpt>
      <trkpt lat="45.910041332244873" lon="9.159014225006104">
        <ele>347.6539306640625</ele>
        <time>2006-07-09T14:42:40Z</time>
      </trkpt>
      <trkpt lat="45.910019874572754" lon="9.159014225006104">
        <ele>351.4991455078125</ele>
        <time>2006-07-09T14:43:41Z</time>
      </trkpt>
    </trkseg>
  </trk>

</gpx>
